     2.11           OBSERVATION DATA    G (GPS)             RINEX VERSION / TYPE
teqc 2010Oct21 OPUS Account 20111028 20:36:14UTC            PGM / RUN BY / DATE
D 1528                                                      MARKER NAME
3088                                                        MARKER NUMBER
CSMIDDLETON NGS                                             OBSERVER / AGENCY
4624K01584 TRIMBLE NETR5 4.41                               REC # / TYPE / VERS
60177755 TRM41249.00 NONE                                   ANT # / TYPE
  -697915.0528 -5593132.8049  2974984.6117                  APPROX POSITION XYZ
        2.0000        0.0000        0.0000                  ANTENNA: DELTA H/E/N
     1     1                                                WAVELENGTH FACT L1/2
     5    L1    L2    C1    P1    P2                        # / TYPES OF OBSERV
    15                                                      LEAP SECONDS
  2011     8    27     0     0    0.0000000     GPS         TIME OF FIRST OBS
                                                            END OF HEADER
 11  8 27  0  0  0.0000000  0  9G17G10G12G09G02G05G25G30G04
 122534464.04717  95481465.11016  23317533.063                    23317544.496
 109724821.01818  85500001.35556  20879915.633                    20879925.363
 112037961.72718  87302380.08117  21320113.617                    21320123.078
 125708201.31916  97954519.57153  23921490.180                    23921504.676
 108566427.12617  84597347.63956  20659472.633                    20659479.469
 113933279.70318  88779264.57217  21680757.125                    21680767.605
 125578037.61017  97853081.42816  23896714.508                    23896727.391
 126415018.59816  98505272.70153  24055982.594                    24055993.770
 115292095.03218  89837983.72455  21939302.211                    21939312.750
 11  8 27  0  0 30.0000000  0  9G17G10G12G09G02G05G25G30G04
 122588600.474 7  95523649.247 7  23327834.828                    23327846.813
 109736909.025 8  85509420.60146  20882215.750                    20882225.559
 111983867.778 8  87260228.981 7  21309819.609                    21309828.500
 125787468.672 6  98016286.18043  23936573.859                    23936589.055
 108570215.680 8  84600299.78746  20660193.523                    20660200.465
 113849194.564 7  88713743.798 7  21664756.703                    21664766.828
 125481380.216 7  97777764.038 6  23878320.375                    23878334.281
 126315497.313 6  98427723.73743  24037044.320                    24037055.711
 115370109.240 8  89898773.99745  21954148.391                    21954158.055
 11  8 27  0  1  0.0000000  0  9G17G10G12G09G02G05G25G30G04
 122642906.109 7  95565965.204 6  23338168.875                    23338180.664
 109749626.316 8  85519330.19646  20884636.164                    20884645.375
 111930235.581 8  87218437.680 7  21299614.133                    21299623.586
 125866846.165 6  98078138.60944  23951679.477                    23951693.996
 108574267.084 8  84603456.74846  20660964.461                    20660971.152
 113765464.042 8  88648499.337 7  21648822.969                    21648833.246
 125384936.660 7  97702613.266 6  23859967.727                    23859981.852
 126216228.637 6  98350371.61743  24018154.563                    24018166.113
 115448223.373 8  89959642.14445  21969012.906                    21969023.004
 11  8 27  0  1 30.0000000  0  9G17G10G12G09G02G05G25G30G04
 122697381.340 7  95608413.327 6  23348535.758                    23348547.199
 109762972.510 8  85529729.85046  20887175.859                    20887185.387
 111877067.202 8  87177007.811 7  21289496.359                    21289505.484
 125946330.230 6  98140074.05643  23966804.266                    23966819.137
 108578580.277 8  84606817.69546  20661785.250                    20661791.930
 113682091.085 8  88583533.517 7  21632957.156                    21632967.813
 125288709.739 7  97627631.301 7  23841656.766                    23841670.328
 126117215.404 6  98273218.52943  23999312.625                    23999324.418
 115526435.854 8  90020586.91245  21983895.805                    21983905.930
 11  8 27  0  2  0.0000000  0  9G17G10G12G09G02G05G25G30G04
 122752026.243 7  95650993.690 6  23358934.156                    23358945.867
 109776947.314 8  85540619.33046  20889834.875                    20889844.395
 111824364.723 8  87135940.968 7  21279467.508                    21279476.430
 126025917.936 6  98202090.29744  23981949.289                    23981964.375
 108583153.904 7  84610381.57746  20662655.664                    20662661.871
 113599078.055 8  88518848.135 7  21617160.578                    21617170.742
 125192701.929 7  97552820.085 7  23823386.906                    23823401.160
 126018460.323 6  98196266.61844  23980519.891                    23980531.824
 115604744.796 8  90081606.85645  21998797.867                    21998808.016
 11  8 27  0  2 30.0000000  0  9G17G10G12G09G02G05G25G30G04
 122806841.917 7  95693707.106 6  23369364.977                    23369377.055
 109791550.358 8  85551998.35146  20892613.578                    20892623.371
 111772130.690 8  87095239.152 7  21269527.508                    21269536.582
 126105605.802 6  98264184.57243  23997113.781                    23997129.477
 108587987.153 8  84614147.76446  20663575.031                    20663582.082
 113516427.939 8  88454445.557 7  21601432.289                    21601442.711
 125096916.122 7  97478181.864 6  23805159.898                    23805172.895
 125919966.411 6  98119518.18743  23961777.063                    23961788.551
 115683148.398 7  90142700.55145  22013717.336                    22013727.910
 11  8 27  0  3  0.0000000  0  9G17G10G12G09G02G05G25G30G04
 122861828.556 7  95736553.737 7  23379829.094                    23379840.789
 109806780.789 8  85563866.24146  20895512.047                    20895521.762
 111720366.654 8  87054903.563 7  21259677.359                    21259685.988
 126185390.209 7  98326354.09044  24012296.172                    24012311.398
 108593078.181 8  84618114.81346  20664543.680                    20664550.516
 113434143.070 8  88390327.581 7  21585773.992                    21585784.516
 125001354.628 7  97403718.417 6  23786974.828                    23786988.242
 125821736.015 6  98042975.08643  23943084.234                    23943095.961
 115761644.777 7  90203866.54345  22028654.867                    22028665.059
 11  8 27  0  3 30.0000000  0  9G17G10G12G09G02G05G25G30G04
 122916986.738 7  95779534.053 6  23390325.070                    23390337.230
 109822638.729 8  85576223.10346  20898529.828                    20898538.762
 111669075.280 8  87014936.298 7  21249917.188                    21249925.922
 126265268.256 6  98388596.54344  24027497.195                    24027512.453
 108598426.268 8  84622282.17446  20665561.773                    20665568.254
 113352226.551 8  88326496.639 7  21570185.695                    21570196.180
 124906020.467 7  97329432.117 6  23768833.195                    23768846.328
 125723772.544 7  97966639.96043  23924442.422                    23924453.566
 115840232.426 7  90265103.65245  22043609.383                    22043619.543
 11  8 27  0  4  0.0000000  0  9G17G10G12G09G02G05G25G30G04
 122972317.120 7  95822648.529 6  23400854.352                    23400866.211
 109839123.270 8  85589068.20846  20901666.547                    20901676.230
 111618258.300 8  86975338.693 7  21240246.625                    21240255.555
 126345236.242 6  98450909.08744  24042714.789                    24042729.758
 108604029.918 8  84626648.66646  20666627.648                    20666634.750
 113270680.802 8  88262954.598 7  21554668.016                    21554678.238
 124810915.973 7  97255324.772 7  23750735.078                    23750748.441
 125626078.477 7  97890514.73444  23905851.773                    23905863.160
 115918909.187 7  90326410.18445  22058581.422                    22058591.586
 11  8 27  0  4 30.0000000  0  9G17G10G12G09G02G05G25G30G04
 123027819.914 6  95865897.373 6  23411415.719                    23411428.129
 109856234.117 8  85602401.35446  20904922.531                    20904931.918
 111567917.818 8  86936112.365 7  21230667.391                    21230675.715
 126425291.255 6  98513289.43844  24057948.516                    24057963.344
 108609887.992 8  84631213.41846  20667742.742                    20667749.496
 113189508.956 8  88199703.913 7  21539221.445                    21539231.914
 124716044.106 7  97181398.718 6  23732681.969                    23732695.223
 125528656.876 7  97814601.82043  23887313.563                    23887324.449
 115997673.387 8  90387784.87245  22073570.250                    22073580.109
 11  8 27  0  5  0.0000000  0  9G17G10G12G09G02G05G25G30G04
 123083495.696 7  95909280.994 6  23422011.219                    23422022.703
 109873970.599 8  85616221.99646  20908297.789                    20908307.109
 111518055.675 8  86897258.772 7  21221178.633                    21221187.691
 126505429.843 7  98575734.94444  24073198.375                    24073213.613
 108615999.449 8  84635975.61346  20668905.656                    20668912.832
 113108712.952 8  88136746.099 7  21523846.344                    21523856.555
 124621407.355 7  97107655.856 6  23714673.086                    23714686.285
 125431510.274 6  97738903.22543  23868827.133                    23868837.961
 116076523.528 8  90449226.51745  22088574.305                    22088584.434
 11  8 27  0  5 30.0000000  0  9G17G10G12G09G02G05G25G30G04
 123139345.114 7  95952799.947 6  23432639.109                    23432650.516
 109892332.055 8  85630529.64046  20911791.273                    20911801.383
 111468674.144 8  86858779.698 7  21211781.750                    21211790.961
 126585648.460 6  98638242.79644  24088464.109                    24088478.879
 108622362.940 8  84640934.19346  20670116.719                    20670123.742
 113028295.747 8  88074083.436 7  21508543.188                    21508553.922
 124527008.385 7  97034098.310 6  23696709.414                    23696722.816
 125334641.739 7  97663421.28843  23850393.570                    23850404.234
 116155457.776 7  90510733.68945  22103594.742                    22103605.379
 11  8 27  0  6  0.0000000  0  9G17G10G12G09G02G05G25G30G04
 123195368.511 7  95996454.491 6  23443299.688                    23443312.133
 109911317.617 8  85645323.58846  20915404.414                    20915413.879
 111419775.216 8  86820676.662 7  21202476.555                    21202485.387
 126665944.036 7  98700810.63544  24103743.820                    24103758.617
 108628977.145 8  84646088.14146  20671375.406                    20671381.977
 112948259.915 8  88011717.966 7  21493313.039                    21493323.492
 124432849.829 7  96960728.050 6  23678791.844                    23678804.527
 125238053.850 6  97588158.03843  23832013.438                    23832024.527
 116234474.291 8  90572304.97345  22118631.211                    22118641.422
 11  8 27  0  6 30.0000000  0  9G17G10G12G09G02G05G25G30G04
 123251566.400 7  96040244.993 6  23453993.852                    23454005.793
 109930926.890 8  85660603.55646  20919135.930                    20919145.949
 111371361.085 8  86782951.404 7  21193263.484                    21193272.402
 126746313.326 7  98763435.91344  24119037.664                    24119052.777
 108635841.124 8  84651436.70946  20672681.266                    20672688.500
 112868608.395 8  87949651.947 7  21478156.063                    21478165.914
 124338934.542 7  96887547.363 6  23660920.258                    23660933.000
 125141749.845 6  97513116.02244  23813687.406                    23813698.500
 116313571.383 7  90633939.04145  22133682.867                    22133693.258
 11  8 27  0  7  0.0000000  0  9G17G10G12G09G02G05G25G30G04
 123307939.504 7  96084172.026 6  23464721.188                    23464732.895
 109951159.394 8  85676369.15146  20922986.492                    20922995.594
 111323433.826 8  86745605.520 7  21184143.398                    21184151.977
 126826753.028 7  98826116.05944  24134344.406                    24134360.207
 108642953.913 8  84656979.16746  20674034.836                    20674041.836
 112789343.572 7  87887887.243 7  21463072.414                    21463082.477
 124245265.232 7  96814558.362 6  23643095.813                    23643108.398
 125045732.316 6  97438297.23043  23795415.328                    23795426.473
 116392747.604 7  90695634.77645  22148749.258                    22148760.188
 11  8 27  0  7 30.0000000  0  9G17G10G12G09G02G05G25G30G04
 123364487.928 7  96128235.696 6  23475482.203                    23475493.367
 109972014.358 8  85692619.77946  20926954.867                    20926964.480
 111275995.074 8  86708640.288 7  21175116.063                    21175124.594
 126907259.793 7  98888848.44643  24149665.234                    24149680.473
 108650313.705 8  84662714.09946  20675435.539                    20675441.965
 112710468.053 8  87826425.898 7  21448062.656                    21448072.523
 124151844.441 7  96741763.021 6  23625318.234                    23625330.773
 124950004.056 6  97363703.85343  23777199.078                    23777210.094
 116472001.120 7  90757390.72245  22163831.422                    22163841.379
 11  8 27  0  8  0.0000000  0  9G17G10G12G09G02G05G25G30G04
 123421212.436 7  96172436.536 6  23486276.555                    23486289.137
 109993491.253 8  85709355.04046  20931042.016                    20931051.160
 111229047.076 8  86672057.475 7  21166182.188                    21166191.285
 126987830.646 6  98951630.75243  24164997.383                    24165012.746
 108657920.008 8  84668641.10246  20676882.859                    20676889.824
 112631984.480 8  87765269.956 7  21433127.422                    21433137.891
 124058675.008 7  96669163.555 6  23607588.078                    23607601.359
 124854568.104 6  97289338.25443  23759038.219                    23759048.703
 116551330.257 7  90819205.62245  22178927.172                    22178937.746
 11  8 27  0  8 30.0000000  0  9G17G10G12G09G02G05G25G30G04
 123478113.252 7  96216774.791 6  23497105.258                    23497116.176
 110015589.395 8  85726574.38546  20935246.570                    20935256.191
 111182591.762 8  86635858.559 7  21157342.227                    21157350.816
 127068462.328 6  99014460.42943  24180340.797                    24180356.059
 108665771.268 8  84674758.99446  20678376.883                    20678383.754
 112553895.517 8  87704421.521 7  21418267.703                    21418277.430
 123965759.545 7  96596761.975 6  23589906.914                    23589920.023
 124759427.116 6  97215202.46743  23740933.063                    23740943.414
 116630733.302 7  90881078.09845  22194036.953                    22194047.039
 11  8 27  0  9  0.0000000  0  9G17G10G12G09G02G05G25G30G04
 123535191.042 7  96261250.931 6  23507965.992                    23507977.898
 110038307.774 8  85744277.04446  20939569.891                    20939579.500
 111136630.642 8  86600044.743 7  21148595.773                    21148604.570
 127149151.355 6  99077334.81243  24195695.844                    24195711.316
 108673866.233 8  84681066.77346  20679917.141                    20679924.285
 112476203.653 8  87643882.495 7  21403483.367                    21403493.609
 123873100.555 7  96524560.241 6  23572274.766                    23572287.320
 124664583.819 6  97141298.65143  23722884.906                    23722896.141
 116710208.622 7  90943006.89045  22209160.719                    22209171.180
 11  8 27  0  9 30.0000000  0  9G17G10G12G09G02G05G25G30G04
 123592445.951 7  96305865.094 6  23518861.695                    23518873.266
 110061645.273 8  85762462.12846  20944011.078                    20944020.426
 111091165.708 8  86564617.562 7  21139943.992                    21139952.895
 127229894.537 6  99140251.38743  24211061.344                    24211075.551
 108682203.649 8  84687563.48546  20681503.805                    20681510.617
 112398911.467 8  87583654.919 7  21388775.125                    21388785.047
 123780700.845 7  96452560.526 6  23554691.852                    23554704.309
 124570041.127 6  97067629.05143  23704894.531                    23704905.051
 116789754.405 7  91004990.57445  22224297.781                    22224307.629
 11  8 27  0 10  0.0000000  0  9G17G10G12G09G02G05G25G30G04
 123649878.601 6  96350617.799 6  23529790.438                    23529802.668
 110085601.457 8  85781129.30746  20948569.375                    20948578.781
 111046199.210 8  86529578.769 7  21131387.438                    21131395.996
 127310688.504 6  99203207.53643  24226435.516                    24226450.715
 108690782.281 8  84694248.15846  20683136.094                    20683143.105
 112322021.522 8  87523740.771 7  21374143.094                    21374153.195
 123688563.092 7  96380764.967 6  23537157.492                    23537170.887
 124475801.882 6  96994195.90043  23686961.000                    23686972.008
 116869369.157 7  91067028.03345  22239447.914                    22239458.492
 11  8 27  0 10 30.0000000  0  9G17G10G12G09G02G05G25G30G04
 123707489.455 7  96395509.306 6  23540753.156                    23540765.516
 110110175.046 8  85800277.58446  20953245.672                    20953255.418
 111001732.962 8  86494929.790 7  21122925.578                    21122934.086
 127391530.158 6  99266200.86243  24241819.656                    24241834.199
 108699601.050 8  84701119.94446  20684814.516                    20684821.230
 112245536.545 8  87464142.187 7  21359588.594                    21359598.766
 123596689.973 7  96309175.605 6  23519674.945                    23519687.844
 124381868.685 6  96921001.20843  23669086.414                    23669097.496
 116949051.120 7  91129117.85545  22254610.703                    22254621.156
 11  8 27  0 11  0.0000000  0  9G17G10G12G09G02G05G25G30G04
 123765279.167 6  96440540.216 6  23551750.531                    23551762.465
 110135365.627 8  85819906.63446  20958039.641                    20958049.121
 110957768.984 8  86460672.178 7  21114559.523                    21114568.035
 127472416.134 6  99329228.70243  24257212.180                    24257227.051
 108708658.822 8  84708177.96646  20686538.070                    20686545.020
 112169458.623 8  87404860.783 7  21345111.422                    21345121.680
 123505084.203 7  96237794.579 7  23502243.141                    23502256.402
 124288244.748 6  96848047.52343  23651270.125                    23651281.695
 117028798.820 7  91191258.88845  22269786.461                    22269796.512
 11  8 27  0 11 30.0000000  0  9G17G10G12G09G02G05G25G30G04
 123823248.208 6  96485710.860 6  23562781.703                    23562793.496
 110161171.818 8  85840015.38046  20962950.281                    20962959.719
 110914308.672 8  86426807.026 7  21106289.070                    21106298.109
 127553343.240 6  99392288.57743  24272610.953                    24272627.500
 108717954.102 8  84715421.05346  20688306.922                    20688313.777
 112093790.409 8  87345898.627 7  21330712.102                    21330722.391
 123413748.222 7  96166623.775 6  23484862.211                    23484875.176
 124194932.404 6  96775336.65843  23633513.094                    23633524.543
 117108610.362 7  91253449.68745  22284974.086                    22284984.543
 11  8 27  0 12  0.0000000  0  9G17G10G12G09G02G05G25G30G04
 123881396.369 6  96531021.093 6  23573846.844                    23573858.715
 110187593.195 8  85860603.49446  20967978.109                    20967987.836
 110871354.239 8  86393336.087 7  21098115.398                    21098123.832
 127634308.368 6  99455378.10843  24288018.891                    24288034.309
 108727485.929 8  84722848.47146  20690120.367                    20690127.449
 112018534.705 8  87287257.921 7  21316391.531                    21316401.121
 123322685.073 7  96095665.560 7  23467533.461                    23467546.504
 124101934.922 7  96702871.11444  23615816.422                    23615827.594
 117188484.699 7  91315689.40945  22300173.641                    22300184.008
 11  8 27  0 12 30.0000000  0  9G17G10G12G09G02G05G25G30G04
 123939724.634 6  96576471.632 6  23584946.031                    23584958.570
 110214628.556 8  85881670.03846  20973122.828                    20973132.000
 110828907.613 8  86360260.819 7  21090037.836                    21090046.363
 127715308.309 6  99518494.69043  24303432.547                    24303448.051
 108737253.469 8  84730459.55446  20691979.461                    20691986.004
 111943693.892 8  87228940.506 7  21302149.492                    21302159.691
 123231897.449 7  96024922.032 7  23450257.648                    23450270.051
 124009255.190 7  96630653.19643  23598180.516                    23598190.559
 117268420.042 7  91377976.67245  22315384.711                    22315395.133
 11  8 27  0 13  0.0000000  0  9G17G10G12G09G02G05G25G30G04
 123998233.268 6  96622062.748 6  23596080.508                    23596092.465
 110242277.085 8  85903214.37946  20978383.992                    20978393.285
 110786970.569 8  86327582.635 7  21082057.586                    21082066.434
 127796339.909 6  99581635.97443  24318852.156                    24318868.000
 108747255.053 8  84738253.00946  20693882.789                    20693889.699
 111869270.659 8  87170948.464 7  21287986.930                    21287996.910
 123141387.896 7  95954395.207 7  23433033.969                    23433046.707
 123916895.819 6  96558684.91744  23580603.906                    23580615.395
 117348414.834 7  91440310.25545  22330607.188                    22330617.879
 11  8 27  0 13 30.0000000  0  9G17G10G12G09G02G05G25G30G04
 124056922.547 6  96667794.576 6  23607248.742                    23607261.113
 110270537.511 8  85925235.51846  20983761.531                    20983770.965
 110745544.573 8  86295302.671 7  21074174.086                    21074183.184
 127877399.811 6  99644799.27643  24334278.094                    24334294.152
 108757489.389 8  84746227.82746  20695830.016                    20695836.816
 111795267.035 8  87113283.400 7  21273904.813                    21273914.949
 123051158.973 7  95884087.035 7  23415863.547                    23415876.266
 123824859.461 7  96486968.33344  23563090.883                    23563101.355
 117428467.240 7  91502688.73145  22345840.898                    22345851.176
 11  8 27  0 14  0.0000000  0  9G17G10G12G09G02G05G25G30G04
 124115793.168 6  96713667.759 6  23618451.453                    23618463.121
 110299408.918 8  85947732.74346  20989255.461                    20989265.480
 110704631.560 8  86263422.422 7  21066388.781                    21066397.348
 127958485.103 6  99707982.38343  24349708.016                    24349724.559
 108767955.472 8  84754383.22446  20697821.563                    20697828.086
 111721685.571 8  87055947.301 7  21259902.898                    21259912.496
 122961213.453 7  95813999.691 7  23398747.453                    23398759.992
 123733148.969 6  96415505.69644  23545638.148                    23545649.301
 117508575.638 7  91565110.82545  22361084.672                    22361095.031
 11  8 27  0 14 30.0000000  0  9G17G10G12G09G02G05G25G30G04
 124174845.016 7  96759682.104 6  23629688.148                    23629700.750
 110328889.997 8  85970705.04246  20994865.844                    20994875.156
 110664232.926 8  86231942.988 7  21058701.156                    21058709.500
 128039592.302 6  99771182.57743  24365142.773                    24365158.879
 108778651.583 8  84762717.86346  20699856.945                    20699863.777
 111648529.200 8  86998942.422 7  21245981.234                    21245991.195
 122871553.744 7  95744135.060 7  23381685.875                    23381698.246
 123641766.955 6  96344299.07244  23528248.914                    23528259.902
 117588738.686 7  91627575.51545  22376339.797                    22376350.133
 11  8 27  0 15  0.0000000  0  9G17G10G12G09G02G05G25G30G04
 124234078.900 6  96805838.328 6  23640960.984                    23640972.719
 110358980.002 8  85994151.83146  21000591.578                    21000600.910
 110624350.782 8  86200866.007 7  21051111.961                    21051120.379
 128120718.479 6  99834397.54743  24380580.680                    24380596.938
 108789577.349 8  84771231.45746  20701936.094                    20701942.820
 111575799.365 8  86942269.928 7  21232141.133                    21232150.898
 122782182.776 7  95674495.437 7  23364679.281                    23364692.023
 123550716.524 7  96273350.75944  23510922.539                    23510933.434
 117668954.793 7  91690081.55145  22391604.430                    22391614.762
 11  8 27  0 15 30.0000000  0  9G17G10G12G09G02G05G25G30G04
 124293494.920 6  96852136.463 6  23652266.914                    23652279.070
 110389676.979 8  86018071.58046  21006432.938                    21006442.441
 110584986.894 8  86170192.866 7  21043621.039                    21043629.676
 128201860.230 6  99897624.67244  24396021.422                    24396037.773
 108800730.755 8  84779922.42746  20704058.688                    20704065.559
 111503498.681 8  86885931.830 7  21218382.875                    21218392.773
 122693103.056 7  95605082.747 6  23347727.586                    23347740.055
 123460000.143 6  96202662.77743  23493660.117                    23493670.832
 117749222.252 7  91752627.59545  22406878.633                    22406889.035
 11  8 27  0 16  0.0000000  0  9G17G10G12G09G02G05G25G30G04
 124353093.544 7  96898576.908 6  23663608.086                    23663619.980
 110420980.134 8  86042463.67746  21012389.617                    21012399.098
 110546142.700 8  86139924.676 7  21036229.492                    21036237.902
 128283014.441 7  99960861.49044  24411465.117                    24411481.457
 108812110.988 8  84788790.14146  20706224.141                    20706231.117
 111431629.883 8  86829930.262 7  21204706.406                    21204716.211
 122604317.352 7  95535899.172 6  23330832.453                    23330843.918
 123369620.723 7  96132237.33444  23476461.484                    23476472.102
 117829539.770 7  91815212.65145  22422162.711                    22422172.605
 11  8 27  0 16 30.0000000  0  9G17G10G12G09G02G05G25G30G04
 124412875.416 6  96945160.117 6  23674985.016                    23674996.578
 110452888.932 7  86067327.70846  21018461.773                    21018471.328
 110507820.284 8  86110063.062 7  21028937.023                    21028945.465
 128364178.026 6 100024105.59543  24426910.430                    24426926.527
 108823717.569 8  84797834.23346  20708432.961                    20708439.344
 111360195.851 8  86774267.466 7  21191112.875                    21191122.789
 122515828.760 7  95466947.092 6  23313993.422                    23314004.965
 123279581.413 6  96062076.92144  23459327.766                    23459338.789
 117909906.140 7  91877835.75445  22437455.758                    22437466.352
 11  8 27  0 17  0.0000000  0  9G17G10G12G09G02G05G25G30G04
 124472840.541 6  96991886.136 6  23686394.938                    23686407.277
 110485401.758 7  86092662.40346  21024648.461                    21024658.102
 110470020.763 8  86080608.905 7  21021743.883                    21021752.559
 128445347.702 6 100087354.44444  24442356.094                    24442372.797
 108835548.132 8  84807052.86046  20710684.063                    20710691.281
 111289198.225 8  86718944.726 7  21177602.148                    21177612.016
 122427639.285 7  95398228.134 6  23297211.172                    23297223.281
 123189884.407 6  95992183.24343  23442258.570                    23442269.895
 117990319.308 7  91940495.33245  22452757.781                    22452768.707
 11  8 27  0 17 30.0000000  0  9G17G10G12G09G02G05G25G30G04
 124532989.644 6  97038755.491 6  23697841.492                    23697853.836
 110518517.671 7  86118467.03346  21030950.289                    21030959.902
 110432746.500 8  86051564.035 7  21014650.828                    21014658.996
 128526520.678 6 100150605.86044  24457803.945                    24457819.938
 108847602.250 8  84816445.69346  20712977.930                    20712984.984
 111218639.805 8  86663964.227 7  21164175.602                    21164185.758
 122339752.032 7  95329744.671 6  23280486.656                    23280499.117
 123100532.979 6  95922558.81544  23425255.555                    23425265.930
 118070778.134 7  92003190.48345  22468068.758                    22468079.473
 11  8 27  0 18  0.0000000  0  9G17G10G12G09G02G05G25G30G04
 124593322.685 6  97085768.191 6  23709323.336                    23709334.750
 110552235.018 8  86144740.31946  21037366.406                    21037376.039
 110395998.219 8  86022929.021 7  21007657.617                    21007666.246
 128607693.503 6 100213857.17743  24473250.641                    24473266.250
 108859878.283 8  84826011.44646  20715313.648                    20715320.809
 111148522.585 8  86609327.527 7  21150832.805                    21150842.773
 122252169.368 7  95261498.526 6  23263820.813                    23263832.637
 123011529.409 6  95853205.47344  23408318.430                    23408329.031
 118151281.008 7  92065919.94045  22483388.320                    22483398.992
 11  8 27  0 18 30.0000000  0  9G17G10G12G09G02G05G25G30G04
 124653840.203 7  97132924.636 6  23720838.773                    23720850.906
 110586552.555 8  86171481.27246  21043897.289                    21043906.688
 110359777.904 8  85994705.402 7  21000765.266                    21000773.707
 128688863.050 6 100277105.91143  24488696.578                    24488713.207
 108872374.910 8  84835749.08746  20717692.047                    20717699.273
 111078848.887 8  86555036.410 7  21137573.867                    21137584.168
 122164894.008 7  95193491.849 7  23247212.711                    23247224.840
 122922876.601 6  95784125.44444  23391447.641                    23391459.148
 118231826.334 7  92128682.49345  22498715.281                    22498725.859
 11  8 27  0 19  0.0000000  0  9G17G10G12G09G02G05G25G30G04
 124714542.629 7  97180225.168 6  23732389.867                    23732401.949
 110621468.999 8  86198688.90746  21050541.688                    21050550.957
 110324087.332 8  85966894.589 7  20993973.664                    20993981.977
 128770026.191 6 100340349.69243  24504141.414                    24504157.445
 108885091.290 8  84845657.96546  20720112.148                    20720118.871
 111009621.197 8  86501092.849 7  21124400.406                    21124410.164
 122077928.648 7  95125726.750 6  23230662.961                    23230675.723
 122834577.600 7  95715321.11044  23374645.750                    23374656.117
 118312412.931 7  92191477.19445  22514050.438                    22514061.273
 11  8 27  0 19 30.0000000  0  9G17G10G12G09G02G05G25G30G04
 124775430.262 6  97227670.005 6  23743976.703                    23743988.664
 110656983.145 8  86226362.27146  21057299.578                    21057309.250
 110288928.041 8  85939497.755 7  20987282.945                    20987291.859
 128851180.259 6 100403586.37643  24519584.078                    24519600.531
 108898026.443 8  84855737.32046  20722573.664                    20722580.172
 110940841.905 8  86447498.683 7  21111312.172                    21111321.945
 121991276.049 7  95058205.324 6  23214173.922                    23214186.406
 122746634.983 7  95646794.48044  23357910.547                    23357921.313
 118393039.213 7  92254302.80345  22529393.328                    22529403.922
 11  8 27  0 20  0.0000000  0  9G17G10G12G09G02G05G25G30G04
 124836503.413 6  97275259.426 6  23755598.352                    23755610.609
 110693093.640 8  86254500.32946  21064171.391                    21064180.953
 110254301.523 8  85912516.075 7  20980694.008                    20980702.469
 128932321.817 6 100466813.33143  24535025.141                    24535042.551
 108911178.966 8  84865986.05046  20725076.336                    20725082.914
 110872513.008 8  86394255.471 7  21098309.266                    21098319.520
 121904938.733 7  94990929.563 7  23197744.648                    23197757.020
 122659051.468 6  95578547.67543  23341243.609                    23341254.516
 118473703.775 7  92317158.24845  22544743.266                    22544753.664
 11  8 27  0 20 30.0000000  0  9G17G10G12G09G02G05G25G30G04
 124897762.171 6  97322993.466 6  23767256.203                    23767268.090
 110729798.734 8  86283101.70246  21071155.891                    21071165.145
 110220209.062 8  85885950.541 7  20974206.219                    20974214.883
 129013447.821 6 100530028.16243  24550463.297                    24550480.012
 108924547.396 8  84876403.03146  20727620.281                    20727626.730
 110804636.910 8  86341365.083 7  21085392.906                    21085402.625
 121818919.288 7  94923901.510 7  23181375.383                    23181388.000
 122571829.724 6  95510582.77144  23324646.102                    23324656.824
 118554405.195 7  92380042.41044  22560100.063                    22560110.762
 11  8 27  0 21  0.0000000  0  9G17G10G12G09G02G05G25G30G04
 124959207.155 6  97370872.617 6  23778948.711                    23778960.949
 110767097.187 8  86312165.42846  21078253.563                    21078263.219
 110186652.369 8  85859802.486 7  20967820.508                    20967828.855
 129094554.925 6 100593228.26243  24565898.102                    24565914.691
 108938130.459 8  84886987.25546  20730205.195                    20730211.430
 110737215.704 8  86288829.164 7  21072563.273                    21072573.121
 121733220.276 7  94857123.150 7  23165066.961                    23165079.605
 122484972.372 6  95442901.80744  23308117.195                    23308128.148
 118635141.917 7  92442954.08944  22575463.773                    22575474.586
 11  8 27  0 21 30.0000000  0  9G17G10G12G09G02G05G25G30G04
 125020838.755 6  97418897.206 6  23790676.953                    23790688.895
 110804987.638 8  86341690.45346  21085464.039                    21085473.430
 110153633.039 8  85834073.158 7  20961537.172                    20961545.719
 129175640.293 6 100656411.43843  24581327.891                    24581344.813
 108951927.418 8  84897738.16646  20732830.492                    20732837.000
 110670252.022 8  86236649.752 7  21059820.391                    21059829.750
 121647844.616 7  94790596.713 7  23148820.953                    23148833.172
 122398482.513 7  95375507.21244  23291658.688                    23291669.746
 118715912.738 7  92505892.31145  22590834.297                    22590845.004
 11  8 27  0 22  0.0000000  0  9G17G10G12G09G02G05G25G30G04
 125082656.831 6  97467067.070 6  23802439.555                    23802452.164
 110843468.458 8  86371675.50146  21092786.641                    21092796.547
 110121152.357 8  85808763.555 7  20955356.063                    20955364.863
 129256700.964 6 100719575.33743  24596752.883                    24596769.746
 108965936.853 8  84908654.63446  20735495.828                    20735502.918
 110603747.579 8  86184828.181 7  21047164.984                    21047174.570
 121562794.758 7  94724324.146 7  23132636.688                    23132648.902
 122312362.478 7  95308400.77644  23275270.773                    23275281.848
 118796716.086 7  92568855.89644  22606210.609                    22606221.426
 11  8 27  0 22 30.0000000  0  9G17G10G12G09G02G05G25G30G04
 125144661.730 6  97515382.525 6  23814239.281                    23814251.434
 110882538.103 8  86402119.38546  21100221.359                    21100230.559
 110089211.773 8  85783874.810 7  20949278.070                    20949286.711
 129337733.615 6 100782717.41843  24612173.711                    24612189.844
 108980157.294 8  84919735.51946  20738202.195                    20738208.887
 110537704.856 8  86133366.405 7  21034597.328                    21034606.691
 121478073.198 7  94658307.381 7  23116514.328                    23116526.223
 122226615.045 7  95241584.69744  23258953.414                    23258964.469
 118877550.615 7  92631843.77744  22621593.109                    22621604.000
 11  8 27  0 23  0.0000000  0  9G17G10G12G09G02G05G25G30G04
 125206853.857 6  97563843.852 6  23826074.039                    23826086.715
 110922195.010 8  86433020.86946  21107767.836                    21107776.617
 110057812.676 8  85759408.002 7  20943303.180                    20943311.566
 129418735.401 6 100845835.40243  24627588.375                    24627604.965
 108994587.917 8  84930980.20046  20740948.273                    20740954.914
 110472125.924 8  86082266.007 7  21022117.992                    21022127.449
 121393682.625 7  94592548.504 7  23100455.305                    23100467.707
 122141242.894 7  95175061.01644  23242707.859                    23242717.867
 118958414.955 7  92694854.90044  22636981.195                    22636991.410
 11  8 27  0 23 30.0000000  0  9G17G10G12G09G02G05G25G30G04
 125269233.644 6  97612451.452 6  23837944.625                    23837956.891
 110962438.110 8  86464379.12446  21115425.664                    21115435.102
 110026956.492 8  85735364.245 7  20937431.469                    20937440.020
 129499703.322 6 100908926.97643  24642995.586                    24643013.043
 109009227.711 8  84942387.86246  20743733.875                    20743740.848
 110407013.023 8  86031528.763 7  21009727.609                    21009737.277
 121309625.871 7  94527049.789 7  23084459.664                    23084472.047
 122056248.871 7  95108831.98444  23226533.453                    23226544.125
 119039307.790 7  92757888.21244  22652374.227                    22652384.438
 11  8 27  0 24  0.0000000  0  9G17G10G12G09G02G05G25G30G04
 125331801.103 6  97661205.218 6  23849851.297                    23849863.555
 111003265.642 8  86496192.79246  21123194.711                    21123204.172
 109996644.373 8  85711744.435 8  20931663.055                    20931671.605
 129580634.243 6 100971989.78642  24658396.641                    24658414.070
 109024075.124 8  84953957.29846  20746559.383                    20746565.676
 110342368.491 8  85981156.474 7  20997426.086                    20997435.660
 121225905.496 7  94461813.141 7  23068528.305                    23068540.324
 121971635.661 7  95042899.70744  23210432.328                    23210443.133
 119120227.790 7  92820942.70244  22667773.289                    22667783.531
 11  8 27  0 24 30.0000000  0  9G17G10G12G09G02G05G25G30G04
 125394556.710 6  97710105.669 6  23861792.813                    23861804.664
 111044675.920 8  86528460.54546  21131075.516                    21131084.617
 109966878.353 8  85688550.154 7  20925998.773                    20926007.453
 129661525.164 6 101035021.35343  24673790.070                    24673806.809
 109039129.152 8  84965687.74846  20749423.945                    20749431.063
 110278194.128 8  85931150.549 7  20985213.984                    20985223.500
 121142524.023 7  94396840.602 7  23052661.297                    23052673.496
 121887405.877 7  94977266.18744  23194404.297                    23194414.457
 119201173.691 7  92884017.38444  22683176.227                    22683186.906
 11  8 27  0 25  0.0000000  0  9G17G10G12G09G02G05G25G30G04
 125457500.674 6  97759152.844 6  23873771.203                    23873783.703
 111086667.147 8  86561180.98946  21139066.086                    21139075.125
 109937659.092 8  85665781.915 7  20920438.500                    20920446.961
 129742373.028 6 101098019.39643  24689175.773                    24689191.949
 109054388.594 8  84977578.25846  20752327.984                    20752334.473
 110214492.055 8  85881512.648 7  20973091.781                    20973101.375
 121059484.055 7  94332134.151 7  23036859.352                    23036871.750
 121803562.127 7  94911933.45044  23178449.250                    23178459.094
 119282143.870 7  92947110.98044  22698584.930                    22698595.336
 11  8 27  0 25 30.0000000  0  9G17G10G12G09G02G05G25G30G04
 125520633.272 6  97808347.046 6  23885785.109                    23885797.121
 111129238.111 8  86594353.18746  21147166.695                    21147175.805
 109908988.260 8  85643441.035 7  20914982.891                    20914991.387
 129823174.818 6 101160981.53343  24704551.109                    24704568.582
 109069852.287 8  84989627.91646  20755270.242                    20755276.953
 110151264.680 8  85832244.641 7  20961060.086                    20961069.430
 120976788.308 7  94267695.936 7  23021123.047                    23021134.961
 121720107.209 7  94846903.71644  23162568.078                    23162578.711
 119363137.329 7  93010222.71044  22713997.406                    22714007.445
 11  8 27  0 26  0.0000000  0  9G17G10G12G09G02G05G25G30G04
 125583954.570 6  97857688.263 6  23897834.125                    23897846.297
 111172387.129 8  86627975.80046  21155377.875                    21155387.121
 109880867.128 8  85621528.489 7  20909631.367                    20909639.703
 129903927.513 6 101223905.42443  24719917.922                    24719935.199
 109085518.930 8  85001835.71946  20758251.508                    20758258.461
 110088513.856 8  85783347.978 7  20949118.648                    20949127.895
 120894439.351 7  94203527.976 7  23005452.477                    23005464.832
 121637043.776 7  94782179.04644  23146761.594                    23146772.168
 119444152.700 7  93073351.52944  22729413.719                    22729424.684
 11  8 27  0 26 30.0000000  0  9G17G10G12G09G02G05G25G30G04
 125647464.914 6  97907176.809 6  23909920.406                    23909931.816
 111216112.535 8  86662047.56846  21163698.242                    21163707.730
 109853296.700 8  85600045.064 7  20904385.094                    20904393.594
 129984628.130 6 101286788.71543  24735275.219                    24735292.414
 109101387.441 8  85014200.81646  20761271.180                    20761278.242
 110026241.863 8  85734824.417 7  20937268.969                    20937278.543
 120812439.770 7  94139632.225 7  22989848.719                    22989860.133
 121554374.462 7  94717761.47244  23131030.055                    23131040.598
 119525188.735 7  93136496.45744  22744834.398                    22744845.352
 11  8 27  0 27  0.0000000  0  9G17G10G12G09G02G05G25G30G04
 125711164.657 6  97956812.935 6  23922041.695                    23922054.230
 111260412.356 7  86696566.92046  21172128.438                    21172137.930
 109826278.353 8  85578991.840 7  20899243.422                    20899251.844
 130065273.603 6 101349629.01843  24750621.984                    24750639.008
 109117456.602 8  85026722.26046  20764329.422                    20764335.770
 109964450.437 8  85686675.340 7  20925510.141                    20925519.332
 120730792.045 7  94076010.694 7  22974311.430                    22974323.566
 121472101.820 7  94653652.98744  23115374.195                    23115385.074
 119606243.872 7  93199656.26944  22760258.719                    22760269.305
 11  8 27  0 27 30.0000000  0  9G17G10G12G09G02G05G25G30G04
 125775053.963 7  98006596.740 6  23934200.195                    23934212.313
 111305284.868 8  86731532.52345  21180667.344                    21180676.574
 109799813.457 8  85558369.877 7  20894207.234                    20894215.867
 130145861.096 6 101412424.14043  24765957.203                    24765974.621
 109133725.440 8  85039399.29446  20767424.703                    20767431.930
 109903141.729 8  85638902.398 7  20913843.352                    20913852.891
 120649498.901 7  94012665.461 7  22958841.563                    22958853.840
 121390228.575 7  94589855.70044  23099793.797                    23099804.383
 119687316.979 7  93262830.08444  22775687.078                    22775697.766
 11  8 27  0 28  0.0000000  0  9G17G10G12G09G02G05G25G30G04
 125839132.872 7  98056528.312 6  23946393.578                    23946405.559
 111350728.362 8  86766943.06046  21189314.883                    21189324.438
 109773903.402 8  85538180.258 7  20889277.148                    20889285.355
 130226387.695 6 101475171.82943  24781281.586                    24781299.504
 109150192.570 8  85052230.83946  20770558.680                    20770565.305
 109842317.803 8  85591507.210 7  20902269.305                    20902278.250
 120568562.797 7  93949598.440 7  22943440.000                    22943452.270
 121308757.230 7  94526371.59444  23084290.422                    23084300.898
 119768406.945 7  93326017.02644  22791117.633                    22791128.254
 11  8 27  0 28 30.0000000  0  9G17G10G12G09G02G05G25G30G04
 125903401.672 7  98106607.869 6  23958623.438                    23958635.289
 111396741.081 8  86802797.13646  21198070.992                    21198080.098
 109748548.981 8  85518423.600 7  20884451.852                    20884460.289
 130306850.429 6 101537869.73543  24796593.031                    24796611.000
 109166856.961 8  85065216.08946  20773729.383                    20773736.617
 109781980.663 8  85544491.337 7  20890787.055                    20890796.430
 120487986.441 7  93886811.747 7  22928106.977                    22928118.910
 121227690.546 7  94463202.79044  23068864.109                    23068874.742
 119849512.236 7  93389215.92844  22806550.953                    22806561.961
 11  8 27  0 29  0.0000000  0  9G17G10G12G09G02G05G25G30G04
 125967860.543 6  98156835.531 6  23970888.734                    23970901.660
 111443321.243 8  86839093.38546  21206934.758                    21206943.992
 109723751.291 8  85499100.754 7  20879733.031                    20879741.727
 130387246.287 6 101600515.54943  24811892.953                    24811910.453
 109183717.177 8  85078353.92946  20776938.063                    20776944.691
 109722132.004 8  85497856.082 8  20879398.203                    20879407.719
 120407772.132 7  93824307.185 7  22912842.219                    22912854.543
 121147030.977 7  94400351.20744  23053515.078                    23053525.258
 119930631.857 7  93452425.98444  22821988.164                    22821998.988
 11  8 27  0 29 30.0000000  0  9G17G10G12G09G02G05G25G30G04
 126032509.880 6  98207211.584 6  23983191.742                    23983203.984
 111490467.446 8  86875830.69446  21215906.734                    21215915.656
 109699511.811 8  85480212.897 7  20875120.398                    20875128.727
 130467572.662 6 101663107.24843  24827178.344                    24827196.066
 109200772.529 8  85091643.82446  20780183.711                    20780190.734
 109662774.040 8  85451603.199 7  20868102.391                    20868112.027
 120327922.745 7  93762086.967 7  22897647.516                    22897659.746
 121066781.340 7  94337819.08044  23038243.625                    23038253.930
 120011764.488 7  93515646.18544  22837427.219                    22837437.605
 11  8 27  0 30  0.0000000  0  9G17G10G12G09G02G05G25G30G04
 126097349.630 6  98257736.042 6  23995530.188                    23995542.414
 111538177.189 8  86913007.12446  21224985.227                    21224994.480
 109675831.378 8  85461760.650 8  20870614.094                    20870622.828
 130547826.249 6 101725642.24143  24842450.680                    24842468.129
 109218021.378 8  85105084.49246  20783465.992                    20783472.441
 109603908.700 8  85405734.174 7  20856900.977                    20856909.988
 120248440.490 7  93700152.834 7  22882522.125                    22882534.297
 120986943.887 7  94275608.08544  23023051.336                    23023060.789
 120092908.652 7  93578875.37744  22852868.555                    22852879.418
 11  8 27  0 30 30.0000000  0  9G17G10G12G09G02G05G25G30G04
 126162380.238 6  98308409.208 6  24007905.281                    24007917.563
 111586448.875 8  86950621.43946  21234171.039                    21234179.895
 109652710.992 8  85443744.795 7  20866214.469                    20866222.781
 130628004.091 6 101788118.20343  24857707.773                    24857725.934
 109235462.829 8  85118675.23346  20786784.883                    20786791.723
 109545538.098 8  85360250.663 7  20845793.500                    20845802.691
 120169328.085 7  93638506.897 7  22867467.695                    22867479.781
 120907521.416 7  94213720.49444  23007937.891                    23007947.539
 120174063.470 7  93642112.86644  22868311.734                    22868322.332
 11  8 27  0 31  0.0000000  0  8G17G10G12G02G05G25G30G04
 126227603.363 6  98359232.409 6  24020316.914                    24020329.430
 111635282.307 8  86988673.47946  21243463.813                    21243473.145
 109630153.626 8  85426167.661 7  20861921.914                    20861930.250
 109253097.345 8  85132416.41646  20790140.531                    20790147.219
 109487665.379 8  85315155.096 7  20834780.719                    20834789.797
 120090589.764 7  93577152.440 7  22852484.094                    22852495.855
 120828518.115 7  94152159.51544  22992903.578                    22992913.551
 120255229.034 7  93705358.73244  22883757.578                    22883767.973
 11  8 27  0 31 30.0000000  0  8G17G10G12G02G05G25G30G04
 126293017.509 6  98410204.406 6  24032764.375                    24032777.133
 111684674.352 8  87027160.80046  21252862.547                    21252872.059
 109608159.089 8  85409029.097 7  20857736.734                    20857745.137
 109270922.552 8  85146306.20146  20793532.680                    20793539.461
 109430291.076 8  85270447.912 7  20823862.594                    20823871.637
 120012226.696 7  93516090.393 7  22837572.273                    22837584.566
 120749935.430 7  94090926.28644  22977950.469                    22977960.238
 120336403.284 7  93768611.36044  22899204.328                    22899215.105
 11  8 27  0 32  0.0000000  0  8G17G10G12G02G05G25G30G04
 126358622.488 6  98461325.182 6  24045249.391                    24045261.293
 111734622.426 8  87066081.39046  21262367.211                    21262376.633
 109586727.497 8  85392329.188 7  20853658.148                    20853666.766
 109288936.332 8  85160342.91346  20796960.938                    20796967.398
 109373416.938 8  85226130.463 7  20813039.766                    20813048.797
 119934240.613 7  93455322.083 7  22822731.906                    22822743.594
 120671775.018 7  94030022.11644  22963076.719                    22963086.258
 120417584.004 7  93831869.04044  22914652.156                    22914662.855
 11  8 27  0 32 30.0000000  0  8G17G10G12G02G05G25G30G04
 126424418.484 6  98512594.754 6  24057769.578                    24057781.734
 111785124.501 7  87105433.65846  21271977.609                    21271987.063
 109565859.971 8  85376068.802 7  20849687.352                    20849695.621
 109307137.694 8  85174525.79646  20800424.063                    20800430.793
 109317044.140 8  85182203.684 8  20802311.961                    20802321.340
 119856634.116 7  93394849.548 7  22807963.750                    22807976.043
 120594039.331 7  93969448.89944  22948284.000                    22948294.465
 120498770.202 7  93895130.96144  22930101.422                    22930112.102
 11  8 27  0 33  0.0000000  0  8G17G10G12G02G05G25G30G04
 126490405.920 6  98564013.479 6  24070326.422                    24070339.363
 111836178.882 7  87145216.29245  21281692.766                    21281702.277
 109545557.680 8  85360248.864 7  20845823.711                    20845832.156
 109325526.270 8  85188854.56346  20803923.594                    20803929.992
 109261175.125 8  85138669.439 8  20791680.594                    20791689.426
 119779410.223 7  93334675.141 7  22793268.031                    22793280.176
 120516731.554 7  93909209.14444  22933572.844                    22933583.066
 120579961.106 7  93958396.57944  22945551.844                    22945562.262
 11  8 27  0 33 30.0000000  0  8G17G10G12G02G05G25G30G04
 126556584.825 6  98615581.484 6  24082919.859                    24082932.164
 111887783.654 8  87185427.81845  21291513.000                    21291522.871
 109525822.052 8  85344870.469 7  20842068.250                    20842076.754
 109344100.605 8  85203328.08446  20807457.844                    20807464.777
 109205811.768 8  85095529.225 8  20781145.352                    20781154.398
 119702571.155 7  93274800.615 7  22778646.125                    22778658.762
 120439853.885 7  93849304.52144  22918943.625                    22918953.477
 120661155.388 7  94021664.80244  22961002.266                    22961012.902
 11  8 27  0 34  0.0000000  0  8G17G10G12G02G05G25G30G04
 126622955.358 6  98667298.739 6  24095550.016                    24095562.875
 111939936.764 8  87226066.60446  21301437.227                    21301446.641
 109506652.950 8  85329933.520 7  20838420.484                    20838428.566
 109362859.230 8  85217945.20046  20811027.617                    20811034.375
 109150955.653 8  85052784.263 7  20770706.836                    20770715.992
 119626119.295 7  93215227.783 7  22764098.367                    22764109.938
 120363408.816 7  93789737.02744  22904396.000                    22904406.711
 120742351.774 7  94084934.68144  22976453.875                    22976464.113
 11  8 27  0 34 30.0000000  0  8G17G10G12G02G05G25G30G04
 126689517.624 6  98719165.359 6  24108216.688                    24108228.918
 111992636.393 8  87267131.25545  21311465.805                    21311474.832
 109488052.183 8  85315439.439 7  20834880.586                    20834889.160
 109381801.410 8  85232705.34846  20814632.328                    20814638.840
 109096608.618 8  85010435.991 8  20760364.727                    20760373.570
 119550057.393 7  93155958.814 7  22749623.844                    22749635.957
 120287398.970 7  93730508.65644  22889932.438                    22889942.328
 120823549.372 7  94148205.50744  22991904.914                    22991915.988
 11  8 27  0 35  0.0000000  0  8G17G10G12G02G05G25G30G04
 126756271.611 7  98771181.459 6  24120918.992                    24120931.555
 112045880.087 7  87308619.84445  21321597.563                    21321607.215
 109470020.186 8  85301388.536 7  20831449.367                    20831457.977
 109400925.892 8  85247607.54646  20818271.555                    20818278.203
 109042772.375 8  84968485.732 7  20750119.961                    20750129.023
 119474387.850 7  93096995.569 7  22735224.523                    22735236.766
 120211826.737 7  93671621.29444  22875551.328                    22875561.273
 120904747.099 6  94211476.42644  23007356.336                    23007367.078
 11  8 27  0 35 30.0000000  0  8G17G10G12G02G05G25G30G04
 126823217.489 7  98823347.042 6  24133658.930                    24133671.039
 112099666.023 8  87350530.95145  21331832.680                    21331842.148
 109452558.203 8  85287781.801 7  20828126.578                    20828134.898
 109420231.550 8  85262650.91946  20821945.227                    20821951.867
 108989448.545 8  84926934.751 8  20739972.570                    20739981.555
 119399113.113 7  93038339.972 7  22720900.141                    22720912.477
 120136694.667 7  93613076.89544  22861253.828                    22861263.887
 120985943.579 7  94274746.38844  23022807.547                    23022817.527
 11  8 27  0 36  0.0000000  0  8G17G10G12G02G05G25G30G04
 126890355.238 7  98875662.123 6  24146434.102                    24146447.125
 112153992.019 8  87392862.88745  21342170.766                    21342179.953
 109435666.841 8  85274619.715 7  20824912.023                    20824920.746
 109439717.068 8  85277834.44346  20825653.586                    20825659.992
 108936638.988 8  84885784.513 8  20729923.297                    20729932.508
 119324235.532 7  92979993.853 7  22706651.672                    22706663.703
 120062005.099 7  93554877.29444  22847040.930                    22847050.488
 121067137.928 7  94338014.67944  23038258.203                    23038269.305
 11  8 27  0 36 30.0000000  0  8G17G10G12G02G05G25G30G04
 126957684.937 7  98928126.808 6  24159246.945                    24159259.277
 112208855.998 8  87435614.02945  21352611.023                    21352620.605
 109419346.588 8  85261902.631 7  20821806.367                    20821815.078
 109459381.116 8  85293157.09246  20829395.141                    20829401.598
 108884345.159 8  84845036.132 8  20719972.180                    20719980.906
 119249757.480 7  92921959.044 7  22692479.063                    22692490.523
 119987760.336 7  93497024.31144  22832912.422                    22832923.078
 121148328.669 6  94401280.16944  23053708.359                    23053718.945
 11  8 27  0 37  0.0000000  0  8G17G10G12G02G05G25G30G04
 127025207.075 6  98980741.406 6  24172095.531                    24172108.770
 112264256.096 8  87478782.93145  21363153.320                    21363162.820
 109403598.798 8  85249631.639 7  20818809.703                    20818817.922
 109479223.484 8  85308618.68346  20833171.086                    20833177.621
 108832569.055 8  84804691.173 8  20710119.266                    20710128.469
 119175681.811 7  92864237.784 7  22678382.422                    22678394.738
 119913963.280 7  93439520.17844  22818869.344                    22818879.387
 121229515.359 7  94464542.50044  23069157.836                    23069168.852
 11  8 27  0 37 30.0000000  0  8G17G10G12G02G05G25G30G04
 127092921.596 6  99033505.942 6  24184981.938                    24184993.828
 112320189.930 8  87522367.73945  21373797.203                    21373806.805
 109388424.040 8  85237807.147 7  20815922.266                    20815930.684
 109499242.729 8  85324218.09846  20836980.758                    20836987.668
 108781312.019 8  84764750.687 8  20700365.570                    20700374.617
 119102010.771 7  92806831.829 7  22664363.219                    22664375.461
 119840616.097 7  93382366.58844  22804911.469                    22804922.098
 121310696.619 7  94527800.61044  23084605.984                    23084617.055
 11  8 27  0 38  0.0000000  0  8G17G10G12G02G05G25G30G04
 127160828.568 6  99086420.425 6  24197903.742                    24197916.145
 112376655.896 8  87566367.18545  21384542.313                    21384551.398
 109373823.219 8  85226429.890 7  20813143.477                    20813152.070
 109519437.902 8  85339954.60946  20840823.922                    20840830.438
 108730576.088 8  84725216.255 8  20690710.578                    20690719.672
 119028746.850 7  92749743.103 7  22650421.977                    22650433.461
 119767721.403 7  93325565.57744  22791040.484                    22791050.309
 121391871.477 7  94591053.70744  23100052.938                    23100064.039
 11  8 27  0 38 30.0000000  0  8G17G10G12G02G05G25G30G04
 127228927.804 6  99139484.712 6  24210863.367                    24210875.570
 112433651.424 7  87610779.27045  21395388.156                    21395397.305
 109359796.896 8  85215500.291 7  20810474.750                    20810482.934
 109539807.594 8  85355827.10546  20844699.805                    20844706.785
 108680362.866 8  84686089.131 8  20681155.047                    20681164.258
 118955892.415 7  92692973.453 7  22636558.086                    22636569.152
 119695281.408 7  93269118.88944  22777255.367                    22777265.496
 121473038.968 7  94654301.09144  23115498.758                    23115509.875
 11  8 27  0 39  0.0000000  0  8G17G10G12G02G05G25G30G04
 127297219.596 6  99192699.057 6  24223858.383                    24223871.352
 112491174.307 7  87655602.29345  21406334.547                    21406343.816
 109346345.657 8  85205018.801 8  20807914.859                    20807923.379
 109560350.814 8  85371834.81546  20848609.078                    20848615.828
 108630673.536 8  84647370.231 8  20671699.508                    20671708.688
 118883449.832 7  92636524.714 7  22622773.078                    22622784.297
 119623298.556 7  93213028.40344  22763557.945                    22763567.512
 121554198.046 7  94717541.87444  23130943.164                    23130953.926
 11  8 27  0 39 30.0000000  0  8G17G10G12G02G05G25G30G04
 127365703.797 6  99246063.339 6  24236890.664                    24236902.988
 112549222.288 8  87700834.47445  21417380.719                    21417389.824
 109333470.171 8  85194985.964 7  20805464.641                    20805473.203
 109581066.264 8  85387976.73446  20852551.172                    20852557.809
 108581509.623 8  84609060.751 8  20662344.016                    20662353.082
 118811421.370 7  92580398.685 7  22609066.320                    22609077.500
 119551775.119 7  93157295.88844  22749946.867                    22749956.879
 121635347.395 7  94780775.13344  23146385.563                    23146396.301
 11  8 27  0 40  0.0000000  0  8G17G10G12G02G05G25G30G04
 127434380.499 6  99299577.572 6  24249959.922                    24249972.363
 112607793.427 8  87746474.31745  21428526.266                    21428535.602
 109321171.407 8  85185402.520 7  20803124.617                    20803133.059
 109601953.296 8  85404252.35046  20856525.711                    20856532.344
 108532873.229 8  84571162.316 7  20653088.781                    20653097.738
 118739809.763 7  92524597.485 7  22595438.750                    22595450.531
 119480713.717 7  93101923.43144  22736424.438                    22736434.398
 121716486.456 7  94844000.36744  23161825.625                    23161836.484
 11  8 27  0 40 30.0000000  0  8G17G10G12G02G05G25G30G04
 127503249.801 6  99353241.932 6  24263064.953                    24263077.871
 112666885.192 8  87792519.84045  21439771.836                    21439780.523
 109309449.584 8  85176268.635 7  20800893.594                    20800902.031
 109623010.563 8  85420660.62946  20860532.805                    20860538.934
 108484765.303 8  84533675.681 8  20643934.117                    20643942.773
 118668617.101 7  92469122.737 7  22581891.711                    22581902.902
 119410116.436 7  93046912.61644  22722990.227                    22722999.594
 121797613.891 7  94907216.52144  23177263.141                    23177274.391
 11  8 27  0 41  0.0000000  0  8G17G10G12G02G05G25G30G04
 127572311.479 6  99407056.188 6  24276207.094                    24276219.516
 112726495.011 8  87838969.05345  21451114.820                    21451124.020
 109298305.059 8  85167584.603 7  20798772.789                    20798781.563
 109644236.606 8  85437200.40646  20864572.117                    20864578.402
 108437187.141 8  84496601.847 8  20634880.383                    20634889.000
 118597845.546 7  92413976.102 7  22568423.758                    22568435.453
 119339985.457 7  92992265.15045  22709644.266                    22709654.375
 121878728.467 7  94970422.66744  23192698.820                    23192710.125
 11  8 27  0 41 30.0000000  0  8G17G10G12G02G05G25G30G04
 127641565.682 6  99461020.492 6  24289385.633                    24289398.277
 112786621.354 8  87885820.74745  21462556.406                    21462565.410
 109287739.249 8  85159351.510 7  20796762.367                    20796770.746
 109665631.052 8  85453871.41046  20868643.320                    20868649.855
 108390140.956 8  84459942.542 8  20625927.789                    20625936.773
 118527497.948 7  92359159.847 7  22555037.195                    22555048.961
 119270323.585 7  92937983.23644  22696388.219                    22696398.250
 121959829.647 7  95033618.36144  23208132.273                    23208143.340
 11  8 27  0 42  0.0000000  0  8G17G10G12G02G05G25G30G04
 127711012.486 6  99515134.846 6  24302601.250                    24302613.281
 112847261.546 8  87933072.84945  21474095.969                    21474105.129
 109277752.460 8  85151569.601 7  20794861.977                    20794870.281
 109687192.965 8  85470672.90946  20872746.273                    20872752.996
 108343627.725 8  84423698.517 8  20617076.625                    20617085.465
 118457576.559 7  92304675.693 7  22541731.313                    22541742.938
 119201133.015 7  92884068.55244  22683221.703                    22683232.238
 122040916.566 7  95096802.94344  23223562.773                    23223573.922
 11  8 27  0 42 30.0000000  0  8G17G10G12G02G05G25G30G04
 127780651.726 6  99569399.159 5  24315853.328                    24315864.668
 112908413.360 8  87980723.60746  21485732.758                    21485741.656
 109268344.698 8  85144238.891 7  20793071.727                    20793080.020
 109708920.770 8  85487603.66946  20876880.523                    20876887.414
 108297649.051 8  84387871.031 7  20608326.680                    20608335.891
 118388083.587 7  92250525.386 7  22528507.375                    22528519.215
 119132415.900 7  92830522.80444  22670145.672                    22670155.340
 122121987.956 7  95159975.41144  23238989.797                    23239000.934
 11  8 27  0 43  0.0000000  0  8G17G10G12G02G05G25G30G04
 127850483.592 6  99623813.584 6  24329141.305                    24329153.496
 112970074.779 7  88028771.46845  21497466.156                    21497475.648
 109259516.637 8  85137359.899 7  20791391.797                    20791399.723
 109730813.703 8  85504663.09646  20881046.977                    20881053.727
 108252206.336 8  84352461.176 8  20599679.492                    20599688.508
 118319021.492 7  92196710.817 7  22515365.656                    22515376.980
 119064174.668 7  92777347.87644  22657159.406                    22657169.535
 122203043.137 7  95223135.26044  23254414.164                    23254424.668
 11  8 27  0 43 30.0000000  0  8G17G10G12G02G05G25G30G04
 127920507.932 6  99678377.986 6  24342466.359                    24342479.090
 113032242.941 8  88077214.18045  21509296.609                    21509305.973
 109251268.805 8  85130933.029 7  20789822.273                    20789830.551
 109752870.578 8  85521850.26846  20885244.203                    20885251.098
 108207300.650 8  84317469.781 8  20591133.922                    20591143.137
 118250392.342 7  92143233.605 7  22502305.328                    22502316.863
 118996411.368 7  92724545.36544  22644264.328                    22644274.641
 122284080.746 7  95286281.40144  23269835.203                    23269845.781
 11  8 27  0 44  0.0000000  0  8G17G10G12G02G05G25G30G04
 127990724.688 6  99733092.322 5  24355828.250                    24355840.840
 113094915.768 8  88126050.14945  21521222.969                    21521232.105
 109243601.581 8  85124958.574 7  20788363.391                    20788371.809
 109775090.287 8  85539164.32646  20889472.406                    20889479.125
 108162933.687 8  84282898.177 8  20582691.359                    20582700.500
 118182198.565 7  92090095.649 7  22489328.531                    22489340.121
 118929128.247 7  92672116.99944  22631460.648                    22631470.766
 122365100.170 7  95349413.37043  23285252.492                    23285263.707
 11  8 27  0 44 30.0000000  0  9G17G10G12G29G02G05G25G30G04
 128061133.825 6  99787956.564 6  24369226.508                    24369238.766
 113158090.921 8  88175277.53145  21533244.758                    21533254.102
 109236515.534 8  85119436.985 7  20787014.773                    20787023.617
 129558105.14117 100954414.05516  24654094.992                    24654105.641
 109797471.860 8  85556604.51246  20893731.609                    20893738.293
 108119106.781 8  84248747.395 8  20574351.383                    20574360.211
 118114442.385 7  92037298.674 7  22476434.859                    22476446.215
 118862327.801 7  92620064.76144  22618748.805                    22618758.637
 122446100.463 6  95412530.42344  23300666.648                    23300677.438
 11  8 27  0 45  0.0000000  0  9G17G10G12G29G02G05G25G30G04
 128131735.847 6  99842971.108 6  24382662.414                    24382675.145
 113221766.643 7  88224894.97145  21545361.406                    21545371.145
 109230011.638 8  85114369.022 7  20785777.203                    20785785.824
 129477931.098 6 100891940.836 6  24638837.961                    24638849.426
 109820014.902 8  85574170.51446  20898021.211                    20898028.059
 108075821.487 8  84215018.640 8  20566114.344                    20566123.418
 118047126.591 7  91984844.854 7  22463625.156                    22463636.543
 118796012.418 7  92568390.46044  22606129.063                    22606139.223
 122527081.081 6  95475632.15643  23316076.438                    23316087.645
 11  8 27  0 45 30.0000000  0  9G17G10G12G29G02G05G25G30G04
 128202530.401 6  99898135.695 6  24396134.016                    24396146.242
 113285940.255 8  88274900.37745  21557573.242                    21557582.723
 109224089.848 8  85109754.643 7  20784650.211                    20784658.605
 129397676.314 6 100829404.708 6  24623566.141                    24623577.309
 109842718.191 8  85591861.38746  20902341.594                    20902348.359
 108033079.073 8  84181712.915 8  20557980.844                    20557990.168
 117980253.305 7  91932735.854 7  22450899.352                    22450911.348
 118730184.271 7  92517095.85444  22593603.000                    22593612.762
 122608040.960 6  95538717.69843  23331483.164                    23331493.930
 11  8 27  0 46  0.0000000  0  9G17G10G12G29G02G05G25G30G04
 128273517.224 6  99953450.111 6  24409641.531                    24409654.285
 113350608.909 8  88325291.52645  21569879.531                    21569888.875
 109218750.059 8  85105593.780 7  20783634.086                    20783642.563
 129317340.736 6 100766805.632 6  24608279.547                    24608290.398
 109865580.079 8  85609675.83346  20906692.305                    20906698.930
 107990880.393 8  84148830.873 8  20549950.492                    20549959.473
 117913824.362 7  91880973.098 7  22438258.383                    22438270.191
 118664845.219 7  92466182.31744  22581169.477                    22581179.559
 122688978.991 6  95601786.23343  23346884.828                    23346895.527
 11  8 27  0 46 30.0000000  0  9G17G10G12G29G02G05G25G30G04
 128344695.991 7 100008914.105 6  24423187.023                    24423199.594
 113415770.040 7  88376066.42245  21582279.242                    21582288.508
 109213993.021 8  85101887.002 7  20782728.922                    20782737.102
 129236925.119 6 100704144.152 6  24592975.867                    24592987.660
 109888599.716 8  85627613.21846  20911072.539                    20911079.293
 107949226.641 8  84116373.451 8  20542024.117                    20542033.141
 117847842.085 7  91829558.390 7  22425702.172                    22425714.031
 118599997.440 7  92415651.63744  22568828.625                    22568838.617
 122769894.222 6  95664836.96044  23362282.594                    23362293.699
 11  8 27  0 47  0.0000000  0  9G17G10G12G29G02G05G25G30G04
 128416066.464 6 100064527.490 6  24436767.688                    24436780.754
 113481420.974 7  88427222.98145  21594772.242                    21594781.477
 109209818.342 8  85098634.011 7  20781934.453                    20781942.730
 129156429.945 6 100641420.704 6  24577658.664                    24577669.469
 109911775.508 8  85645672.27246  20915483.063                    20915489.715
 107908118.953 8  84084341.533 8  20534201.477                    20534210.555
 117782308.384 7  91778493.230 7  22413231.563                    22413243.387
 118535642.788 7  92365505.20444  22556582.766                    22556592.434
 122850785.541 6  95727869.11244  23377675.695                    23377686.895
 11  8 27  0 47 30.0000000  0  9G17G10G12G29G02G05G25G30G04
 128487628.867 6 100120290.442 6  24450385.820                    24450398.660
 113547559.834 8  88478759.74645  21607358.055                    21607367.191
 109206226.470 8  85095835.149 7  20781251.000                    20781259.105
 129075856.156 6 100578636.001 6  24562325.555                    24562337.352
 109935107.292 8  85663852.87646  20919922.789                    20919929.406
 107867558.968 8  84052736.402 8  20526483.016                    20526491.996
 117717225.776 7  91727779.577 7  22400846.922                    22400858.621
 118471783.698 7  92315744.92244  22544430.758                    22544440.734
 122931652.491 7  95790882.23844  23393064.375                    23393074.676
 11  8 27  0 48  0.0000000  0  9G17G10G12G29G02G05G25G30G04
 128559383.120 6 100176202.887 6  24464039.734                    24464053.230
 113614183.925 8  88530674.61345  21620035.977                    21620045.020
 109203217.955 8  85093490.863 7  20780678.531                    20780686.695
 128995204.257 6 100515790.431 6  24546977.672                    24546990.051
 109958593.900 8  85682154.13046  20924392.516                    20924398.902
 107827547.270 8  84021558.496 8  20518868.992                    20518877.840
 117652596.342 7  91677419.024 7  22388548.000                    22388559.770
 118408422.218 7  92266372.37944  22532373.680                    22532383.441
 123012493.836 6  95853875.40944  23408448.359                    23408459.164
 11  8 27  0 48 30.0000000  0  9G17G10G12G29G02G05G25G30G04
 128631329.029 6 100232264.676 6  24477731.570                    24477744.238
 113681291.137 8  88582965.93245  21632806.633                    21632815.848
 109200793.063 8  85091601.345 7  20780216.914                    20780225.098
 128914474.993 6 100452884.585 6  24531615.594                    24531627.098
 109982234.388 8  85700575.28446  20928890.523                    20928897.031
 107788085.630 8  83990809.221 8  20511359.742                    20511368.422
 117588422.468 7  91627413.473 7  22376336.328                    22376348.039
 118345560.593 7  92217389.35844  22520411.258                    22520421.160
 123093309.082 7  95916848.26744  23423827.242                    23423838.266
 11  8 27  0 49  0.0000000  0  9G17G10G12G29G02G05G25G30G04
 128703466.331 6 100288475.601 6  24491458.641                    24491471.402
 113748878.359 7  88635631.30045  21645667.875                    21645677.453
 109198951.459 8  85090166.324 7  20779866.523                    20779875.277
 128833668.777 6 100389918.785 6  24516238.836                    24516250.512
 110006027.544 8  85719115.40646  20933418.500                    20933425.379
 107749174.810 8  83960489.141 8  20503955.445                    20503963.961
 117524706.098 7  91577764.417 7  22364211.852                    22364222.848
 118283200.746 7  92168797.33145  22508544.531                    22508554.434
 123174097.314 7  95979800.04844  23439200.125                    23439211.398
 11  8 27  0 49 30.0000000  0  9G17G10G12G29G02G05G25G30G04
 128775795.771 6 100344836.192 6  24505222.023                    24505235.516
 113816943.869 8  88688669.35645  21658619.891                    21658629.688
 109197694.136 8  85089186.606 7  20779626.883                    20779636.027
 128752787.000 7 100326894.117 6  24500847.367                    24500859.035
 110029973.039 8  85737774.23546  20937975.250                    20937981.520
 107710816.509 8  83930599.599 8  20496656.055                    20496664.680
 117461450.134 7  91528474.107 7  22352173.914                    22352185.301
 118221345.452 7  92120598.46145  22496773.813                    22496783.672
 123254858.371 7  96042730.66844  23454569.188                    23454579.219
 11  8 27  0 50  0.0000000  0  8G10G12G29G02G05G25G30G04
 113885485.150 8  88742078.13745  21671663.313                    21671672.328
 109197021.238 8  85088662.274 7  20779499.156                    20779507.805
 128671830.217 6 100263810.970 5  24485441.602                    24485453.027
 110054069.626 8  85756550.80046  20942560.484                    20942567.008
 107673011.743 8  83901141.394 8  20489461.727                    20489470.898
 117398656.566 7  91479544.116 7  22340224.867                    22340236.617
 118159996.605 7  92072794.23845  22485099.695                    22485109.332
 123335591.231 6  96105639.33044  23469932.336                    23469942.676
 11  8 27  0 50 30.0000000  0  8G10G12G29G02G05G25G30G04
 113954499.431 8  88795855.50245  21684796.422                    21684805.387
 109196932.555 8  85088593.175 7  20779482.477                    20779490.621
 128590798.757 6 100200669.697 5  24470021.977                    24470033.656
 110078316.463 8  85775444.43646  20947174.406                    20947181.074
 107635761.412 8  83872115.212 8  20482373.320                    20482382.090
 117336327.263 7  91430975.895 7  22328363.805                    22328375.145
 118099156.103 7  92025386.10945  22473522.047                    22473532.109
 123416294.831 6  96168525.20643  23485289.000                    23485300.051
 11  8 27  0 51  0.0000000  0  8G10G12G29G02G05G25G30G04
 114023983.572 8  88849998.98745  21698018.648                    21698027.441
 109197427.637 7  85088978.959 7  20779576.648                    20779585.129
 128509693.021 6 100137470.507 5  24454588.313                    24454598.836
 110102711.981 8  85794453.93146  20951817.016                    20951823.375
 107599065.985 8  83843521.421 8  20475390.273                    20475399.180
 117274463.846 7  91382770.685 7  22316591.766                    22316603.398
 118038825.280 7  91978375.15945  22462041.320                    22462051.055
 123496968.075 6  96231387.41244  23500641.117                    23500651.563
 11  8 27  0 51 30.0000000  0  8G10G12G29G02G05G25G30G04
 114093934.928 8  88904506.54145  21711330.352                    21711339.180
 109198506.415 8  85089819.570 7  20779781.969                    20779790.328
 128428513.329 6 100074213.738 6  24439140.023                    24439151.527
 110127254.702 8  85813578.13646  20956487.430                    20956494.203
 107562926.119 8  83815360.523 8  20468513.102                    20468522.203
 117213068.235 7  91334929.999 7  22304908.648                    22304920.156
 117979005.941 7  91931762.73945  22450657.969                    22450667.746
 123577609.921 7  96294225.16244  23515986.609                    23515997.512
 11  8 27  0 52  0.0000000  0  8G10G12G29G02G05G25G30G04
 114164351.208 8  88959376.36045  21724729.820                    21724738.699
 109200169.550 8  85091115.534 7  20780098.461                    20780106.809
 128347260.818 6 100010900.278 6  24423677.852                    24423689.266
 110151944.408 8  85832816.87446  20961185.695                    20961192.527
 107527343.386 8  83787633.766 8  20461741.813                    20461750.586
 117152142.889 8  91287455.751 7  22293314.508                    22293326.563
 117919700.579 7  91885550.82845  22439372.602                    22439382.148
 123658219.927 6  96357038.09943  23531326.086                    23531337.254
 11  8 27  0 52 30.0000000  0  8G10G12G29G02G05G25G30G04
 114235229.921 8  89014606.52145  21738217.367                    21738226.352
 109202416.645 8  85092866.524 8  20780525.914                    20780534.543
 128265936.148 6  99947530.564 6  24408202.250                    24408212.727
 110176779.982 8  85852169.27646  20965911.617                    20965918.488
 107492318.663 8  83760341.822 8  20455077.117                    20455085.422
 117091689.789 8  91240349.482 7  22281811.031                    22281822.383
 117860911.019 7  91839740.81845  22428185.203                    22428195.063
 123738797.395 7  96419825.73543  23546659.297                    23546670.223
 11  8 27  0 53  0.0000000  0  8G10G12G29G02G05G25G30G04
 114306568.963 8  89070195.39445  21751792.703                    21751802.285
 109205248.144 7  85095072.899 8  20781064.734                    20781073.063
 128184540.480 6  99884105.520 6  24392712.664                    24392724.402
 110201760.935 8  85871634.96246  20970665.438                    20970672.090
 107457853.171 8  83733485.639 8  20448518.211                    20448526.910
 117031711.419 8  91193613.137 7  22270397.469                    22270409.027
 117802639.633 7  91794334.61145  22417096.195                    22417106.445
 123819341.655 7  96482587.48644  23561986.539                    23561997.848
 11  8 27  0 53 30.0000000  0  8G10G12G29G02G05G25G30G04
 114378365.265 8  89126140.55645  21765455.320                    21765464.363
 109208663.319 8  85097734.088 7  20781714.453                    20781722.906
 128103074.252 6  99820625.525 6  24377210.047                    24377222.039
 110226885.970 8  85891212.92746  20975446.469                    20975453.004
 107423947.520 8  83707065.696 8  20442065.914                    20442075.070
 116972209.572 8  91147248.104 7  22259074.438                    22259086.184
 117744888.128 7  91749333.48345  22406106.914                    22406116.590
 123899851.950 7  96545322.72243  23577307.078                    23577317.816
 11  8 27  0 54  0.0000000  0  8G10G12G29G02G05G25G30G04
 114450615.897 8  89182439.74645  21779204.000                    21779213.410
 109212661.822 8  85100849.815 7  20782475.516                    20782484.012
 128021537.598 6  99757090.612 6  24361694.164                    24361705.574
 110252153.543 8  85910901.94546  20980254.781                    20980261.496
 107390602.293 8  83681082.446 8  20435720.805                    20435729.445
 116913185.750 8  91101255.557 7  22247842.484                    22247854.113
 117687657.843 7  91704738.48045  22395215.727                    22395225.777
 123980327.126 7  96608030.65844  23592621.078                    23592632.254
 11  8 27  0 54 30.0000000  0  8G10G12G29G02G05G25G30G04
 114523318.725 8  89239091.29745  21793039.078                    21793048.281
 109217244.611 8  85104420.830 8  20783347.602                    20783356.117
 127939932.040 6  99693502.023 6  24346164.773                    24346176.344
 110277563.703 8  85930702.07946  20985089.961                    20985096.523
 107357818.943 8  83655537.022 8  20429482.391                    20429490.867
 116854642.702 7  91055637.636 7  22236702.289                    22236713.566
 117630951.406 7  91660551.70645  22384424.938                    22384435.012
 124060766.940 7  96670711.02443  23607928.953                    23607939.348
 11  8 27  0 55  0.0000000  0  8G10G12G29G02G05G25G30G04
 114596470.768 7  89296092.89845  21806959.305                    21806968.328
 109222411.176 8  85108446.742 7  20784330.945                    20784339.105
 127858258.076 6  99629860.095 6  24330623.273                    24330634.418
 110303115.043 8  85950612.23046  20989952.430                    20989958.820
 107325598.000 8  83630429.836 8  20423350.883                    20423359.574
 116796582.035 8  91010395.582 7  22225653.641                    22225664.742
 117574770.302 7  91616774.25345  22373734.711                    22373744.281
 124141170.500 7  96733363.13444  23623228.617                    23623240.176
 11  8 27  0 55 30.0000000  0  8G10G12G29G02G05G25G30G04
 114670069.886 7  89353442.85045  21820964.852                    21820974.770
 109228161.092 8  85112927.190 7  20785424.672                    20785433.176
 127776516.444 6  99566165.457 6  24315068.023                    24315079.031
 110328807.007 8  85970631.94846  20994841.625                    20994847.594
 107293940.709 8  83605761.866 8  20417326.633                    20417335.563
 116739006.045 7  90965531.221 7  22214697.359                    22214709.141
 117519116.781 7  91573407.91645  22363143.656                    22363153.305
 124221537.329 7  96795986.66043  23638521.484                    23638532.863
 11  8 27  0 56  0.0000000  0  8G10G12G29G02G05G25G30G04
 114744112.974 8  89411138.75945  21835054.680                    21835063.910
 109234494.037 8  85117861.973 7  20786630.109                    20786638.449
 127694707.714 6  99502418.469 6  24299500.609                    24299510.766
 110354638.073 8  85990760.07046  20999756.961                    20999763.813
 107262847.019 8  83581533.056 8  20411409.898                    20411418.578
 116681916.235 7  90921045.694 7  22203833.406                    22203844.707
 117463992.148 7  91530453.69244  22352653.750                    22352662.805
 124301866.495 7  96858580.79443  23653808.109                    23653818.852
 11  8 27  0 56 30.0000000  0  8G10G12G29G02G05G25G30G04
 114818597.836 8  89469178.89845  21849228.750                    21849238.340
 109241410.161 8  85123251.163 7  20787946.375                    20787954.516
 127612832.969 7  99438620.062 6  24283919.648                    24283931.102
 110380607.719 8  86010996.17046  21004698.727                    21004705.047
 107232318.185 8  83557744.394 8  20405600.414                    20405608.938
 116625314.935 8  90876940.817 7  22193062.680                    22193073.887
 117409398.564 7  91487913.28745  22342265.117                    22342274.523
 124382157.447 7  96921145.15743  23669086.875                    23669098.059
 11  8 27  0 57  0.0000000  0  8G10G12G29G02G05G25G30G04
 114893521.317 7  89527560.82245  21863486.148                    21863495.676
 109248909.327 8  85129094.666 8  20789372.977                    20789381.488
 127530893.296 7  99374771.023 6  24268327.570                    24268338.309
 110406715.241 8  86031339.69946  21009667.125                    21009673.266
 107202355.167 8  83534396.630 8  20399898.313                    20399907.234
 116569204.084 8  90833218.091 7  22182384.609                    22182396.590
 117355337.864 7  91445788.12345  22331977.875                    22331987.051
 124462409.353 7  96983679.09343  23684358.250                    23684369.457
 11  8 27  0 57 30.0000000  0  8G10G12G29G02G05G25G30G04
 114968881.274 7  89586282.86045  21877826.703                    21877836.230
 109256991.598 8  85135392.545 7  20790911.172                    20790919.375
 127448889.450 7  99310871.981 6  24252722.336                    24252733.500
 110432960.265 8  86051790.38546  21014661.234                    21014667.625
 107172958.940 8  83511490.521 8  20394304.516                    20394313.027
 116513585.954 8  90789879.334 7  22171801.031                    22171812.430
 117301812.225 7  91404079.89545  22321791.750                    22321801.520
 124542622.242 7  97046182.64643  23699622.102                    23699632.945
 11  8 27  0 58  0.0000000  0  8G10G12G29G02G05G25G30G04
 115044673.756 7  89645341.92245  21892249.695                    21892259.086
 109265655.438 8  85142143.587 7  20792559.586                    20792567.793
 127366821.490 7  99246922.956 6  24237105.328                    24237116.273
 110459340.256 8  86072346.23346  21019680.938                    21019687.332
 107144129.052 8  83489025.713 8  20388818.289                    20388827.047
 116458461.156 8  90746924.977 7  22161311.430                    22161322.805
 117248822.029 7  91362788.88745  22311707.891                    22311717.480
 124622794.288 7  97108654.36043  23714878.094                    23714889.289
 11  8 27  0 58 30.0000000  0  8G10G12G29G02G05G25G30G04
 115120897.237 8  89704736.82945  21906753.977                    21906763.609
 109274901.453 8  85149348.261 7  20794319.625                    20794327.539
 127284690.677 6  99182924.974 6  24221476.211                    24221487.008
 110485855.074 8  86093007.13646  21024726.617                    21024733.129
 107115866.699 8  83467003.145 8  20383440.242                    20383448.957
 116403832.346 7  90704357.079 7  22150915.828                    22150927.000
 117196369.812 7  91321917.09545  22301726.797                    22301736.289
 124702925.289 7  97171094.09143  23730126.641                    23730137.598
 11  8 27  0 59  0.0000000  0  8G10G12G29G02G05G25G30G04
 115197548.999 7  89764465.45645  21921340.852                    21921350.328
 109284728.887 8  85157005.997 7  20796189.633                    20796197.762
 127202498.095 6  99118878.839 6  24205835.898                    24205846.617
 110512504.322 8  86113772.78946  21029797.711                    21029804.309
 107088172.803 8  83445423.521 8  20378170.063                    20378178.895
 116349701.563 7  90662177.283 7  22140615.180                    22140626.086
 117144457.513 7  91281465.99445  22291848.016                    22291857.715
 124783014.923 7  97233501.58343  23745367.703                    23745379.328
 11  8 27  0 59 30.0000000  0  8G10G12G29G02G05G25G30G04
 115274626.048 7  89824525.47245  21936007.906                    21936017.504
 109295137.616 8  85165116.689 7  20798170.422                    20798178.582
 127120244.436 6  99054785.134 6  24190183.273                    24190193.660
 110539286.981 8  86134642.39646  21034894.188                    21034900.559
 107061047.901 8  83424287.272 8  20373008.328                    20373017.039
 116296070.606 8  90620386.936 7  22130409.320                    22130420.711
 117093086.719 7  91241436.87745  22282072.531                    22282081.723
 124863062.523 7  97295876.32543  23760600.398                    23760611.289
 11  8 27  1  0  0.0000000  0  8G10G12G29G02G05G25G30G04
 115352125.997 7  89884915.02745  21950755.680                    21950765.199
 109306127.319 8  85173680.090 7  20800261.664                    20800269.434
 127037931.041 7  98990644.897 6  24174519.688                    24174530.762
 110566202.117 8  86155615.23546  21040015.977                    21040022.379
 107034492.490 8  83403594.792 8  20367955.031                    20367963.129
 116242941.190 8  90578987.411 7  22120298.906                    22120310.293
 117042258.932 7  91201830.85845  22272399.875                    22272409.727
 124943067.174 7  97358217.58543  23775824.375                    23775835.992
 11  8 27  1  0 30.0000000  0  8G10G12G29G02G05G25G30G04
 115430044.811 7  89945630.98145  21965583.422                    21965592.570
 109317696.780 8  85182695.248 7  20802463.008                    20802471.305
 126955557.163 6  98926457.536 6  24158844.625                    24158855.270
 110593247.505 8  86176689.57346  21045162.805                    21045169.051
 107008506.298 8  83383345.845 8  20363009.945                    20363018.617
 116190314.272 8  90537979.433 7  22110284.289                    22110295.242
 116991975.070 7  91162648.66745  22262831.797                    22262841.188
 125023027.786 7  97420524.51544  23791041.375                    23791051.719
 11  8 27  1  1  0.0000000  0  8G10G12G29G02G05G25G30G04
 115508381.360 7  90006672.42745  21980490.656                    21980499.766
 109329846.661 8  85192162.677 7  20804775.164                    20804783.313
 126873125.444 6  98862225.074 6  24143157.820                    24143168.980
 110620424.601 8  86197866.53446  21050334.031                    21050340.758
 106983091.383 8  83363542.054 8  20358173.477                    20358182.504
 116138193.213 8  90497365.629 7  22100366.156                    22100377.238
 116942238.160 7  91123892.67745  22253367.164                    22253376.609
 125102945.069 7  97482797.70644  23806248.469                    23806259.555
 11  8 27  1  1 30.0000000  0  8G10G12G29G02G05G25G30G04
 115587132.486 8  90068036.92845  21995475.945                    21995485.766
 109342576.401 8  85202081.950 7  20807197.664                    20807205.789
 126790636.541 6  98797948.102 6  24127460.438                    24127470.969
 110647732.093 8  86219145.09546  21055530.742                    21055537.066
 106958247.931 8  83344183.557 8  20353446.234                    20353454.805
 116086579.257 8  90457146.971 7  22090544.273                    22090555.695
 116893049.446 7  91085563.84045  22244006.391                    22244016.426
 125182818.061 7  97545036.35044  23821447.508                    23821459.141
 11  8 27  1  2  0.0000000  0  8G10G12G29G02G05G25G30G04
 115666294.696 7  90129721.75645  22010540.492                    22010549.422
 109355884.865 8  85212452.177 7  20809729.953                    20809738.016
 126708090.861 6  98733626.854 6  24111752.758                    24111763.008
 110675168.368 8  86240524.02246  21060751.555                    21060757.973
 106933975.753 8  83325270.218 8  20348827.070                    20348835.660
 116035473.857 8  90417324.585 7  22080819.359                    22080830.590
 116844410.042 7  91047663.03645  22234750.820                    22234760.305
 125262645.880 6  97607239.80743  23836638.266                    23836649.566
 11  8 27  1  2 30.0000000  0  8G10G12G29G02G05G25G30G04
 115745865.867 7  90191725.25245  22025682.273                    22025691.078
 109369771.827 8  85223273.184 7  20812372.539                    20812380.578
 126625489.485 6  98669262.277 6  24096034.141                    24096045.293
 110702733.045 8  86262002.99446  21065996.883                    21066003.113
 106910275.778 8  83306802.736 8  20344317.188                    20344325.992
 115984879.056 8  90377900.052 7  22071191.523                    22071202.836
 116796321.954 7  91010191.82445  22225599.852                    22225609.348
 125342428.085 7  97669407.69544  23851820.438                    23851831.988
 11  8 27  1  3  0.0000000  0  8G10G12G29G02G05G25G30G04
 115825843.071 7  90254045.13245  22040901.352                    22040910.867
 109384236.609 8  85234544.431 7  20815125.148                    20815133.598
 126542833.097 6  98604854.750 6  24080304.586                    24080315.277
 110730424.937 8  86283581.09046  21071266.633                    21071272.680
 106887148.317 8  83288781.379 8  20339916.180                    20339925.254
 115934796.248 8  90338874.490 7  22061661.039                    22061672.348
 116748786.246 7  90973151.01845  22216554.453                    22216563.422
 125422164.076 6  97731539.61443  23866993.930                    23867005.637
 11  8 27  1  3 30.0000000  0  8G10G12G29G02G05G25G30G04
 115906223.092 7  90316678.90145  22056197.617                    22056206.332
 109399278.361 8  85246265.272 7  20817987.469                    20817995.980
 126460122.350 6  98540404.937 6  24064565.172                    24064576.277
 110758242.647 8  86305257.23346  21076560.047                    21076566.633
 106864592.925 8  83271205.781 8  20335624.156                    20335632.707
 115885226.652 8  90300248.836 7  22052228.258                    22052239.422
 116701804.090 7  90936541.55645  22207613.469                    22207623.367
 125501852.761 6  97793634.60443  23882157.938                    23882169.977
 11  8 27  1  4  0.0000000  0  8G10G12G29G02G05G25G30G04
 115987003.346 7  90379624.53545  22071568.930                    22071578.254
 109414897.102 8  85258435.720 7  20820959.938                    20820967.855
 126377358.875 6  98475914.042 6  24048816.359                    24048827.219
 110786186.175 8  86327031.41346  21081877.398                    21081883.758
 106842611.133 8  83254077.153 8  20331440.961                    20331449.191
 115836172.574 8  90262024.891 7  22042893.750                    22042905.180
 116655377.548 7  90900365.02845  22198778.773                    22198788.578
 125581493.921 6  97855692.60343  23897312.531                    23897324.898
 11  8 27  1  4 30.0000000  0  8G10G12G29G02G05G25G30G04
 116068181.880 7  90442880.50845  22087016.922                    22087026.160
 109431092.413 8  85271055.426 7  20824041.578                    20824049.742
 126294543.898 6  98411382.987 6  24033057.133                    24033067.578
 110814255.432 7  86348903.56346  21087218.766                    21087225.434
 106821203.028 8  83237395.549 8  20327367.078                    20327375.340
 115787636.220 8  90224204.355 7  22033657.391                    22033668.754
 116609508.642 7  90864623.01145  22190050.664                    22190059.988
 125661087.751 6  97917713.73743  23912459.141                    23912471.441
 11  8 27  1  5  0.0000000  0  8G10G12G29G02G05G25G30G04
 116149755.608 7  90506444.43145  22102539.875                    22102548.957
 109447862.749 8  85284123.223 7  20827233.086                    20827241.438
 126211678.002 6  98346812.250 6  24017288.219                    24017298.582
 110842449.087 8  86370872.64946  21092584.430                    21092591.031
 106800369.137 8  83221161.386 8  20323402.625                    20323410.754
 115739618.979 7  90186788.333 7  22024519.813                    22024531.414
 116564198.542 7  90829316.43445  22181428.086                    22181438.281
 125740633.518 6  97979697.41243  23927596.859                    23927608.039
 11  8 27  1  5 30.0000000  0  8G10G12G29G02G05G25G30G04
 116231721.185 7  90570313.69145  22118137.516                    22118146.738
 109465207.950 8  85297638.954 7  20830533.523                    20830541.801
 126128762.000 6  98282202.457 6  24001509.680                    24001519.930
 110870766.191 8  86392937.92246  21097972.711                    21097979.121
 106780109.595 8  83205374.757 8  20319547.719                    20319555.594
 115692121.998 8  90149777.728 7  22015481.648                    22015492.875
 116519448.238 7  90794446.07045  22172912.430                    22172922.695
 125820130.334 6  98041642.95043  23942724.555                    23942735.559
 11  8 27  1  6  0.0000000  0  8G10G12G29G02G05G25G30G04
 116314076.169 7  90634486.38945  22133808.734                    22133818.543
 109483127.305 8  85311602.086 7  20833943.375                    20833951.797
 126045797.252 7  98217554.710 6  23985721.547                    23985732.387
 110899206.200 8  86415098.97346  21103384.492                    21103390.949
 106760424.880 8  83190036.057 8  20315801.578                    20315809.770
 115645147.311 8  90113174.091 7  22006542.680                    22006553.781
 116475259.523 7  90760013.29045  22164503.867                    22164513.535
 125899577.924 6  98103550.15243  23957842.859                    23957853.941
 11  8 27  1  6 30.0000000  0  8G10G12G29G02G05G25G30G04
 116396816.853 7  90698959.62445  22149553.953                    22149563.141
 109501619.537 8  85326011.606 7  20837462.578                    20837470.719
 125962783.901 7  98152869.032 6  23969924.594                    23969934.898
 110927767.147 8  86437354.25946  21108819.688                    21108826.090
 106741314.152 8  83175144.609 8  20312164.984                    20312172.973
 115598695.550 8  90076977.947 7  21997703.227                    21997714.797
 116431632.866 7  90726018.47545  22156202.516                    22156211.805
 125978974.959 7  98165417.95343  23972951.547                    23972962.363
 11  8 27  1  7  0.0000000  0  8G10G12G29G02G05G25G30G04
 116479940.878 7  90763731.57345  22165371.703                    22165381.250
 109520684.050 8  85340867.074 7  20841090.578                    20841098.645
 125879723.303 6  98088146.591 6  23954118.406                    23954129.801
 110956448.947 8  86459703.71746  21114277.656                    21114283.992
 106722778.448 8  83160701.228 8  20308637.539                    20308645.711
 115552768.895 8  90041190.978 7  21988963.570                    21988974.953
 116388570.240 7  90692463.18745  22148007.672                    22148016.879
 126058321.450 7  98227246.41443  23988050.836                    23988061.453
 11  8 27  1  7 30.0000000  0  8G10G12G29G02G05G25G30G04
 116563446.116 7  90828800.56545  22181262.477                    22181271.926
 109540320.345 8  85356168.084 7  20844826.969                    20844835.270
 125796616.776 7  98023388.353 6  23938304.102                    23938314.793
 110985251.432 8  86482147.21446  21119758.203                    21119764.871
 106704818.265 8  83146706.317 8  20305219.578                    20305228.070
 115507369.221 8  90005814.638 7  21980324.516                    21980335.070
 116346073.240 7  90659348.63245  22139920.445                    22139930.156
 126137617.538 6  98289035.53743  24003140.352                    24003151.066
 11  8 27  1  8  0.0000000  0  8G10G12G29G02G05G25G30G04
 116647329.214 7  90894163.98945  22197224.820                    22197234.133
 109560527.348 8  85371913.784 7  20848672.438                    20848680.570
 125713465.182 7  97958594.951 6  23922481.344                    23922490.660
 111014173.380 8  86504683.79146  21125261.828                    21125268.363
 106687433.501 8  83133159.774 8  20301911.242                    20301919.691
 115462497.706 8  89970849.841 7  21971785.438                    21971796.414
 116304142.979 7  90626675.69345  22131941.242                    22131950.785
 126216862.302 6  98350784.69343  24018220.180                    24018231.215
 11  8 27  1  8 30.0000000  0  8G10G12G29G02G05G25G30G04
 116731587.162 7  90959819.50145  22213259.109                    22213268.047
 109581304.608 8  85388103.858 7  20852626.063                    20852634.539
 125630269.520 7  97893767.271 6  23906649.430                    23906659.656
 111043214.207 8  86527313.01646  21130788.359                    21130794.695
 106670624.320 8  83120061.735 8  20298712.664                    20298720.844
 115418155.979 7  89936297.910 7  21963347.547                    21963358.559
 116262780.753 7  90594445.40245  22124070.500                    22124080.438
 126296055.196 6  98412493.42643  24033290.102                    24033301.266
 11  8 27  1  9  0.0000000  0  8G10G12G29G02G05G25G30G04
 116816217.426 7  91025765.13945  22229362.695                    22229372.246
 109602650.950 8  85404737.363 7  20856688.219                    20856696.785
 125547030.841 7  97828906.029 6  23890809.648                    23890819.590
 111072372.933 8  86550034.09546  21136337.336                    21136343.816
 106654390.668 8  83107412.165 8  20295623.555                    20295632.020
 115374345.475 8  89902159.875 7  21955010.609                    21955022.090
 116221987.758 7  90562658.65545  22116307.766                    22116317.051
 126375195.749 6  98474161.33743  24048349.672                    24048361.160
 11  8 27  1  9 30.0000000  0  8G10G12G29G02G05G25G30G04
 116901216.966 7  91091998.53645  22245537.977                    22245547.398
 109624565.497 8  85421813.621 7  20860858.508                    20860866.805
 125463750.095 7  97764012.032 6  23874961.094                    23874972.043
 111101648.748 8  86572846.43146  21141908.086                    21141914.555
 106638732.693 8  83095211.180 8  20292644.039                    20292652.500
 115331067.349 8  89868436.701 7  21946774.992                    21946786.359
 116181765.054 7  90531316.29445  22108653.930                    22108663.137
 126454283.434 6  98535788.07443  24063399.445                    24063410.699
 11  8 27  1 10  0.0000000  0  8G10G12G29G02G05G25G30G04
 116986583.419 7  91158517.81144  22261782.688                    22261792.648
 109647047.782 8  85439332.281 7  20865136.469                    20865144.746
 125380428.802 7  97699086.407 6  23859105.898                    23859116.168
 111131041.828 8  86595750.12746  21147501.680                    21147508.078
 106623650.929 8  83083459.185 8  20289774.070                    20289782.098
 115288323.780 8  89835130.071 7  21938640.930                    21938652.254
 116142114.420 7  90500419.71145  22101108.250                    22101118.090
 126533318.507 6  98597373.75543  24078439.203                    24078451.340
 11  8 27  1 10 30.0000000  0  8G10G12G29G02G05G25G30G04
 117072313.393 7  91225320.35744  22278096.609                    22278105.879
 109670096.183 8  85457292.073 7  20869522.648                    20869531.164
 125297067.732 7  97634129.803 6  23843243.164                    23843253.430
 111160550.631 8  86618744.00446  21153116.531                    21153123.227
 106609145.159 8  83072156.017 8  20287013.672                    20287021.965
 115246115.614 8  89802240.617 7  21930609.000                    21930620.477
 116103036.569 7  90469969.46845  22093671.883                    22093681.570
 126612299.997 6  98658917.73143  24093469.664                    24093481.305
 11  8 27  1 11  0.0000000  0  8G10G12G29G02G05G25G30G04
 117158404.059 7  91292403.98044  22294479.289                    22294488.719
 109693710.083 8  85475692.496 7  20874016.656                    20874024.449
 125213668.042 7  97569143.084 6  23827372.813                    23827383.102
 111190174.615 8  86641827.62746  21158754.266                    21158760.668
 106595215.247 8  83061301.566 8  20284362.961                    20284371.211
 115204444.478 8  89769769.628 7  21922679.430                    21922690.578
 116064532.971 7  90439966.68145  22086345.281                    22086354.953
 126691227.506 6  98720419.59843  24108488.766                    24108500.875
 11  8 27  1 11 30.0000000  0  8G10G12G29G02G05G25G30G04
 117244852.453 7  91359766.34845  22310929.594                    22310938.953
 109717888.452 8  85494532.781 7  20878617.211                    20878625.168
 125130230.818 7  97504127.134 6  23811494.719                    23811505.734
 111219913.170 8  86665000.53346  21164413.414                    21164419.746
 106581861.306 8  83050895.926 8  20281821.641                    20281830.133
 115163311.694 8  89737718.145 7  21914852.313                    21914863.309
 116026604.644 7  90410412.16545  22079127.906                    22079137.047
 126770100.787 6  98781879.24443  24123497.953                    24123509.555
 11  8 27  1 12  0.0000000  0  8G10G12G29G02G05G25G30G04
 117331656.124 7  91427405.55644  22327448.156                    22327457.609
 109742630.317 8  85513812.144 7  20883325.547                    20883333.762
 125046757.273 7  97439082.888 6  23795610.398                    23795620.652
 111249765.758 8  86688262.29446  21170093.891                    21170100.488
 106569083.461 8  83040939.189 8  20279390.086                    20279398.230
 115122718.657 8  89706087.236 7  21907127.523                    21907138.504
 115989252.690 7  90381306.77245  22072019.547                    22072029.465
 126848919.464 6  98843296.32043  24138496.586                    24138508.309
 11  8 27  1 12 30.0000000  0  9G26G10G12G29G02G05G25G30G04
 130617196.17516 101779707.90753  24855631.266                    24855645.137
 117418811.906 7  91495319.13044  22344033.430                    22344042.766
 109767934.659 8  85533529.808 7  20888140.781                    20888149.051
 124963248.270 7  97374010.999 6  23779719.172                    23779728.871
 111279731.407 8  86711612.15846  21175796.219                    21175802.633
 106556881.573 8  83031431.262 8  20277067.945                    20277076.246
 115082666.588 7  89674877.847 7  21899506.133                    21899517.281
 115952478.139 7  90352651.30045  22065021.656                    22065030.879
 126927682.829 6  98904670.30143  24153484.703                    24153496.863
 11  8 27  1 13  0.0000000  0  9G26G10G12G29G02G05G25G30G04
 130525730.206 6 101708436.05243  24838225.633                    24838239.930
 117506316.737 7  91563504.70144  22360685.250                    22360694.668
 109793800.006 7  85553684.617 7  20893062.234                    20893070.906
 124879705.112 7  97308912.498 6  23763820.938                    23763831.355
 111309809.303 8  86735049.48146  21181519.688                    21181526.070
 106545255.142 8  83022371.736 8  20274855.695                    20274864.340
 115043156.600 8  89644090.869 7  21891987.117                    21891998.496
 115916281.748 7  90324446.35645  22058133.805                    22058143.152
 127006390.461 6  98966000.83543  24168462.891                    24168474.336
 11  8 27  1 13 30.0000000  0  9G26G10G12G29G02G05G25G30G04
 130434119.366 6 101637051.23343  24820792.078                    24820806.367
 117594167.726 7  91631960.00745  22377402.609                    22377412.070
 109820225.175 8  85574275.650 7  20898091.109                    20898099.285
 124796128.417 7  97243787.849 6  23747916.875                    23747926.625
 111339998.378 8  86758573.43346  21187264.477                    21187270.965
 106534204.160 8  83013760.616 8  20272752.836                    20272761.148
 115004189.775 7  89613727.126 7  21884572.164                    21884582.961
 115880664.517 7  90296692.71145  22051356.109                    22051365.684
 127085041.831 6  99027287.56143  24183429.828                    24183440.945
 11  8 27  1 14  0.0000000  0  9G26G10G12G29G02G05G25G30G04
 130342366.967 6 101565556.13643  24803332.063                    24803346.316
 117682362.168 7  91700682.94945  22394185.695                    22394194.719
 109847209.408 8  85595302.327 7  20903225.961                    20903234.426
 124712519.697 7  97178638.265 6  23732006.680                    23732016.922
 111370298.603 8  86782184.00146  21193030.766                    21193037.168
 106523728.825 8  83005598.053 8  20270758.977                    20270767.363
 114965767.945 8  89583788.056 7  21877260.867                    21877271.879
 115845627.909 7  90269391.48145  22044689.023                    22044698.023
 127163637.120 6  99088530.58743  24198386.172                    24198397.098
 11  8 27  1 14 30.0000000  0  9G26G10G12G29G02G05G25G30G04
 130250475.816 6 101493952.94743  24785845.586                    24785859.887
 117770897.535 7  91769671.53745  22411032.742                    22411042.453
 109874751.899 8  85616764.001 7  20908467.383                    20908475.508
 124628880.438 7  97113464.894 6  23716090.781                    23716101.176
 111400709.574 8  86805880.86946  21198817.383                    21198824.004
 106513829.340 8  82997884.204 8  20268875.383                    20268884.023
 114927892.454 8  89554274.703 7  21870053.086                    21870064.277
 115811173.090 7  90242543.58645  22038132.344                    22038141.246
 127242176.104 6  99149729.69343  24213331.969                    24213342.938
 11  8 27  1 15  0.0000000  0  9G26G10G12G29G02G05G25G30G04
 130158448.543 6 101422243.63543  24768333.508                    24768347.293
 117859770.584 7  91838923.25045  22427945.477                    22427954.832
 109902851.222 8  85638659.572 7  20913814.297                    20913822.742
 124545211.670 7  97048268.512 6  23700169.031                    23700178.941
 111431230.232 8  86829663.20146  21204625.219                    21204632.184
 106504504.868 8  82990618.414 8  20267100.969                    20267109.301
 114890564.245 8  89525187.806 7  21862949.711                    21862961.176
 115777300.644 7  90216149.49445  22031686.445                    22031695.660
 127320657.983 6  99210884.35343  24228266.313                    24228277.504
 11  8 27  1 15 30.0000000  0  9G26G10G12G29G02G05G25G30G04
 130066287.886 6 101350430.36243  24750795.727                    24750809.262
 117948978.487 7  91908435.86945  22444920.930                    22444930.461
 109931506.078 8  85660988.027 7  20919267.375                    20919275.824
 124461514.308 7  96983049.811 6  23684242.375                    23684251.891
 111461860.000 8  86853530.55046  21210453.758                    21210460.633
 106495755.300 8  82983800.605 8  20265435.984                    20265444.352
 114853784.536 8  89496528.296 7  21855951.125                    21855962.344
 115744011.531 7  90190209.95445  22025351.914                    22025361.254
 127399082.685 6  99271994.46043  24243190.156                    24243201.074
 11  8 27  1 16  0.0000000  0  9G26G10G12G29G02G05G25G30G04
 129973996.727 6 101278515.42442  24733232.695                    24733246.648
 118038518.366 7  91978207.19245  22461959.844                    22461969.297
 109960715.346 8  85683748.493 7  20924825.109                    20924834.039
 124377789.913 7  96917810.049 6  23668309.906                    23668319.797
 111492598.187 7  86877482.38646  21216303.141                    21216310.059
 106487580.647 8  82977430.782 8  20263880.453                    20263888.859
 114817554.610 8  89468297.198 7  21849056.813                    21849067.766
 115711306.870 7  90164725.82345  22019128.336                    22019137.801
 127477449.671 6  99333059.57942  24258102.680                    24258113.980
 11  8 27  1 16 30.0000000  0  9G26G10G12G29G02G05G25G30G04
 129881577.848 6 101206500.93543  24715645.734                    24715659.742
 118128387.623 7  92048235.16045  22479060.758                    22479070.758
 109990477.665 7  85706939.909 7  20930489.305                    20930497.535
 124294039.531 7  96852550.047 6  23652371.867                    23652382.871
 111523444.254 8  86901518.27946  21222173.430                    21222180.074
 106479980.582 8  82971508.694 8  20262434.289                    20262442.668
 114781875.557 8  89440495.352 7  21842267.211                    21842278.813
 115679187.440 7  90139697.69545  22013016.406                    22013025.648
 127555758.708 6  99394079.57542  24273003.477                    24273015.789
 11  8 27  1 17  0.0000000  0  9G26G10G12G29G02G05G25G30G04
 129789034.282 6 101134389.28642  24698035.805                    24698049.434
 118218583.034 7  92118517.27344  22496224.945                    22496234.289
 110020791.925 8  85730561.403 7  20936257.695                    20936266.340
 124210264.391 7  96787270.809 6  23636430.047                    23636440.898
 111554397.762 8  86925637.89646  21228063.633                    21228069.793
 106472955.000 8  82966034.246 8  20261097.219                    20261105.547
 114746748.667 8  89413123.763 7  21835582.727                    21835593.621
 115647654.217 7  90115126.36445  22007015.438                    22007024.895
 127634009.786 6  99455054.34542  24287894.828                    24287906.469
 11  8 27  1 17 30.0000000  0  9G26G10G12G29G02G05G25G30G04
 129696368.924 6 101062182.72843  24680401.844                    24680414.805
 118309101.707 7  92189051.27245  22513449.695                    22513459.848
 110051656.914 8  85754612.034 7  20942131.359                    20942139.715
 124126465.646 7  96721973.139 6  23620484.414                    23620494.387
 111585457.876 8  86949840.58046  21233973.648                    21233980.262
 106466503.543 8  82961007.166 8  20259869.609                    20259877.813
 114712174.904 8  89386183.182 7  21829003.609                    21829014.992
 115616707.873 7  90091012.32745  22001126.523                    22001136.289
 127712202.386 6  99515983.59843  24302773.914                    24302785.949
 11  8 27  1 18  0.0000000  0  9G26G10G12G29G02G05G25G30G04
 129603584.443 6 100989883.39343  24662745.258                    24662758.652
 118399940.798 7  92259834.95644  22530735.930                    22530745.859
 110083071.747 8  85779091.128 7  20948109.305                    20948117.883
 124042644.541 7  96656658.054 6  23604533.070                    23604543.320
 111616623.982 8  86974125.85546  21239904.734                    21239911.258
 106460625.728 8  82956427.080 8  20258750.977                    20258759.203
 114678155.442 8  89359674.527 7  21822529.758                    21822540.859
 115586349.330 7  90067356.32445  21995349.469                    21995359.109
 127790336.084 6  99576866.93843  24317642.914                    24317654.473
 11  8 27  1 18 30.0000000  0  9G26G10G12G29G02G05G25G30G04
 129510684.003 6 100917493.65543  24645066.797                    24645080.516
 118491097.666 7  92330866.22744  22548082.859                    22548092.469
 110115034.197 7  85803996.931 7  20954191.445                    20954199.816
 123958802.277 7  96591326.467 6  23588578.633                    23588588.762
 111647895.788 7  86998493.48946  21245855.469                    21245862.207
 106455321.622 8  82952294.043 8  20257741.617                    20257749.973
 114644691.431 8  89333598.695 7  21816161.594                    21816173.156
 115556579.513 7  90044159.07045  21989684.750                    21989693.789
 127868410.974 6  99637704.41743  24332500.930                    24332512.094
 11  8 27  1 19  0.0000000  0  9G26G10G12G29G02G05G25G30G04
 129417670.199 6 100845015.58342  24627366.195                    24627380.758
 118582568.889 7  92402142.47544  22565489.438                    22565498.645
 110147543.154 7  85829328.583 7  20960377.797                    20960386.254
 123874940.543 7  96525979.725 6  23572619.883                    23572630.453
 111679272.522 7  87022942.89046  21251826.063                    21251832.996
 106450590.800 8  82948607.711 8  20256841.625                    20256849.449
 114611783.803 7  89307956.406 7  21809899.602                    21809910.777
 115527398.979 7  90021420.98445  21984131.750                    21984141.613
 127946426.303 6  99698495.50943  24347347.016                    24347357.680
 11  8 27  1 19 30.0000000  0  9G26G10G12G29G02G05G25G30G04
 129324545.864 5 100772451.39342  24609645.031                    24609659.414
 118674351.590 6  92473661.42544  22582955.047                    22582963.918
 110180597.011 7  85855084.832 7  20966667.641                    20966675.863
 123791059.951 7  96460618.268 6  23556658.531                    23556668.301
 111710752.941 8  87047473.08046  21257816.906                    21257823.145
 106446431.842 8  82945366.991 8  20256050.000                    20256058.066
 114579433.206 8  89282748.177 7  21803743.578                    21803755.035
 115498808.243 7  89999142.49745  21978690.891                    21978700.613
 128024381.721 6  99759239.95243  24362181.055                    24362192.379
 11  8 27  1 20  0.0000000  0  9G26G10G12G29G02G05G25G30G04
 129231314.090 5 100699803.48043  24591903.086                    24591917.355
 118766443.492 6  92545421.32044  22600478.969                    22600488.563
 110214194.784 8  85881264.920 7  20973061.148                    20973069.465
 123707162.110 7  96395243.421 6  23540692.859                    23540703.359
 111742337.370 8  87072084.32446  21263827.117                    21263833.891
 106442845.226 7  82942572.248 8  20255367.453                    20255375.711
 114547641.132 7  89257975.144 7  21797693.633                    21797704.719
 115470808.277 7  89977324.34645  21973362.766                    21973372.609
 128102277.364 7  99819937.80943  24377004.352                    24377015.625
 11  8 27  1 20 30.0000000  0  9G26G10G12G29G02G05G25G30G04
 129137977.860 6 100627074.20743  24574141.203                    24574155.863
 118858841.189 7  92617419.49744  22618062.539                    22618071.383
 110248334.884 8  85907867.579 7  20979557.617                    20979565.941
 123623248.204 7  96329856.062 6  23524724.469                    23524734.723
 111774024.938 7  87096775.92646  21269857.078                    21269863.715
 106439830.203 7  82940222.898 8  20254793.367                    20254801.875
 114516408.256 8  89233637.867 7  21791750.070                    21791761.313
 115443399.704 7  89955967.03045  21968146.961                    21968156.543
 128180112.778 6  99880588.73643  24391816.188                    24391827.734
 11  8 27  1 21  0.0000000  0  9G26G10G12G29G02G05G25G30G04
 129044540.003 6 100554265.74543  24556361.125                    24556375.281
 118951541.863 6  92689653.76144  22635702.563                    22635712.176
 110283016.032 8  85934891.847 7  20986157.570                    20986165.469
 123539319.739 7  96264457.328 6  23508753.281                    23508763.426
 111805815.104 7  87121547.47746  21275906.492                    21275912.992
 106437386.575 8  82938318.790 8  20254328.641                    20254337.164
 114485735.774 8  89209737.256 7  21785913.633                    21785924.746
 115416583.244 7  89935071.10045  21963044.055                    21963053.734
 128257887.976 6  99941192.74643  24406615.477                    24406627.488
 11  8 27  1 21 30.0000000  0  9G26G10G12G29G02G05G25G30G04
 128951003.491 6 100481380.32843  24538562.469                    24538575.277
 119044542.354 7  92762121.62244  22653400.234                    22653409.934
 110318236.405 8  85962336.298 7  20992859.609                    20992867.863
 123455377.767 7  96199048.094 6  23492780.086                    23492789.879
 111837706.981 7  87146398.28746  21281975.414                    21281982.059
 106435513.449 8  82936859.236 8  20253972.398                    20253980.723
 114455624.259 8  89186273.762 7  21780183.102                    21780194.852
 115390359.193 7  89914636.79445  21958053.836                    21958062.992
 128335602.234 7 100001749.29643  24421404.445                    24421416.199
 11  8 27  1 22  0.0000000  0  9G26G10G12G29G02G05G25G30G04
 128857371.059 6 100408420.24943  24520744.148                    24520757.711
 119137839.786 7  92834820.87444  22671154.008                    22671163.219
 110353994.612 7  85990199.820 7  20999664.133                    20999672.406
 123371423.585 7  96133629.302 6  23476803.672                    23476813.625
 111869700.281 7  87171328.13146  21288063.367                    21288069.855
 106434210.483 8  82935843.964 8  20253724.281                    20253732.223
 114426074.759 8  89163248.199 7  21774560.430                    21774571.813
 115364728.447 7  89894664.80545  21953176.422                    21953185.609
 128413255.737 6 100062258.47843  24436180.891                    24436193.453
 11  8 27  1 22 30.0000000  0  9G26G10G12G29G02G05G25G30G04
 128763645.953 6 100335387.92443  24502908.430                    24502921.766
 119231431.624 6  92907749.55144  22688963.492                    22688973.227
 110390288.911 8  86018481.081 7  21006571.047                    21006578.957
 123287458.505 7  96068202.059 6  23460825.789                    23460835.434
 111901794.397 7  87196336.52846  21294171.055                    21294177.051
 106433477.035 8  82935272.466 8  20253584.648                    20253593.250
 114397088.213 8  89140661.305 7  21769044.523                    21769055.699
 115339691.480 7  89875155.50245  21948412.063                    21948421.281
 128490848.153 6 100122720.09443  24450946.266                    24450958.617
 11  8 27  1 23  0.0000000  0  9G26G10G12G29G02G05G25G30G04
 128669831.156 6 100262285.73243  24485056.008                    24485069.258
 119325314.867 6  92980905.27644  22706829.297                    22706838.719
 110427118.178 8  86047179.201 7  21013579.203                    21013587.688
 123203483.799 7  96002767.317 6  23444845.773                    23444856.152
 111933988.868 7  87221423.12646  21300297.250                    21300303.598
 106433312.569 8  82935144.330 8  20253553.328                    20253561.539
 114368665.346 8  89118513.633 7  21763635.672                    21763646.828
 115315248.839 7  89856109.31645  21943760.672                    21943770.438
 128568379.108 6 100183133.76943  24465700.602                    24465711.938
 11  8 27  1 23 30.0000000  0  9G26G10G12G29G02G05G25G30G04
 128575929.707 6 100189115.98843  24467187.328                    24467200.707
 119419486.978 6  93054286.08544  22724750.047                    22724759.422
 110464480.877 8  86076292.980 7  21020689.094                    21020697.426
 123119501.370 6  95937326.556 6  23428864.469                    23428874.137
 111966283.333 8  87246587.64746  21306442.617                    21306449.496
 106433716.826 8  82935459.351 8  20253630.320                    20253638.465
 114340807.341 8  89096806.122 7  21758334.641                    21758345.918
 115291401.315 7  89837526.85445  21939222.672                    21939232.219
 128645848.352 6 100243499.39543  24480441.766                    24480454.500
 11  8 27  1 24  0.0000000  0  9G26G10G12G29G02G05G25G30G04
 128481944.412 6 100115880.92343  24449301.859                    24449314.859
 119513944.627 6  93127889.40944  22742724.320                    22742734.172
 110502375.263 8  86105821.058 7  21027900.156                    21027908.434
 123035512.174 7  95871880.484 6  23412882.273                    23412891.512
 111998677.068 8  87271829.52446  21312606.859                    21312613.645
 106434689.102 8  82936216.985 8  20253815.117                    20253823.371
 114313514.643 8  89075539.086 7  21753140.820                    21753152.066
 115268149.045 7  89819408.22245  21934797.992                    21934807.508
 128723256.025 6 100303817.03043  24495172.523                    24495183.930
 11  8 27  1 24 30.0000000  0  9G26G10G12G29G02G05G25G30G04
 128387878.628 6 100042583.11543  24431402.094                    24431414.371
 119608685.167 6  93201713.16744  22760753.297                    22760763.285
 110540800.105 8  86135762.468 7  21035212.344                    21035220.402
 122951517.738 6  95806430.338 6  23396897.828                    23396908.367
 112031169.885 8  87297148.60646  21318789.938                    21318796.469
 106436229.114 8  82937417.015 8  20254108.000                    20254116.250
 114286788.416 7  89054713.471 7  21748055.000                    21748065.781
 115245492.888 7  89801754.10245  21930486.266                    21930496.117
 128800601.864 6 100364086.46543  24509890.969                    24509902.875
 11  8 27  1 25  0.0000000  0  9G26G10G12G29G02G05G25G30G04
 128293735.051 6  99969224.72643  24413486.586                    24413499.230
 119703705.184 6  93275754.68944  22778834.680                    22778844.453
 110579753.213 8  86166115.529 7  21042624.617                    21042633.137
 122867519.237 6  95740977.048 6  23380913.891                    23380923.426
 112063760.938 8  87322544.22946  21324991.883                    21324998.566
 106438335.325 8  82939058.245 8  20254508.930                    20254517.047
 114260629.073 7  89034329.576 7  21743077.156                    21743087.930
 115223432.934 7  89784564.54945  21926288.461                    21926297.594
 128877885.524 6 100424307.47442  24524597.313                    24524609.086
 11  8 27  1 25 30.0000000  0  9G26G10G12G29G02G05G25G30G04
 128199516.542 7  99895807.94443  24395557.000                    24395569.801
 119799001.659 6  93350011.63744  22796969.438                    22796978.914
 110619232.677 8  86196878.729 7  21050137.242                    21050145.938
 122783518.094 6  95675521.661 6  23364928.633                    23364938.480
 112096449.277 8  87348015.66846  21331212.492                    21331218.695
 106441006.933 8  82941140.036 8  20255017.344                    20255025.652
 114235037.013 8  89014387.718 7  21738206.836                    21738217.918
 115201969.278 7  89767839.64045  21922204.516                    21922213.715
 128955106.666 6 100484479.75042  24539292.266                    24539303.586
 11  8 27  1 26  0.0000000  0  9G26G10G12G29G02G05G25G30G04
 128105226.771 6  99822335.59343  24377614.664                    24377627.203
 119894572.354 6  93424482.26644  22815155.313                    22815165.219
 110659237.757 8  86228051.507 7  21057750.141                    21057758.387
 122699515.702 7  95610065.317 6  23348943.867                    23348953.676
 112129235.358 7  87373563.26446  21337451.258                    21337458.051
 106444244.381 8  82943662.740 8  20255633.273                    20255641.629
 114210013.744 8  88994889.070 7  21733445.172                    21733456.391
 115181103.087 7  89751580.29645  21918233.586                    21918243.363
 129032265.588 6 100544603.52342  24553975.281                    24553986.660
 11  8 27  1 26 30.0000000  0  9G26G10G12G29G02G05G25G30G04
 128010868.568 6  99748809.92243  24359659.492                    24359671.012
 119990413.909 7  93499163.94544  22833393.672                    22833403.508
 110699766.038 8  86259631.963 7  21065462.305                    21065471.078
 122615513.412 7  95544609.043 6  23332958.906                    23332967.957
 112162118.110 8  87399186.19146  21343708.992                    21343715.477
 106448045.959 8  82946625.020 8  20256356.609                    20256364.891
 114185559.454 8  88975833.788 7  21728791.836                    21728803.129
 115160834.221 8  89735786.39145  21914376.586                    21914386.023
 129109361.679 6 100604678.37142  24568645.641                    24568657.879
 11  8 27  1 27  0.0000000  0  9G26G10G12G29G02G05G25G30G04
 127916444.826 6  99675233.17543  24341690.258                    24341702.676
 120086523.569 7  93574054.54144  22851682.664                    22851691.898
 110740815.948 8  86291618.891 7  21073273.688                    21073282.617
 122531512.765 6  95479154.041 6  23316974.195                    23316983.070
 112195097.278 7  87424884.25446  21349984.445                    21349991.082
 106452411.321 8  82950026.615 8  20257187.578                    20257195.734
 114161674.903 8  88957222.456 7  21724246.461                    21724257.660
 115141163.178 7  89720458.32945  21910632.883                    21910642.645
 129186395.168 6 100664704.43542  24583304.313                    24583316.480
 11  8 27  1 27 30.0000000  0  9G26G10G12G29G02G05G25G30G04
 127821958.724 6  99601607.86843  24323709.945                    24323722.348
 120182898.478 7  93649151.84344  22870022.547                    22870032.020
 110782385.843 8  86324011.012 7  21081184.352                    21081192.691
 122447515.176 7  95413701.438 6  23300989.859                    23300999.313
 112228172.370 8  87450657.05646  21356278.664                    21356285.066
 106457339.263 8  82953866.581 8  20258125.258                    20258133.500
 114138360.597 8  88939055.463 7  21719809.734                    21719820.785
 115122090.107 7  89705596.20545  21907003.695                    21907013.043
 129263365.511 6 100724681.28242  24597951.773                    24597963.691
 11  8 27  1 28  0.0000000  0  9G26G10G12G29G02G05G25G30G04
 127727413.127 6  99527936.15343  24305718.008                    24305731.188
 120279535.587 7  93724453.44444  22888411.930                    22888421.652
 110824473.747 8  86356806.745 7  21089193.266                    21089201.789
 122363522.055 7  95348252.297 6  23285005.914                    23285015.766
 112261342.746 7  87476504.10346  21362590.500                    21362596.738
 106462829.053 8  82958144.355 8  20259169.750                    20259178.070
 114115617.090 8  88921333.240 7  21715482.188                    21715492.988
 115103615.160 8  89691200.16145  21903487.891                    21903497.328
 129340272.715 6 100784608.97242  24612586.328                    24612598.434
 11  8 27  1 28 30.0000000  0  9G26G10G12G29G02G05G25G30G04
 127632811.537 6  99454220.79543  24287715.344                    24287728.402
 120376432.374 7  93799957.39444  22906851.008                    22906860.551
 110867078.230 8  86390005.028 7  21097300.789                    21097309.441
 122279534.796 7  95282807.753 6  23269024.180                    23269033.078
 112294608.001 7  87502425.08646  21368920.711                    21368927.480
 106468880.269 8  82962859.602 8  20260321.523                    20260329.434
 114093445.155 8  88904056.416 7  21711262.703                    21711274.102
 115085738.842 8  89677270.57345  21900086.492                    21900095.340
 129417116.671 6 100844487.38842  24627210.156                    24627220.895
 11  8 27  1 29  0.0000000  0  9G26G10G12G29G02G05G25G30G04
 127538156.935 6  99380464.13643  24269703.328                    24269715.945
 120473586.067 7  93875661.52744  22925338.359                    22925348.254
 110910197.279 8  86423604.261 7  21105506.164                    21105514.938
 122195555.178 7  95217369.103 6  23253043.172                    23253052.680
 112327968.086 8  87528419.95446  21375269.094                    21375275.402
 106475492.162 8  82968011.741 8  20261579.492                    20261587.844
 114071845.528 8  88887225.535 7  21707152.664                    21707163.469
 115068461.533 8  89663807.73645  21896798.523                    21896808.051
 129493897.352 6 100904316.41943  24641820.523                    24641832.465
 11  8 27  1 29 30.0000000  0  9G26G10G12G29G02G05G25G30G04
 127443452.181 6  99306668.42143  24251681.789                    24251694.266
 120570993.303 7  93951563.23144  22943874.633                    22943884.344
 110953829.012 8  86457602.988 7  21113809.117                    21113817.754
 122111584.376 6  95151937.387 6  23237064.211                    23237073.613
 112361422.145 8  87554488.05446  21381634.758                    21381641.109
 106482663.364 8  82973599.701 8  20262944.133                    20262952.176
 114050818.317 8  88870840.685 7  21703151.328                    21703162.465
 115051782.985 8  89650811.47145  21893624.500                    21893634.113
 129570614.474 6 100964096.01143  24656419.414                    24656430.941
 11  8 27  1 30  0.0000000  0  9G26G10G12G29G02G05G25G30G04
 127348700.629 6  99232836.21443  24233651.453                    24233663.523
 120668651.665 6  94027660.59244  22962458.125                    22962467.898
 110997971.419 8  86491999.649 7  21122209.047                    21122217.676
 122027624.094 7  95086513.838 6  23221086.219                    23221095.938
 112394969.909 8  87580629.17546  21388019.070                    21388025.418
 106490393.022 8  82979622.827 8  20264415.055                    20264423.309
 114030364.245 8  88854902.441 7  21699259.102                    21699269.938
 115035703.564 8  89638282.05045  21890564.883                    21890574.078
 129647267.824 6 101023825.86843  24671006.836                    24671018.379
 11  8 27  1 30 30.0000000  0  8G26G10G12G29G02G05G25G30
 127253906.106 7  99158970.50743  24215612.375                    24215624.215
 120766558.436 7  94103951.56244  22981089.484                    22981099.461
 111042623.408 8  86526793.383 7  21130705.969                    21130714.453
 121943675.955 6  95021099.740 6  23205111.828                    23205121.449
 112428611.617 8  87606843.48046  21394420.734                    21394426.914
 106498681.257 8  82986081.211 8  20265992.469                    20266000.496
 114010484.361 8  88839411.634 7  21695476.125                    21695487.285
 115020224.050 7  89626220.08145  21887619.438                    21887628.691
 11  8 27  1 31  0.0000000  0  8G26G10G12G29G02G05G25G30
 127159070.701 6  99085072.95243  24197565.125                    24197578.395
 120864710.179 7  94180433.39644  22999766.852                    22999776.254
 111087782.187 8  86561982.022 7  21139299.406                    21139307.664
 121859740.991 7  94955695.955 6  23189139.273                    23189149.340
 112462345.735 8  87633129.81046  21400840.117                    21400846.609
 106507525.664 8  82992972.967 8  20267675.453                    20267683.527
 113991178.209 7  88824367.875 7  21691802.156                    21691812.898
 115005343.550 8  89614624.88745  21884788.063                    21884797.195
 11  8 27  1 31 30.0000000  0  8G26G10G12G29G02G05G25G30
 127064198.024 7  99011146.36543  24179511.680                    24179524.160
 120963104.123 6  94257103.94744  23018491.359                    23018500.277
 111133446.191 8  86597564.340 7  21147989.188                    21147997.527
 121775820.715 7  94890303.603 6  23173170.258                    23173179.563
 112496172.431 8  87659488.26746  21407277.195                    21407283.621
 106516925.732 8  83000297.713 8  20269464.281                    20269472.273
 113972446.426 8  88809771.687 7  21688237.633                    21688248.301
 114991062.391 8  89603496.70645  21882070.117                    21882078.965
 11  8 27  1 32  0.0000000  0  8G26G10G12G29G02G05G25G30
 126969291.103 7  98937193.06343  24161451.008                    24161463.367
 121061737.299 7  94333960.92244  23037260.039                    23037270.148
 111179613.580 8  86633538.910 7  21156774.477                    21156782.730
 121691916.926 7  94824924.072 6  23157203.273                    23157213.457
 112530091.104 8  87685918.40346  21413731.617                    21413737.988
 106526880.554 8  83008054.734 8  20271358.438                    20271366.578
 113954289.524 8  88795623.455 7  21684782.266                    21684793.359
 114977380.819 8  89592835.73345  21879466.625                    21879476.016
 11  8 27  1 32 30.0000000  0  8G26G10G12G29G02G05G25G30
 126874353.097 7  98863215.59244  24143385.203                    24143397.820
 121160606.970 6  94411002.17444  23056074.492                    23056084.602
 111226281.993 8  86669903.898 7  21165655.289                    21165663.895
 121608030.928 7  94759558.444 7  23141240.453                    23141250.375
 112564101.356 8  87712419.89346  21420203.500                    21420209.996
 106537388.905 8  83016243.070 8  20273358.320                    20273366.328
 113936707.796 8  88781923.412 7  21681436.828                    21681447.773
 114964298.665 8  89582641.85245  21876977.242                    21876986.422
 11  8 27  1 33  0.0000000  0  8G26G10G12G29G02G05G25G30
 126779387.485 7  98789216.57643  24125313.727                    24125326.191
 121259710.408 7  94488225.59844  23074932.906                    23074943.410
 111273450.240 8  86706658.350 7  21174631.281                    21174639.801
 121524164.520 7  94694208.029 6  23125281.016                    23125290.836
 112598203.249 8  87738992.80446  21426693.102                    21426699.445
 106548450.376 8  83024862.429 8  20275463.039                    20275471.262
 113919701.851 8  88768672.039 7  21678200.797                    21678211.594
 114951816.220 8  89572915.26445  21874602.141                    21874611.145
 11  8 27  1 33 30.0000000  0  8G26G10G12G29G02G05G25G30
 126684397.353 7  98715198.47443  24107237.453                    24107250.254
 121359044.286 7  94565628.58544  23093836.227                    23093845.680
 111321116.159 8  86743800.616 7  21183701.227                    21183710.160
 121440319.064 7  94628874.002 6  23109325.742                    23109335.820
 112632396.056 8  87765636.55946  21433199.617                    21433206.234
 106560063.396 8  83033911.557 8  20277672.977                    20277680.766
 113903271.700 8  88755869.334 7  21675074.086                    21675085.117
 114939933.155 8  89563655.73545  21872340.594                    21872349.746
 11  8 27  1 34  0.0000000  0  8G26G10G12G29G02G05G25G30
 126589385.949 7  98641163.78443  24089157.828                    24089169.996
 121458606.181 7  94643209.23844  23112781.938                    23112791.723
 111369276.973 8  86781328.497 7  21192866.344                    21192874.309
 121356496.182 7  94563557.500 6  23093374.719                    23093384.035
 112666679.229 8  87792350.72546  21439723.750                    21439729.879
 106572226.960 8  83043389.676 8  20279987.492                    20279995.613
 113887417.707 8  88743515.593 7  21672057.523                    21672068.441
 114928649.479 7  89554863.26145  21870193.523                    21870202.613
 11  8 27  1 34 30.0000000  0  8G26G10G12G29G02G05G25G30
 126494356.066 6  98567114.71243  24071073.680                    24071085.605
 121558393.018 7  94720965.18044  23131770.766                    23131780.203
 111417930.585 8  86819240.382 7  21202124.648                    21202133.398
 121272697.357 7  94498259.774 7  23077428.531                    23077438.461
 112701052.317 8  87819134.95846  21446264.734                    21446270.863
 106584939.653 8  83053295.685 8  20282406.633                    20282414.879
 113872139.966 8  88731610.873 7  21669149.766                    21669160.879
 114917964.968 8  89546537.68345  21868159.961                    21868169.277
 11  8 27  1 35  0.0000000  0  8G26G10G12G29G02G05G25G30
 126399311.481 6  98493054.15243  24052987.180                    24052999.234
 121658402.142 7  94798894.33444  23150801.992                    23150811.301
 111467075.770 8  86857535.320 7  21211476.898                    21211485.422
 121188924.500 7  94432982.297 6  23061487.125                    23061496.543
 112735515.417 8  87845989.31346  21452822.711                    21452829.406
 106598201.082 8  83063629.293 8  20284930.305                    20284938.625
 113857439.146 8  88720155.701 7  21666352.156                    21666363.320
 114907879.810 7  89538679.10945  21866240.688                    21866250.609
 11  8 27  1 35 30.0000000  0  8G26G10G12G29G02G05G25G30
 126304255.325 6  98418984.61643  24034898.469                    24034910.469
 121758630.748 7  94876994.52944  23169874.672                    23169884.746
 111516710.503 8  86896211.716 7  21220922.000                    21220930.398
 121105178.945 7  94367726.064 6  23045550.492                    23045560.516
 112770068.339 8  87872913.67846  21459398.008                    21459404.074
 106612009.696 8  83074389.272 8  20287558.055                    20287566.051
 113843315.298 8  88709150.102 7  21663664.617                    21663675.852
 114898393.733 8  89531287.36645  21864435.875                    21864445.152
 11  8 27  1 36  0.0000000  0  8G26G10G12G29G02G05G25G30
 126209190.783 6  98344908.52143  24016807.203                    24016819.449
 121859076.116 7  94955263.61044  23188989.141                    23188998.645
 111566832.268 8  86935267.618 7  21230460.070                    21230468.535
 121021462.271 7  94302492.357 7  23029620.000                    23029629.836
 112804710.361 8  87899907.47046  21465990.320                    21465996.535
 106626364.427 8  83085574.792 8  20290289.867                    20290297.785
 113829768.621 8  88698594.275 7  21661086.906                    21661097.746
 114889506.661 7  89524362.38645  21862744.719                    21862753.992
 11  8 27  1 36 30.0000000  0  8G26G10G12G29G02G05G25G30
 126114121.363 6  98270828.63743  23998716.820                    23998728.922
 121959735.049 7  95033699.10543  23208143.531                    23208152.891
 111617438.867 8  86974701.314 7  21240089.961                    21240098.074
 120937776.140 7  94237282.427 6  23013694.617                    23013704.445
 112839441.201 8  87926970.47446  21472599.086                    21472605.156
 106641264.079 8  83097184.928 8  20293124.828                    20293132.891
 113816799.195 8  88688488.238 7  21658618.867                    21658630.094
 114881218.251 8  89517903.90745  21861167.445                    21861176.863
 11  8 27  1 37  0.0000000  0  8G26G10G12G29G02G05G25G30
 126019049.806 6  98196747.08343  23980625.398                    23980637.250
 122060604.751 7  95112298.87644  23227338.383                    23227348.547
 111668528.417 8  87014511.342 7  21249812.156                    21249820.980
 120854122.129 7  94172097.550 6  22997775.953                    22997785.422
 112874260.255 8  87954102.20346  21479225.133                    21479231.422
 106656707.071 8  83109218.447 8  20296063.406                    20296071.336
 113804407.045 8  88678832.033 7  21656260.688                    21656271.879
 114873528.154 8  89511911.63345  21859703.859                    21859713.090
 11  8 27  1 37 30.0000000  0  8G26G10G12G29G02G05G25G30
 125923979.602 6  98122666.56443  23962533.648                    23962544.980
 122161682.243 7  95191060.52843  23246573.047                    23246582.305
 111720098.361 8  87054695.683 7  21259625.570                    21259634.172
 120770501.735 7  94106938.868 6  22981863.516                    22981873.055
 112909167.499 8  87981302.65646  21485867.531                    21485873.949
 106672692.088 8  83121674.311 8  20299105.539                    20299113.512
 113792592.236 8  88669625.704 7  21654012.523                    21654023.555
 114866436.043 8  89506385.31945  21858354.211                    21858363.535
 11  8 27  1 38  0.0000000  0  8G26G10G12G29G02G05G25G30
 125828914.225 6  98048589.82043  23944443.000                    23944455.555
 122262965.156 7  95269982.26643  23265846.289                    23265856.320
 111772146.956 8  87095253.020 7  21269530.148                    21269538.645
 120686916.904 7  94041807.876 6  22965957.484                    22965967.258
 112944162.557 8  88008571.54746  21492527.031                    21492533.457
 106689218.467 8  83134552.025 8  20302250.258                    20302258.328
 113781355.031 8  88660869.448 7  21651874.047                    21651885.164
 114859941.852 7  89501324.92445  21857118.609                    21857128.184
 11  8 27  1 38 30.0000000  0  8G26G10G12G29G02G05G25G30
 125733856.806 6  97974519.25743  23926353.789                    23926366.215
 122364450.479 7  95349061.69143  23285158.797                    23285168.621
 111824671.773 8  87136181.420 7  21279525.039                    21279533.883
 120603369.046 7  93976705.719 6  22950058.930                    22950068.332
 112979245.328 8  88035908.77246  21499202.781                    21499209.289
 106706284.532 8  83147850.267 8  20305497.773                    20305505.766
 113770695.465 8  88652563.286 7  21649845.625                    21649856.320
 114854045.187 7  89496730.13645  21855996.305                    21856005.883
 11  8 27  1 39  0.0000000  0  8G26G10G12G29G02G05G25G30
 125638810.936 6  97900457.67643  23908267.484                    23908279.289
 122466135.434 7  95428296.69844  23304508.477                    23304518.270
 111877671.055 8  87177479.550 7  21289610.750                    21289619.184
 120519860.010 7  93911633.790 6  22934167.820                    22934177.336
 113014415.746 8  88063314.28446  21505895.727                    21505902.020
 106723889.384 8  83161568.344 8  20308847.664                    20308855.742
 113760613.858 8  88644707.496 7  21647927.109                    21647938.305
 114848746.114 8  89492601.00245  21854987.633                    21854997.383
 11  8 27  1 39 30.0000000  0  8G26G10G12G29G02G05G25G30
 125543779.663 6  97826407.51843  23890183.797                    23890195.465
 122568017.274 7  95507685.12544  23323896.000                    23323905.480
 111931142.626 8  87219145.682 7  21299785.914                    21299794.520
 120436391.713 7  93846593.642 6  22918284.258                    22918293.488
 113049673.204 8  88090787.62246  21512605.172                    21512611.637
 106742031.718 8  83175705.230 8  20312300.258                    20312308.359
 113751110.097 8  88637301.972 7  21646118.555                    21646129.707
 114844044.001 8  89488937.02045  21854093.078                    21854102.371
 11  8 27  1 40  0.0000000  0  8G26G10G12G29G02G05G25G30
 125448766.445 7  97752371.37643  23872103.234                    23872114.672
 122670093.001 7  95587224.63844  23343320.648                    23343330.496
 111985083.905 7  87261177.821 7  21310050.570                    21310059.168
 120352965.567 7  93781586.328 6  22902408.844                    22902418.602
 113085017.325 8  88118328.48946  21519330.563                    21519337.074
 106760709.988 8  83190259.732 8  20315854.563                    20315862.637
 113742183.972 8  88630346.545 7  21644420.242                    21644430.957
 114839938.365 7  89485737.82545  21853311.992                    21853321.285
 11  8 27  1 40 30.0000000  0  8G26G10G12G29G02G05G25G30
 125353774.494 6  97678351.83443  23854026.492                    23854038.348
 122772359.906 7  95666913.10044  23362781.648                    23362790.984
 112039492.838 7  87303574.369 7  21320404.766                    21320412.879
 120269582.986 7  93716612.933 6  22886541.555                    22886550.535
 113120447.843 8  88145936.67346  21526072.719                    21526079.648
 106779922.632 8  83205230.634 8  20319510.828                    20319518.676
 113733835.316 8  88623841.088 7  21642831.375                    21642842.363
 114836428.580 8  89483002.94345  21852643.977                    21852653.207
 11  8 27  1 41  0.0000000  0  8G26G10G12G29G02G05G25G30
 125258807.302 6  97604351.58843  23835954.086                    23835966.582
 122874815.153 7  95746748.33644  23382278.047                    23382287.906
 112094366.777 7  87346333.255 7  21330846.836                    21330854.977
 120186245.960 7  93651675.067 7  22870682.727                    22870692.516
 113155964.604 8  88173612.05746  21532831.859                    21532837.918
 106799668.505 8  83220617.033 8  20323268.078                    20323276.109
 113726064.310 8  88617785.751 7  21641352.063                    21641363.652
 114833514.451 7  89480732.18545  21852089.797                    21852098.609
 11  8 27  1 41 30.0000000  0  8G26G10G12G29G02G05G25G30
 125163868.387 6  97530373.36444  23817888.141                    23817900.070
 122977456.278 7  95826728.39844  23401809.805                    23401819.953
 112149703.810 7  87389453.004 7  21341376.789                    21341385.711
 120102956.374 7  93586774.182 6  22854833.539                    22854842.906
 113191567.737 8  88201354.73646  21539606.641                    21539613.258
 106819946.496 8  83236418.073 8  20327126.523                    20327135.031
 113718871.071 8  88612180.624 7  21639983.813                    21639994.836
 114831195.795 7  89478925.45345  21851648.250                    21851657.570
 11  8 27  1 42  0.0000000  0  8G26G10G12G29G02G05G25G30
 125068960.673 6  97456419.43143  23799828.328                    23799839.871
 123080279.990 7  95906850.78144  23421376.305                    23421386.266
 112205501.233 7  87432931.492 7  21351994.852                    21352003.250
 120019715.580 7  93521911.273 6  22838993.172                    22839002.418
 113227256.241 8  88229163.94346  21546397.367                    21546404.688
 106840754.482 8  83252632.093 8  20331086.125                    20331094.293
 113712254.943 8  88607025.184 7  21638724.719                    21638735.953
 114829471.471 7  89477581.81745  21851320.078                    21851329.520
 11  8 27  1 42 30.0000000  0  8G26G10G12G29G02G05G25G30
 124974087.522 6  97382492.46243  23781774.141                    23781786.160
 123183283.982 7  95987113.58944  23440977.438                    23440987.527
 112261756.811 7  87476766.989 7  21362700.000                    21362708.293
 119936525.286 7  93457087.750 7  22823162.359                    22823172.051
 113263030.395 8  88257039.89246  21553205.555                    21553212.289
 106862091.209 8  83269258.117 8  20335146.664                    20335154.980
 113706215.838 8  88602319.377 7  21637575.391                    21637586.539
 114828341.058 8  89476700.96545  21851105.422                    21851114.426
 11  8 27  1 43  0.0000000  0  8G26G10G12G29G02G05G25G30
 124879252.429 6  97308595.13143  23763727.063                    23763738.969
 123286465.120 7  96067514.44744  23460612.539                    23460622.184
 112318468.346 7  87520957.777 7  21373491.742                    21373500.305
 119853387.272 7  93392304.951 7  22807341.820                    22807351.332
 113298889.533 8  88284982.04046  21560029.156                    21560035.773
 106883955.199 8  83286295.000 8  20339307.477                    20339315.219
 113700753.567 8  88598063.048 7  21636536.016                    21636547.020
 114827804.059 8  89476282.50545  21851003.203                    21851012.152
 11  8 27  1 43 30.0000000  0  8G26G10G12G29G02G05G25G30
 124784459.173 6  97234730.41343  23745689.000                    23745700.012
 123389820.847 7  96148051.35943  23480279.727                    23480290.285
 112375633.921 7  87565502.363 7  21384369.867                    21384378.535
 119770303.733 7  93327564.586 6  22791531.594                    22791540.531
 113334834.148 8  88312990.81046  21566869.539                    21566876.141
 106906345.757 8  83303742.201 8  20343567.938                    20343576.078
 113695868.513 8  88594256.491 7  21635606.594                    21635617.500
 114827860.308 8  89476326.32845  21851013.859                    21851023.066
 11  8 27  1 44  0.0000000  0  8G26G10G12G29G02G05G25G30
 124689711.010 6  97160900.81044  23727658.211                    23727670.363
 123493348.276 7  96228722.04143  23499981.297                    23499991.320
 112433251.071 7  87610398.826 7  21395334.289                    21395342.969
 119687276.272 7  93262867.933 7  22775732.047                    22775741.395
 113370863.795 8  88341065.82746  21573725.609                    21573732.059
 106929261.062 8  83321598.292 8  20347928.570                    20347936.895
 113691560.200 8  88590899.343 7  21634786.852                    21634798.180
 114828509.007 8  89476831.79245  21851137.461                    21851146.418
 11  8 27  1 44 30.0000000  0  9G26G10G12G29G02G05G25G30G15
 124595011.278 6  97087108.93144  23709638.234                    23709649.527
 123597044.874 7  96309524.53343  23519713.469                    23519723.418
 112491316.904 8  87655644.914 7  21406383.555                    21406392.617
 119604306.576 7  93198216.283 7  22759943.273                    22759952.676
 113406977.920 8  88369206.67746  21580597.547                    21580604.652
 106952699.494 8  83339862.007 8  20352388.586                    20352396.492
 113687828.171 8  88587991.251 7  21634076.453                    21634087.938
 114829749.336 8  89477798.26445  21851372.984                    21851382.195
 129422773.82116 100848951.50116  24628339.227                    24628352.332
 11  8 27  1 45  0.0000000  0  9G26G10G12G29G02G05G25G30G15
 124500362.746 6  97013356.94844  23691626.195                    23691638.313
 123700907.252 7  96390456.21243  23539477.766                    23539488.191
 112549828.881 7  87701238.660 7  21417518.219                    21417526.969
 119521395.876 7  93133610.617 7  22744166.031                    22744175.137
 113443176.138 7  88397413.06146  21587485.781                    21587492.648
 106976658.740 8  83358531.566 8  20356948.328                    20356956.035
 113684671.724 8  88585531.666 7  21633476.117                    21633487.105
 114831580.180 7  89479224.89045  21851721.938                    21851731.000
 129329764.239 6 100776476.795 5  24610639.461                    24610652.855
 11  8 27  1 45 30.0000000  0  9G26G10G12G29G02G05G25G30G15
 124405769.521 7  96939648.06344  23673626.438                    23673638.078
 123804933.062 7  96471515.26243  23559273.375                    23559283.445
 112608784.868 8  87747178.375 7  21428737.406                    21428745.832
 119438546.330 7  93069052.567 7  22728400.289                    22728409.430
 113479458.423 7  88425684.95446  21594390.289                    21594397.230
 107001137.970 8  83377606.299 8  20361606.250                    20361614.422
 113682091.002 8  88583520.707 7  21632984.703                    21632995.723
 114834001.288 7  89481111.45745  21852182.242                    21852191.266
 129236620.985 6 100703897.918 6  24592914.727                    24592928.387
 11  8 27  1 46  0.0000000  0  9G26G10G12G29G02G05G25G30G15
 124311234.813 7  96865984.76444  23655636.703                    23655647.652
 123909119.725 7  96552699.63143  23579099.234                    23579109.129
 112668182.578 8  87793462.296 7  21440040.117                    21440048.316
 119355759.879 7  93004543.703 7  22712646.227                    22712655.973
 113515825.009 8  88454022.52046  21601310.953                    21601317.664
 107026135.485 8  83397084.887 8  20366363.211                    20366371.016
 113680085.722 8  88581958.141 7  21632603.188                    21632614.363
 114837012.005 7  89483457.44545  21852755.352                    21852764.539
 129143346.771 6 100631217.010 5  24575165.109                    24575178.848
 11  8 27  1 46 30.0000000  0  9G26G10G12G29G02G05G25G30G15
 124216762.488 7  96792370.07444  23637659.422                    23637670.391
 124013464.699 7  96634007.37443  23598955.961                    23598965.793
 112728019.725 8  87840088.631 7  21451426.656                    21451435.082
 119273038.301 7  92940085.385 7  22696904.508                    22696913.688
 113552275.487 8  88482425.48146  21608246.938                    21608253.695
 107051649.916 8  83416966.284 8  20371218.352                    20371226.633
 113678655.577 8  88580843.737 7  21632331.094                    21632342.020
 114840611.604 7  89486262.31445  21853440.430                    21853449.648
 129049944.077 6 100558435.967 5  24557390.844                    24557404.883
 11  8 27  1 47  0.0000000  0  9G26G10G12G29G02G05G25G30G15
 124122355.919 7  96718806.61243  23619694.445                    23619705.313
 124117964.929 7  96715436.07943  23618842.133                    23618851.441
 112788293.596 7  87887055.264 7  21462896.578                    21462904.918
 119190383.718 7  92875679.257 7  22681175.758                    22681185.359
 113588809.925 7  88510893.85046  21615199.484                    21615206.086
 107077679.909 8  83437249.402 8  20376171.641                    20376179.684
 113677800.324 8  88580177.292 7  21632168.508                    21632179.551
 114844799.459 7  89489525.56945  21854236.961                    21854246.629
 128956415.596 6 100485556.944 5  24539592.836                    24539606.199
 11  8 27  1 47 30.0000000  0  9G26G10G12G29G02G05G25G30G15
 124028018.437 7  96645296.95743  23601742.117                    23601752.645
 124222617.873 7  96796983.79443  23638756.234                    23638767.031
 112849002.277 8  87934360.706 7  21474449.195                    21474457.465
 119107797.934 7  92811326.751 6  22665460.336                    22665469.984
 113625428.215 8  88539427.57745  21622167.617                    21622174.094
 107104223.661 8  83457932.868 8  20381222.641                    20381230.633
 113677519.494 8  88579958.462 7  21632115.195                    21632126.117
 114849574.776 8  89493246.58545  21855145.656                    21855155.219
 128862763.453 6 100412581.514 5  24521771.945                    24521784.547
 11  8 27  1 48  0.0000000  0  9G26G10G12G29G02G05G25G30G15
 123933753.122 6  96571843.55943  23583804.234                    23583814.680
 124327420.622 7  96878648.23943  23658699.633                    23658709.297
 112910142.373 8  87982002.331 7  21486083.672                    21486092.262
 119025282.419 7  92747028.987 6  22649758.000                    22649767.586
 113662129.792 8  88568026.19946  21629151.578                    21629158.281
 107131278.925 8  83479014.903 8  20386371.531                    20386379.629
 113677812.276 8  88580186.609 7  21632170.758                    21632182.141
 114854936.224 7  89497424.33845  21856166.172                    21856174.945
 128768990.263 6 100339511.822 5  24503926.516                    24503940.055
 11  8 27  1 48 30.0000000  0  9G26G10G12G29G02G05G25G30G15
 123839563.959 6  96498449.48643  23565880.648                    23565890.992
 124432370.869 7  96960427.59644  23678671.227                    23678681.363
 112971712.185 8  88029978.785 7  21497800.289                    21497808.352
 118942839.391 7  92682787.687 7  22634070.266                    22634078.934
 113698914.566 8  88596689.65545  21636151.391                    21636157.867
 107158844.802 8  83500494.820 8  20391616.742                    20391624.930
 113678678.601 8  88580861.656 7  21632335.453                    21632346.656
 114860883.433 8  89502058.52045  21857297.875                    21857307.125
 128675098.417 6 100266349.681 5  24486058.914                    24486072.090
 11  8 27  1 49  0.0000000  0  9G26G10G12G29G02G05G25G30G15
 123745454.328 6  96425117.41843  23547971.375                    23547983.199
 124537465.892 7  97042319.79044  23698670.031                    23698680.449
 113033708.741 8  88078287.767 7  21509597.570                    21509605.750
 118860470.411 7  92618604.103 7  22618395.492                    22618405.078
 113735782.918 8  88625418.22946  21643167.125                    21643174.035
 107186919.446 8  83522371.192 8  20396959.188                    20396967.316
 113680117.938 8  88581983.225 7  21632609.320                    21632620.953
 114867415.447 7  89507148.39745  21858541.156                    21858550.148
 128581090.465 6 100193097.026 5  24468170.422                    24468183.277
 11  8 27  1 49 30.0000000  0  9G26G10G12G29G02G05G25G30G15
 123651427.616 6  96351849.94843  23530079.086                    23530090.238
 124642702.817 7  97124322.53544  23718695.984                    23718706.316
 113096129.728 8  88126927.477 7  21521475.891                    21521484.547
 118778177.176 7  92554479.526 6  22602736.016                    22602745.070
 113772734.366 7  88654211.56445  21650199.070                    21650205.953
 107215501.021 8  83544642.561 8  20402398.063                    20402406.367
 113682129.600 8  88583550.753 7  21632992.211                    21633003.453
 114874531.209 7  89512693.15545  21859894.969                    21859904.605
 128486969.318 6 100119756.196 6  24450258.547                    24450272.293
 11  8 27  1 50  0.0000000  0  9G26G10G12G29G02G05G25G30G15
 123557487.308 6  96278649.83644  23512202.875                    23512213.867
 124748078.965 6  97206433.74443  23738748.594                    23738759.258
 113158972.237 7  88175895.650 7  21533434.594                    21533443.270
 118695961.708 7  92490415.551 7  22587090.258                    22587099.461
 113809768.813 8  88683069.57645  21657246.047                    21657252.953
 107244587.847 8  83567307.641 8  20407933.336                    20407941.516
 113684713.047 8  88585563.832 7  21633483.875                    21633495.074
 114882229.759 8  89518692.01645  21861359.656                    21861369.109
 128392737.286 6 100046328.927 6  24432327.234                    24432339.672
 11  8 27  1 50 30.0000000  0  9G26G10G12G29G02G05G25G30G15
 123463636.991 7  96205519.81044  23494343.633                    23494355.512
 124853591.933 6  97288651.57843  23758826.594                    23758837.039
 113222234.031 8  88225190.529 7  21545473.047                    21545481.676
 118613826.342 7  92426413.980 6  22571460.648                    22571469.395
 113846886.398 7  88711992.36645  21664309.992                    21664316.539
 107274178.546 8  83590365.339 8  20413563.578                    20413572.176
 113687867.847 8  88588022.117 7  21634084.234                    21634095.328
 114890510.214 7  89525144.32045  21862935.555                    21862944.887
 128298396.470 6  99972816.931 6  24414373.945                    24414387.680
 11  8 27  1 51  0.0000000  0  9G26G10G12G29G02G05G25G30G15
 123369880.074 7  96132462.59144  23476502.102                    23476513.148
 124959238.515 6  97370973.51543  23778930.977                    23778941.543
 113285912.412 8  88274810.025 7  21557590.625                    21557599.328
 118531772.512 7  92362475.972 7  22555846.453                    22555855.680
 113884086.385 7  88740979.36145  21671388.836                    21671395.633
 107304270.784 8  83613813.851 8  20419290.383                    20419298.422
 113691593.203 8  88590924.997 7  21634793.195                    21634804.645
 114899371.425 8  89532049.15445  21864622.289                    21864631.000
 128203949.797 6  99899222.406 6  24396400.930                    24396415.063
 11  8 27  1 51 30.0000000  0  9G26G10G12G29G02G05G25G30G15
 123276219.978 7  96059480.78744  23458678.906                    23458690.340
 125065016.248 6  97453397.62643  23799059.477                    23799070.063
 113350004.736 7  88324752.083 7  21569786.727                    21569795.500
 118449802.170 7  92298603.022 7  22540247.820                    22540256.895
 113921368.687 7  88770030.51045  21678483.133                    21678489.883
 107334862.696 8  83637651.728 8  20425112.039                    20425119.828
 113695888.453 8  88594271.948 7  21635610.211                    21635621.492
 114908812.325 8  89539405.71645  21866418.328                    21866427.695
 128109399.465 6  99825547.122 6  24378408.836                    24378421.902
 11  8 27  1 52  0.0000000  0  9G26G10G12G29G02G05G25G30G15
 123182660.652 7  95986577.53644  23440875.516                    23440886.840
 125170922.851 6  97535922.19643  23819213.453                    23819223.805
 113414508.849 7  88375015.009 7  21582061.602                    21582070.313
 118367917.411 7  92234796.744 7  22524665.844                    22524674.328
 113958733.784 7  88799146.16645  21685593.453                    21685600.254
 107365953.467 8  83661878.310 8  20431028.195                    20431036.434
 113700753.366 8  88598062.792 7  21636536.063                    21636547.234
 114918832.268 7  89547213.46045  21868324.758                    21868334.809
 128014748.638 6  99751793.554 6  24360397.656                    24360410.367
 11  8 27  1 52 30.0000000  0  9G26G10G12G29G02G05G25G30G15
 123089205.095 7  95913755.12544  23423091.625                    23423102.148
 125276955.455 6  97618544.93843  23839390.516                    23839401.277
 113479421.722 7  88425596.446 7  21594414.000                    21594422.801
 118286119.864 7  92171058.441 7  22509100.016                    22509109.773
 113996181.289 7  88828326.03146  21692719.430                    21692726.184
 107397540.631 8  83686491.697 8  20437038.906                    20437047.148
 113706186.825 8  88602296.663 7  21637570.125                    21637581.102
 114929429.782 7  89555471.25745  21870342.031                    21870351.531
 127919999.521 6  99677963.375 6  24342366.992                    24342379.633
 11  8 27  1 53  0.0000000  0  9G26G10G12G29G02G05G25G30G15
 122995856.885 7  95841016.35644  23405327.719                    23405338.996
 125383111.317 7  97701263.75143  23859591.359                    23859601.793
 113544740.623 7  88476494.276 7  21606843.719                    21606852.449
 118204411.493 7  92107389.646 7  22493551.055                    22493560.527
 114033710.647 7  88857569.67045  21699861.664                    21699867.707
 107429622.104 8  83711490.264 8  20443144.133                    20443152.023
 113712188.024 8  88606972.936 7  21638711.992                    21638723.051
 114940603.626 7  89564178.15445  21872467.969                    21872477.570
 127825154.633 6  99604058.575 6  24324318.320                    24324331.086
 11  8 27  1 53 30.0000000  0  9G26G10G12G29G02G05G25G30G15
 122902619.742 7  95768364.14244  23387584.734                    23387596.086
 125489387.706 7  97784076.47443  23879815.359                    23879825.617
 113610463.177 7  88527706.636 7  21619350.359                    21619359.211
 118122794.211 7  92043791.801 7  22478020.352                    22478029.301
 114071322.607 7  88886877.68345  21707018.695                    21707024.926
 107462196.287 7  83736872.750 8  20449342.602                    20449350.375
 113718756.529 8  88612091.263 7  21639962.141                    21639972.977
 114952352.972 8  89573333.47645  21874703.875                    21874713.121
 127730216.845 6  99530081.381 6  24306252.211                    24306264.754
 11  8 27  1 54  0.0000000  0  9G26G10G12G29G02G05G25G30G15
 122809497.095 7  95695801.15244  23369864.602                    23369875.324
 125595782.296 7  97866981.29643  23900061.375                    23900071.988
 113676586.565 7  88579231.343 7  21631933.219                    21631942.141
 118041270.270 7  91980266.710 7  22462506.477                    22462516.066
 114109016.721 8  88916249.71345  21714191.492                    21714198.039
 107495261.517 8  83762637.880 8  20455634.461                    20455642.500
 113725891.496 8  88617650.977 7  21641319.867                    21641330.641
 114964676.551 8  89582936.26245  21877049.023                    21877058.441
 127635188.418 7  99456033.564 6  24288168.305                    24288180.984
 11  8 27  1 54 30.0000000  0  9G26G10G12G29G02G05G25G30G15
 122716492.773 7  95623330.34044  23352166.109                    23352177.254
 125702292.622 6  97949976.31143  23920329.969                    23920339.938
 113743108.338 7  88631066.471 7  21644591.969                    21644600.715
 117959841.534 7  91916815.800 7  22447010.828                    22447020.070
 114146793.229 8  88945685.94845  21721380.297                    21721386.797
 107528816.258 8  83788784.440 8  20462020.125                    20462028.195
 113733592.367 8  88623651.673 7  21642785.148                    21642796.375
 114977573.378 8  89592985.73845  21879503.328                    21879512.781
 127540072.237 6  99381917.359 6  24270068.406                    24270081.109
 11  8 27  1 55  0.0000000  0  9G26G10G12G29G02G05G25G30G15
 122623610.378 7  95550954.56144  23334491.422                    23334501.660
 125808915.710 6  98033059.21443  23940619.484                    23940629.809
 113810025.933 7  88683210.036 7  21657325.977                    21657335.141
 117878509.882 7  91853440.545 7  22431534.016                    22431543.605
 114184651.849 7  88975186.16345  21728584.797                    21728590.926
 107562858.321 7  83815310.732 8  20468498.023                    20468506.223
 113741858.194 8  88630092.578 7  21644357.852                    21644369.176
 114991042.210 8  89603480.92945  21882066.305                    21882075.727
 127444870.918 6  99307734.832 6  24251952.180                    24251964.434
 11  8 27  1 55 30.0000000  0  9G26G10G12G29G02G05G25G30G15
 122530853.312 7  95478676.41744  23316840.203                    23316850.203
 125915649.186 6  98116228.10743  23960929.844                    23960939.914
 113877336.456 7  88735659.763 7  21670134.633                    21670143.078
 117797277.251 7  91790142.443 7  22416075.625                    22416085.262
 114222592.629 8  89004750.39945  21735804.516                    21735811.043
 107597385.681 8  83842215.186 8  20475068.180                    20475076.641
 113750688.173 8  88636973.094 7  21646038.258                    21646049.578
 115005081.770 8  89614420.85445  21884738.102                    21884747.328
 127349586.924 6  99233487.840 5  24233818.758                    24233831.691
 11  8 27  1 56  0.0000000  0  9G26G10G12G29G02G05G25G30G15
 122438225.109 7  95406498.70144  23299213.531                    23299224.031
 126022490.399 6  98199480.96243  23981261.484                    23981271.512
 113945037.124 7  88788413.524 7  21683017.781                    21683026.090
 117716145.766 7  91726923.151 7  22400637.094                    22400646.340
 114260615.511 7  89034378.60945  21743040.125                    21743046.215
 107632396.761 8  83869496.552 8  20481730.742                    20481738.156
 113760081.413 8  88644292.509 7  21647826.133                    21647836.898
 115019690.798 8  89625804.50845  21887518.211                    21887527.203
 127254223.110 6  99159178.657 5  24215672.125                    24215684.453
 11  8 27  1 56 30.0000000  0  9G26G10G12G29G02G05G25G30G15
 122345729.447 7  95334424.25043  23281611.906                    23281622.227
 126129436.945 6  98282815.94343  24001612.875                    24001622.969
 114013125.482 7  88841469.372 7  21695975.055                    21695983.703
 117635117.637 7  91663784.410 7  22385218.172                    22385227.102
 114298720.356 7  89064070.68345  21750290.555                    21750297.047
 107667889.862 7  83897153.524 8  20488484.930                    20488492.906
 113770037.196 8  88652050.262 7  21649720.445                    21649731.617
 115034868.154 8  89637631.03745  21890406.461                    21890415.359
 127158782.101 6  99084809.312 6  24197510.047                    24197521.922
 11  8 27  1 57  0.0000000  0  9G26G10G12G29G02G05G25G30G15
 122253369.497 7  95262455.54544  23264036.492                    23264046.922
 126236486.044 6  98366230.71043  24021983.063                    24021994.559
 114081598.452 7  88894824.922 7  21709004.430                    21709013.438
 117554194.351 7  91600727.342 7  22369818.734                    22369828.121
 114336907.196 7  89093826.65445  21757557.641                    21757564.359
 107703862.340 7  83925184.043 8  20495330.250                    20495338.254
 113780554.194 8  88660245.323 7  21651722.000                    21651732.652
 115050612.188 8  89649899.11945  21893402.117                    21893411.094
 127063266.273 6  99010381.650 6  24179333.953                    24179345.867
 11  8 27  1 57 30.0000000  0  9G26G10G12G29G02G05G25G30G15
 122161149.042 6  95190595.55044  23246486.945                    23246497.375
 126343635.111 6  98449723.43343  24042373.820                    24042383.887
 114150453.243 7  88948477.987 7  21722107.297                    21722115.879
 117473377.900 7  91537753.534 7  22354439.969                    22354448.973
 114375175.798 8  89123646.33645  21764840.273                    21764846.285
 107740312.401 8  83953586.693 8  20502266.234                    20502274.289
 113791631.574 8  88668877.039 7  21653829.891                    21653840.930
 115066921.481 8  89662607.67345  21896506.000                    21896514.836
 126967678.394 7  98935897.839 5  24161143.883                    24161155.707
 11  8 27  1 58  0.0000000  0  9G26G10G12G29G02G05G25G30G15
 122069071.528 7  95118846.95444  23228965.289                    23228975.504
 126450881.641 6  98533292.06543  24062781.773                    24062791.715
 114219687.162 7  89002426.486 7  21735282.266                    21735290.691
 117392670.308 7  91474864.537 7  22339081.727                    22339090.469
 114413526.006 8  89153529.61745  21772137.688                    21772144.324
 107777237.970 8  83982359.872 8  20509292.984                    20509301.078
 113803268.259 8  88677944.588 7  21656044.133                    21656054.980
 115083794.685 8  89675755.62645  21899716.516                    21899725.438
 126872021.227 7  98861360.034 6  24142940.680                    24142952.453
 11  8 27  1 58 30.0000000  0  9G26G10G12G29G02G05G25G30G15
 121977140.727 7  95047212.63744  23211471.969                    23211481.762
 126558222.946 6  98616934.56643  24083208.422                    24083218.457
 114289297.949 7  89056668.651 7  21748528.602                    21748537.207
 117312073.946 7  91412062.215 7  22323744.398                    22323753.539
 114451958.452 7  89183476.98345  21779451.297                    21779457.645
 107814637.282 8  84011502.209 8  20516409.742                    20516417.969
 113815463.557 8  88687447.405 7  21658364.938                    21658375.828
 115101230.652 8  89689342.11245  21903034.594                    21903043.719
 126776297.211 7  98786770.118 6  24124724.688                    24124736.891
 11  8 27  1 59  0.0000000  0  9G26G10G12G29G02G05G25G30G15
 121885360.741 7  94975695.85544  23194006.844                    23194017.027
 126665656.565 6  98700648.99543  24103651.688                    24103662.434
 114359282.907 7  89111202.375 7  21761846.188                    21761854.734
 117231590.845 7  91349348.167 7  22308429.469                    22308438.586
 114490473.171 7  89213488.44945  21786780.406                    21786787.012
 107852508.708 8  84041012.427 8  20523616.297                    20523624.508
 113828216.607 8  88697384.832 7  21660791.727                    21660802.875
 115119228.229 8  89703366.20645  21906459.375                    21906468.363
 126680509.577 7  98712130.635 6  24106497.180                    24106508.996
 11  8 27  1 59 30.0000000  0  9G26G10G12G29G02G05G25G30G15
 121793734.798 7  94904299.09844  23176571.039                    23176580.871
 126773180.248 6  98784433.61343  24124113.766                    24124123.875
 114429638.721 7  89166025.066 7  21775234.453                    21775242.754
 117151223.073 7  91286723.964 7  22293135.797                    22293144.781
 114529070.091 7  89243563.96745  21794125.195                    21794131.766
 107890850.410 8  84070889.088 8  20530912.836                    20530920.477
 113841526.358 8  88707756.058 7  21663324.234                    21663335.508
 115137785.838 8  89717826.69245  21909990.773                    21909999.504
 126584660.933 7  98637443.641 6  24088257.477                    24088269.480
 11  8 27  2  0  0.0000000  0  9G26G10G12G29G02G05G25G30G15
 121702266.124 7  94833024.90844  23159164.531                    23159174.895
 126880791.025 6  98868286.11343  24144591.719                    24144601.445
 114500362.698 7  89221134.639 7  21788693.031                    21788701.512
 117070972.370 7  91224191.007 7  22277864.805                    22277873.484
 114567748.449 8  89273702.95245  21801485.313                    21801491.430
 107929659.637 8  84101130.045 8  20538297.891                    20538305.926
 113855391.269 8  88718559.883 7  21665962.758                    21665973.973
 115156901.589 8  89732722.07945  21913627.797                    21913637.609
 126488753.783 7  98562711.027 6  24070006.711                    24070019.078
 11  8 27  2  0 30.0000000  0  9G26G10G12G29G02G05G25G30G15
 121610958.869 7  94761876.48244  23141789.641                    23141799.625
 126988486.766 6  98952204.80543  24165085.953                    24165095.391
 114571452.323 7  89276529.143 7  21802220.859                    21802229.297
 116990840.912 7  91161750.943 7  22262616.336                    22262625.211
 114606509.083 7  89303906.04345  21808861.531                    21808867.742
 107968934.861 8  84131734.132 8  20545771.656                    20545779.832
 113869810.662 8  88729795.755 7  21668706.828                    21668717.941
 115176574.375 8  89748051.53345  21917371.953                    21917381.000
 126392790.797 6  98487934.921 6  24051745.625                    24051756.984
 11  8 27  2  1  0.0000000  0  9G26G10G12G29G02G05G25G30G15
 121519816.004 7  94690856.17644  23124445.406                    23124455.734
 127096264.727 6  99036187.60043  24185594.734                    24185604.082
 114642904.136 7  89332205.851 7  21815817.625                    21815826.129
 116910830.722 7  91099405.400 7  22247390.656                    22247399.633
 114645351.552 8  89334172.90845  21816252.375                    21816259.168
 108008673.491 8  84162699.312 8  20553333.570                    20553341.383
 113884783.048 8  88741462.543 7  21671556.070                    21671566.516
 115196802.278 8  89763813.52445  21921221.086                    21921230.242
 126296774.587 6  98413117.332 6  24033473.492                    24033485.797
 11  8 27  2  1 30.0000000  0  9G26G10G12G29G02G05G25G30G15
 121428841.912 7  94619967.37144  23107133.586                    23107144.031
 127204122.917 6  99120232.91043  24206119.109                    24206128.984
 114714716.277 7  89388163.348 7  21829482.820                    21829491.344
 116830943.790 7  91037155.898 7  22232188.695                    22232197.172
 114684276.248 8  89364503.84545  21823659.766                    21823666.137
 108048874.099 8  84194024.467 8  20560983.430                    20560991.539
 113900307.776 8  88753559.732 7  21674509.922                    21674521.344
 115217584.252 8  89780007.25345  21925175.703                    21925185.227
 126200708.014 6  98338260.540 6  24015192.734                    24015204.695
 11  8 27  2  2  0.0000000  0  9G26G10G12G29G02G05G25G30G15
 121338039.768 7  94549212.54344  23089854.484                    23089864.777
 127312058.488 6  99204338.57442  24226659.188                    24226668.191
 114786885.491 7  89444399.077 7  21843216.406                    21843225.105
 116751182.440 7  90975004.246 7  22217010.414                    22217019.684
 114723283.084 7  89394898.77945  21831082.633                    21831088.914
 108089534.230 8  84225707.697 8  20568721.133                    20568728.992
 113916383.397 8  88766086.189 7  21677568.984                    21677580.434
 115238918.469 8  89796631.30145  21929235.258                    21929244.375
 126104593.786 6  98263366.568 6  23996902.875                    23996914.129
 11  8 27  2  2 30.0000000  0  9G26G10G12G29G02G05G25G30G15
 121247413.303 7  94478594.63544  23072608.359                    23072618.973
 127420069.065 6  99288502.64442  24247212.398                    24247222.020
 114859408.494 7  89500910.475 7  21857016.875                    21857025.684
 116671548.657 7  90912952.012 7  22201856.727                    22201865.492
 114762372.190 7  89425357.82145  21838520.969                    21838527.730
 108130652.122 7  84257747.623 8  20576545.008                    20576553.250
 113933008.853 8  88779041.083 7  21680733.086                    21680744.086
 115260803.467 8  89813684.54545  21933400.281                    21933409.035
 126008434.666 6  98188437.623 6  23978604.844                    23978615.395
 11  8 27  2  3  0.0000000  0  9G26G10G12G29G02G05G25G30G15
 121156966.223 7  94408116.50644  23055397.242                    23055407.023
 127528152.182 6  99372723.19842  24267780.422                    24267790.086
 114932282.975 8  89557695.766 7  21870884.531                    21870893.133
 116592044.406 7  90851000.715 7  22186727.250                    22186736.266
 114801543.557 8  89455880.97345  21845975.078                    21845981.746
 108172225.510 8  84290142.473 8  20584456.523                    20584464.336
 113950182.831 8  88792423.410 7  21684000.930                    21684012.094
 115283237.604 8  89831165.67645  21937669.273                    21937678.402
 125912233.484 6  98113475.896 6  23960297.430                    23960309.180
 11  8 27  2  3 30.0000000  0  9G26G10G12G29G02G05G25G30G15
 121066701.909 7  94337780.79244  23038219.867                    23038230.195
 127636305.229 5  99456998.26442  24288360.469                    24288371.223
 115005505.629 7  89614752.344 7  21884818.492                    21884827.156
 116512671.780 7  90789151.961 7  22171623.156                    22171632.004
 114840797.032 7  89486468.09045  21853444.867                    21853451.434
 108214252.065 7  84322890.455 8  20592453.734                    20592461.555
 113967903.982 8  88806232.117 7  21687373.258                    21687384.281
 115306219.066 8  89849073.30845  21942042.719                    21942051.730
 125815992.872 7  98038483.391 6  23941983.953                    23941995.227
 11  8 27  2  4  0.0000000  0  9G26G10G12G29G02G05G25G30G15
 120976624.347 7  94267590.60344  23021078.805                    23021088.863
 127744525.866 6  99541325.94942  24308953.984                    24308965.484
 115079073.953 8  89672078.283 7  21898818.125                    21898826.582
 116433433.018 7  90727407.529 7  22156544.461                    22156553.156
 114880132.776 7  89517119.31745  21860930.328                    21860936.324
 108256730.014 8  84355990.152 8  20600537.313                    20600545.156
 113986171.240 8  88820466.353 7  21690849.453                    21690860.641
 115329746.409 8  89867406.29445  21946519.531                    21946529.133
 125719715.685 7  97963462.422 6  23923662.570                    23923673.402
 11  8 27  2  4 30.0000000  0  9G26G10G12G29G02G05G25G30G15
 120886737.185 7  94197548.78444  23003973.570                    23003983.473
 127852811.763 6  99625704.50843  24329560.609                    24329571.301
 115152985.467 7  89729671.655 7  21912882.977                    21912891.672
 116354330.358 7  90665769.135 7  22141491.719                    22141500.738
 114919551.416 7  89547835.13745  21868431.125                    21868437.652
 108299657.531 8  84389440.174 8  20608706.203                    20608713.758
 114004983.388 8  88835125.179 7  21694429.266                    21694439.879
 115353818.045 8  89886163.39645  21951100.273                    21951109.902
 125623404.991 7  97888415.289 6  23905334.898                    23905345.848
 11  8 27  2  5  0.0000000  0  9G26G10G12G29G02G05G25G30G15
 120797043.705 7  94127657.84644  22986905.633                    22986915.777
 127961160.301 6  99710131.90543  24350178.984                    24350189.055
 115227236.632 8  89787529.695 7  21927012.516                    21927021.055
 116275365.816 7  90604238.372 7  22126465.445                    22126474.156
 114959052.306 7  89578615.03845  21875947.766                    21875954.629
 108343031.860 8  84423238.363 8  20616959.961                    20616968.031
 114024338.864 8  88850207.381 7  21698112.633                    21698123.891
 115378432.004 8  89905343.11245  21955784.250                    21955793.039
 125527063.110 7  97813343.846 5  23887002.336                    23887011.688
 11  8 27  2  5 30.0000000  0  9G26G10G12G29G02G05G25G30G15
 120707547.842 7  94057920.92544  22969874.922                    22969884.707
 128069569.136 6  99794606.25843  24370808.695                    24370819.281
 115301824.897 7  89845650.401 7  21941206.477                    21941215.004
 116196541.558 7  90542816.917 7  22111465.578                    22111474.320
 114998635.829 8  89609459.34145  21883480.680                    21883486.867
 108386851.219 8  84457383.327 8  20625298.594                    20625306.770
 114044236.628 8  88865712.158 7  21701898.984                    21701909.996
 115403586.865 8  89924944.30145  21960570.859                    21960580.113
 125430693.109 7  97738250.493 6  23868662.953                    23868673.578
 11  8 27  2  6  0.0000000  0  9G26G10G12G29G02G05G25G30G15
 120618253.313 7  93988340.86844  22952882.789                    22952893.094
 128178035.717 6  99879125.61943  24391448.625                    24391459.461
 115376747.367 8  89904031.522 7  21955463.531                    21955472.246
 116117859.717 7  90481506.440 7  22096492.711                    22096501.563
 115038302.260 8  89640368.24445  21891028.961                    21891035.375
 108431113.374 8  84491873.330 8  20633721.789                    20633729.426
 114064675.249 8  88881638.360 7  21705788.156                    21705799.684
 115429280.725 8  89944965.50545  21965460.227                    21965469.633
 125334297.767 6  97663137.434 6  23850319.461                    23850329.762
 11  8 27  2  6 30.0000000  0  9G26G10G12G29G02G05G25G30G15
 120529163.812 7  93918920.56544  22935929.820                    22935939.848
 128286557.855 6  99963688.28843  24412100.258                    24412110.547
 115452001.286 8  89962670.913 7  21969783.828                    21969792.359
 116039322.482 7  90420308.609 7  22081547.977                    22081556.828
 115078051.643 8  89671341.77945  21898592.859                    21898599.543
 108475816.381 8  84526706.846 8  20642228.148                    20642235.914
 114085653.434 8  88897985.008 7  21709780.320                    21709791.328
 115455511.957 7  89965405.43345  21970452.375                    21970461.172
 125237880.095 6  97588006.953 6  23831971.227                    23831981.941
 11  8 27  2  7  0.0000000  0  9G26G10G12G29G02G05G25G30G15
 120440282.827 7  93849662.76144  22919015.852                    22919026.305
 128395133.317 6 100048292.50043  24432761.375                    24432771.730
 115527583.784 8  90021566.353 7  21984166.813                    21984175.289
 115960932.059 7  90359225.213 7  22066630.203                    22066639.191
 115117884.250 7  89702380.16145  21906172.984                    21906179.102
 108520958.019 8  84561882.147 8  20650818.328                    20650826.172
 114107169.728 8  88914750.966 7  21713874.703                    21713885.781
 115482278.762 8  89986262.70645  21975545.219                    21975554.430
 125141442.770 6  97512861.165 6  23813620.438                    23813630.035
 11  8 27  2  7 30.0000000  0  9G26G10G12G29G02G05G25G30G15
 120351613.936 7  93780570.21744  22902142.625                    22902153.336
 128503759.656 6 100132936.34143  24453431.984                    24453443.020
 115603491.416 8  90080715.130 7  21998611.344                    21998620.246
 115882690.259 7  90298257.593 7  22051741.625                    22051750.266
 115157799.758 8  89733483.14745  21913768.391                    21913775.047
 108566535.812 8  84597397.328 8  20659491.172                    20659499.418
 114129222.479 8  88931934.938 7  21718070.852                    21718082.172
 115509578.991 7  90007535.63245  21980740.602                    21980749.453
 125044988.435 6  97437702.103 6  23795265.008                    23795276.293
 11  8 27  2  8  0.0000000  0  9G26G10G12G29G02G05G25G30G15
 120263160.744 7  93711645.75244  22885310.617                    22885320.238
 128612434.458 6 100217617.96143  24474112.805                    24474122.641
 115679721.462 8  90140115.169 7  22013117.734                    22013126.375
 115804599.437 7  90237407.622 7  22036881.547                    22036890.027
 115197798.539 7  89764651.00945  21921379.891                    21921386.398
 108612547.684 8  84633250.741 8  20668246.789                    20668254.543
 114151810.404 8  88949535.931 7  21722369.242                    21722380.371
 115537411.023 7  90029222.93645  21986036.797                    21986045.492
 124948520.038 6  97362532.102 6  23776907.633                    23776918.898
 11  8 27  2  8 30.0000000  0  9G26G10G12G29G02G05G25G30G15
 120174926.903 7  93642892.20745  22868520.156                    22868530.484
 128721155.409 6 100302335.52342  24494801.672                    24494811.988
 115756270.819 8  90199763.987 7  22027684.695                    22027693.344
 115726661.712 8  90176676.948 7  22022050.164                    22022058.738
 115237880.508 8  89795883.69645  21929007.125                    21929014.098
 108658991.211 8  84669440.507 8  20677084.945                    20677092.484
 114174931.844 8  88967552.648 7  21726769.063                    21726780.297
 115565772.795 8  90051323.03645  21991433.883                    21991443.328
 124852040.075 6  97287353.098 6  23758547.586                    23758558.980
 11  8 27  2  9  0.0000000  0  9G26G10G12G29G02G05G25G30G15
 120086916.581 7  93574312.83744  22851772.078                    22851782.492
 128829920.137 6 100387087.20742  24515499.008                    24515508.977
 115833137.162 8  90259659.821 7  22042311.961                    22042320.953
 115648879.371 7  90116067.349 7  22007248.883                    22007257.430
 115278045.780 7  89827181.29345  21936650.148                    21936656.977
 108705864.544 8  84705965.197 7  20686004.492                    20686012.340
 114198585.526 8  88985984.092 7  21731270.133                    21731281.660
 115594662.632 8  90073834.61345  21996931.273                    21996940.742
 124755551.840 7  97212167.640 6  23740186.320                    23740197.168
 11  8 27  2  9 30.0000000  0  9G26G10G12G29G02G05G25G30G15
 119999132.491 7  93505909.76044  22835067.273                    22835077.836
 128938725.937 6 100471870.93542  24536203.086                    24536214.461
 115910317.173 8  90319800.082 7  22056998.555                    22057007.180
 115571254.247 7  90055580.265 7  21992476.891                    21992486.098
 115318294.632 7  89858544.01645  21944309.719                    21944316.152
 108753164.826 8  84742822.557 7  20695005.523                    20695013.492
 114222769.581 8  89004828.810 7  21735872.156                    21735883.613
 115624078.318 8  90096755.94145  22002529.016                    22002538.000
 124659057.998 7  97136977.794 6  23721824.641                    23721835.926
 11  8 27  2 10  0.0000000  0  9G26G10G12G29G02G05G25G30G15
 119911579.333 7  93437686.60944  22818406.320                    22818416.742
 129047570.776 6 100556685.06942  24556916.000                    24556926.820
 115987808.217 8  90380182.695 7  22071744.656                    22071753.172
 115493789.101 7  89995217.828 7  21977735.844                    21977744.773
 115358627.654 7  89889972.32645  21951984.695                    21951991.641
 108800890.692 8  84780011.548 8  20704087.656                    20704095.461
 114247483.064 8  89024086.078 7  21740575.234                    21740586.449
 115654018.540 7  90120085.98945  22008226.602                    22008235.762
 124562561.849 7  97061786.160 6  23703461.859                    23703472.578
 11  8 27  2 10 30.0000000  0  9G26G10G12G29G02G05G25G30G15
 119824260.403 7  93369645.99744  22801790.359                    22801800.258
 129156452.261 6 100641527.72943  24577635.586                    24577645.699
 116065606.958 8  90440805.063 7  22086549.250                    22086557.953
 115416486.163 8  89934981.803 7  21963025.563                    21963034.539
 115399044.687 8  89921466.09545  21959675.742                    21959682.543
 108849039.676 8  84817530.249 8  20713249.875                    20713257.840
 114272724.175 8  89043754.482 7  21745378.688                    21745389.395
 115684481.055 8  90143823.02345  22014023.320                    22014032.160
 124466066.028 7  96986594.791 6  23685099.188                    23685110.082
 11  8 27  2 11  0.0000000  0  8G26G12G29G02G05G25G30G15
 119737180.872 7  93301791.92344  22785218.867                    22785229.168
 116143712.051 8  90501666.168 7  22101412.180                    22101421.063
 115339349.177 8  89874875.068 7  21948347.078                    21948355.934
 115439547.352 7  89953026.59445  21967383.313                    21967390.004
 108897611.188 8  84855378.190 8  20722492.781                    20722500.695
 114298492.884 8  89063833.997 7  21750282.047                    21750293.086
 115715465.426 7  90167966.70145  22019919.367                    22019928.277
 124369574.872 7  96911407.069 6  23666737.523                    23666748.273
 11  8 27  2 11 30.0000000  0  8G26G12G29G02G05G25G30G15
 119650342.948 7  93234126.11344  22768694.820                    22768704.738
 116222118.888 8  90562762.392 7  22116332.563                    22116341.445
 115262378.385 8  89814897.885 7  21933699.992                    21933708.711
 115480134.341 7  89984652.79245  21975106.945                    21975113.598
 108946601.000 8  84893552.082 8  20731815.375                    20731822.980
 114324785.944 8  89084322.094 7  21755285.609                    21755296.375
 115746968.065 7  90192514.21945  22025914.102                    22025923.172
 124273089.540 7  96836223.869 6  23648376.539                    23648386.691
 11  8 27  2 12  0.0000000  0  8G26G12G29G02G05G25G30G15
 119563749.597 7  93166650.87044  22752216.461                    22752226.484
 116300824.112 8  90624091.116 7  22131309.469                    22131318.164
 115185575.624 8  89755051.604 7  21919085.102                    21919093.469
 115520805.191 7  90016344.35445  21982845.992                    21982853.020
 108996006.170 8  84932049.620 7  20741216.703                    20741224.871
 114351601.137 8  89105217.039 7  21760388.305                    21760398.926
 115778986.338 7  90217463.51945  22032006.680                    22032015.723
 124176612.624 7  96761047.237 6  23630017.344                    23630027.461
 11  8 27  2 12 30.0000000  0  9G26G21G12G29G02G05G25G30G15
 119477404.955 7  93099369.42044  22735785.500                    22735795.406
 132360579.15216 103138295.14253  25187415.281                    25187425.773
 116379825.217 7  90685650.402 7  22146343.008                    22146351.867
 115108943.741 8  89695338.497 7  21904502.617                    21904511.414
 115561560.381 7  90048101.63545  21990601.523                    21990608.121
 109045825.159 8  84970869.629 8  20750697.164                    20750705.180
 114378937.162 8  89126517.842 7  21765589.945                    21765601.137
 115811518.637 7  90242813.35945  22038197.922                    22038207.078
 124080147.254 6  96685879.611 6  23611660.219                    23611670.289
 11  8 27  2 13  0.0000000  0  9G26G21G12G29G02G05G25G30G15
 119391312.645 7  93032284.60644  22719402.336                    22719412.391
 132304938.540 6 103094938.94142  25176826.500                    25176838.375
 116459119.006 8  90747437.767 7  22161432.367                    22161441.305
 115032484.668 8  89635760.061 7  21889952.719                    21889961.527
 115602400.280 7  90079924.92945  21998373.328                    21998379.766
 109096055.612 8  85010010.242 8  20760255.547                    20760263.398
 114406792.491 8  89148223.300 7  21770890.703                    21770901.652
 115844562.994 7  90268562.21245  22044486.008                    22044494.973
 123983696.606 6  96610723.456 6  23593306.664                    23593316.176
 11  8 27  2 13 30.0000000  0  9G26G21G12G29G02G05G25G30G15
 119305476.458 7  92965399.35144  22703068.359                    22703077.633
 132249299.047 6 103051583.56843  25166239.891                    25166250.129
 116538702.606 7  90809450.960 7  22176576.508                    22176585.082
 114956200.771 8  89576318.113 7  21875436.188                    21875445.098
 115643325.193 7  90111814.46745  22006160.828                    22006167.730
 109146695.469 8  85049469.879 7  20769892.133                    20769899.598
 114435165.525 8  89170332.152 7  21776290.125                    21776301.164
 115878117.452 7  90294708.54345  22050871.273                    22050880.402
 123887263.328 6  96535580.836 6  23574955.648                    23574965.938
 11  8 27  2 14  0.0000000  0  9G26G21G12G29G02G05G25G30G15
 119219900.398 7  92898716.79044  22686783.844                    22686793.738
 132193659.542 6 103008228.30043  25155651.344                    25155662.789
 116618573.117 7  90871687.717 7  22191775.383                    22191783.969
 114880094.664 8  89517014.724 7  21860953.664                    21860962.551
 115684335.510 7  90143770.56145  22013964.820                    22013971.621
 109197742.755 8  85089246.999 7  20779605.953                    20779613.586
 114464054.588 8  89192843.111 7  21781787.258                    21781798.582
 115912179.996 8  90321250.78945  22057352.375                    22057361.875
 123790850.601 6  96460454.211 6  23556608.945                    23556618.719
 11  8 27  2 14 30.0000000  0  9G26G21G12G29G02G05G25G30G15
 119134587.377 7  92832239.19144  22670549.289                    22670558.863
 132138019.390 6 102964872.49843  25145063.219                    25145074.625
 116698727.368 7  90934145.564 7  22207027.898                    22207036.902
 114804167.947 8  89457851.113 7  21846505.453                    21846514.008
 115725430.990 7  90175793.00945  22021784.898                    22021791.844
 109249194.193 8  85129339.038 7  20789396.883                    20789404.738
 114493457.633 8  89215754.565 7  21787382.758                    21787393.910
 115946748.072 7  90348186.94645  22063931.086                    22063940.297
 123694461.221 6  96385345.816 6  23538266.078                    23538277.211
 11  8 27  2 15  0.0000000  0  9G26G21G12G29G02G05G25G30G15
 119049541.671 7  92765969.89644  22654365.344                    22654375.285
 132082378.255 6 102921515.92643  25134475.039                    25134486.582
 116779162.610 7  90996822.360 7  22222334.625                    22222343.148
 114728423.212 8  89398829.321 7  21832091.227                    21832100.145
 115766612.047 7  90207882.14245  22029621.789                    22029628.703
 109301048.119 8  85169744.703 7  20799264.492                    20799271.895
 114523373.188 8  89239065.389 7  21793075.469                    21793086.359
 115981819.978 8  90375515.70645  22070604.594                    22070614.051
 123598098.133 7  96310257.895 6  23519929.289                    23519939.152
 11  8 27  2 15 30.0000000  0  9G26G21G12G29G02G05G25G30G15
 118964766.452 7  92699911.37244  22638233.461                    22638243.105
 132026735.010 6 102878157.75743  25123886.406                    25123897.207
 116859875.392 7  91059715.442 7  22237693.414                    22237702.520
 114652862.530 8  89339950.945 7  21817712.422                    21817721.227
 115807878.498 7  90240037.81845  22037474.211                    22037481.230
 109353301.219 8  85210461.409 8  20809207.945                    20809215.797
 114553798.947 8  89262773.770 7  21798864.766                    21798876.383
 116017392.931 7  90403234.88445  22077374.398                    22077383.363
 123501763.846 7  96235192.400 6  23501596.758                    23501607.102
 11  8 27  2 16  0.0000000  0  9G26G21G12G29G02G05G25G30G15
 118880266.221 7  92634067.11244  22622153.406                    22622162.777
 131971089.839 6 102834798.09343  25113297.023                    25113308.410
 116940863.641 7  91122823.149 7  22253105.250                    22253113.930
 114577488.914 8  89281218.338 7  21803369.930                    21803377.844
 115849231.433 7  90272260.89345  22045343.148                    22045350.105
 109405953.048 8  85251488.818 7  20819226.773                    20819235.039
 114584734.106 8  89286879.080 7  21804752.266                    21804763.039
 116053465.831 7  90431343.62545  22084238.750                    22084247.695
 123405462.382 7  96160152.499 6  23483271.438                    23483281.492
 11  8 27  2 16 30.0000000  0  9G26G21G12G29G02G05G25G30G15
 118796044.164 7  92568439.62844  22606126.000                    22606135.840
 131915441.796 6 102791436.14943  25102708.281                    25102718.738
 117022123.683 7  91186142.649 7  22268568.477                    22268577.496
 114502304.128 8  89222632.868 7  21789062.023                    21789070.926
 115890670.496 7  90304551.07945  22053229.023                    22053236.215
 109459000.132 8  85292824.213 7  20829321.703                    20829329.375
 114616176.168 8  89311379.391 7  21810735.234                    21810746.633
 116090035.716 7  90459839.63945  22091197.664                    22091206.703
 123309195.971 7  96085139.875 6  23464952.781                    23464962.645
 11  8 27  2 17  0.0000000  0  9G26G21G12G29G02G05G25G30G15
 118712103.903 7  92503031.71045  22590152.867                    22590162.359
 131859790.148 6 102748071.42843  25092117.148                    25092127.848
 117103652.391 7  91249671.517 7  22284082.742                    22284091.250
 114427310.406 8  89164196.284 7  21774791.266                    21774799.898
 115932195.989 7  90336908.61745  22061130.805                    22061137.941
 109512440.032 8  85334465.700 7  20839490.531                    20839498.707
 114648123.338 8  89336273.285 7  21816814.500                    21816825.500
 116127100.543 8  90488721.32845  22098250.695                    22098260.207
 123212967.604 7  96010156.917 6  23446640.719                    23446650.934
 11  8 27  2 17 30.0000000  0  9G26G21G12G29G02G05G25G30G15
 118628449.393 7  92437846.47045  22574233.898                    22574243.793
 131804134.477 6 102704703.55443  25081525.930                    25081537.070
 117185447.146 7  91313407.686 7  22299648.188                    22299656.207
 114352510.202 8  89105910.470 7  21760556.961                    21760565.676
 115973808.398 7  90369333.87245  22069050.023                    22069056.023
 109566270.946 8  85376411.865 7  20849734.398                    20849742.516
 114680574.007 8  89361559.500 7  21822989.766                    21823000.785
 116164658.237 7  90517987.05245  22105397.609                    22105407.070
 123116780.621 7  95935206.173 6  23428336.625                    23428346.449
 11  8 27  2 18  0.0000000  0  9G26G21G12G29G02G05G25G30G15
 118545084.220 7  92372886.69645  22558370.086                    22558379.746
 131748474.191 6 102661332.09443  25070934.367                    25070945.535
 117267504.838 7  91377348.735 7  22315262.852                    22315271.363
 114277905.863 8  89047777.296 7  21746360.336                    21746368.734
 116015507.964 7  90401827.03745  22076985.023                    22076991.957
 109620490.414 8  85418660.807 8  20860052.125                    20860059.992
 114713526.234 8  89387236.557 7  21829260.281                    21829271.508
 116202706.586 7  90547635.10045  22112638.039                    22112647.895
 123020637.578 7  95860289.698 6  23410040.727                    23410051.004
 11  8 27  2 18 30.0000000  0  9G26G21G12G29G02G05G25G30G15
 118462011.963 7  92308155.15145  22542562.039                    22542571.379
 131692808.550 6 102617956.43543  25060341.250                    25060352.324
 117349822.397 7  91441492.276 7  22330927.727                    22330936.141
 114203499.502 8  88989798.385 7  21732201.344                    21732209.957
 116057294.721 7  90434388.15745  22084936.805                    22084943.711
 109675095.731 8  85461210.405 7  20870442.922                    20870451.094
 114746978.002 8  89413302.865 7  21835626.227                    21835637.234
 116241243.134 7  90577663.57945  22119971.430                    22119980.871
 122924541.613 7  95785409.878 6  23391754.336                    23391763.781
 11  8 27  2 19  0.0000000  0  9G26G21G12G29G02G05G25G30G15
 118379236.070 7  92243654.53945  22526809.781                    22526820.195
 131637136.929 6 102574576.08943  25049747.711                    25049758.301
 117432396.220 7  91505835.526 7  22346640.969                    22346649.340
 114129293.160 8  88931975.312 7  21718080.547                    21718089.355
 116099168.801 7  90467017.31245  22092904.758                    22092911.715
 109730084.384 8  85504058.714 7  20880907.391                    20880915.008
 114780927.119 8  89439756.712 7  21842086.219                    21842097.512
 116280265.374 7  90608070.50345  22127397.070                    22127406.309
 122828495.483 7  95710568.903 6  23373476.977                    23373487.328
 11  8 27  2 19 30.0000000  0  9G26G21G12G29G02G05G25G30G15
 118296760.455 7  92179387.91745  22511115.563                    22511124.359
 131581459.079 6 102531190.91442  25039151.898                    25039162.160
 117515223.935 7  91570376.575 7  22362402.031                    22362411.172
 114055289.567 8  88874310.228 7  21703997.953                    21704006.004
 116141130.880 8  90499715.04145  22100890.273                    22100896.949
 109785454.659 8  85547204.374 8  20891444.086                    20891451.789
 114815372.081 8  89466596.935 7  21848640.891                    21848651.965
 116319771.409 7  90638854.42545  22134914.703                    22134924.082
 122732502.500 7  95635769.319 6  23355210.031                    23355220.402
 11  8 27  2 20  0.0000000  0  9G26G21G12G29G02G05G25G30G15
 118214589.063 7  92115358.34245  22495478.961                    22495488.098
 131525774.307 6 102487800.31143  25028555.305                    25028565.477
 117598302.462 7  91635113.092 7  22378211.570                    22378220.535
 113981491.026 8  88816804.923 7  21689954.469                    21689962.859
 116183180.924 8  90532481.31945  22108892.234                    22108898.766
 109841203.960 8  85590645.395 7  20902052.602                    20902060.453
 114850310.919 8  89493821.993 7  21855289.500                    21855300.691
 116359758.919 8  90670013.52445  22142524.070                    22142533.598
 122636565.937 7  95561013.722 6  23336953.703                    23336963.723
 11  8 27  2 20 30.0000000  0  9G26G21G12G29G02G05G25G30G15
 118132725.055 7  92051568.29145  22479900.180                    22479910.207
 131470081.880 6 102444403.74943  25017957.023                    25017967.699
 117681628.423 7  91700042.397 7  22394067.711                    22394076.879
 113907899.930 8  88759461.259 7  21675950.250                    21675958.980
 116225319.140 7  90565316.30345  22116910.703                    22116917.582
 109897329.592 8  85634379.652 7  20912732.836                    20912740.348
 114885741.387 8  89521430.142 7  21862031.602                    21862043.129
 116400225.286 7  90701545.74645  22150224.328                    22150234.180
 122540688.303 7  95486304.024 6  23318708.977                    23318718.746
 11  8 27  2 21  0.0000000  0  9G26G21G12G29G02G05G25G30G15
 118051172.179 7  91988020.69045  22464381.055                    22464390.730
 131414381.046 6 102401000.62843  25007357.734                    25007368.191
 117765198.980 7  91765162.319 7  22409971.258                    22409979.941
 113834518.254 8  88702280.760 7  21661986.438                    21661995.156
 116267546.208 7  90598220.51045  22124946.359                    22124952.945
 109953829.414 8  85678405.493 7  20923483.984                    20923492.215
 114921661.566 8  89549419.887 7  21868867.297                    21868878.551
 116441168.184 7  90733449.29845  22158015.758                    22158025.445
 122444872.675 7  95411642.634 6  23300475.742                    23300485.441
 11  8 27  2 21 30.0000000  0  9G26G21G12G29G02G05G25G30G15
 117969934.118 7  91924718.38645  22448922.203                    22448932.301
 131358671.185 6 102357590.45343  24996756.844                    24996767.469
 117849011.131 7  91830470.485 7  22425919.859                    22425928.805
 113761348.504 8  88645265.415 7  21648062.602                    21648071.094
 116309862.105 7  90631193.92945  22132998.844                    22133005.652
 110010700.708 8  85722720.786 7  20934306.875                    20934314.594
 114958069.240 8  89577789.508 7  21875795.523                    21875806.145
 116482585.173 7  90765722.25945  22165897.313                    22165906.656
 122349122.009 7  95337031.882 6  23282255.320                    23282264.613
 11  8 27  2 22  0.0000000  0  9G26G21G12G29G02G05G25G30G15
 117889014.672 7  91861664.36145  22433523.891                    22433533.137
 131302951.908 6 102314172.94242  24986153.820                    24986163.395
 117933061.706 7  91895964.421 7  22441914.055                    22441923.367
 113688392.840 8  88588416.879 7  21634179.758                    21634188.449
 116352267.125 7  90664236.81345  22141068.055                    22141074.945
 110067941.136 8  85767323.728 7  20945199.313                    20945207.234
 114994962.556 8  89606537.552 7  21882815.961                    21882827.074
 116524473.985 7  90798362.89245  22173868.563                    22173878.051
 122253439.118 7  95262473.940 6  23264047.352                    23264056.227
 11  8 27  2 22 30.0000000  0  9G26G21G12G29G02G05G25G30G15
 117808417.351 7  91798861.32845  22418186.484                    22418195.930
 131247222.792 6 102270747.73442  24975548.164                    24975558.758
 118017347.266 7  91961641.491 7  22457952.766                    22457961.898
 113615653.606 8  88531736.991 7  21620337.711                    21620346.344
 116394761.500 7  90697349.31445  22149154.078                    22149160.969
 110125548.604 8  85812212.657 7  20956161.602                    20956169.340
 115032339.488 8  89635662.427 7  21889928.688                    21889939.836
 116566832.286 7  90831369.35345  22181928.867                    22181938.492
 122157827.149 7  95187971.262 6  23245852.781                    23245862.320
 11  8 27  2 23  0.0000000  0  9G26G21G12G29G02G05G25G30G15
 117728145.591 7  91736311.99844  22402911.594                    22402920.520
 131191483.265 6 102227314.50442  24964941.547                    24964952.422
 118101865.345 7  92027499.727 7  22474036.156                    22474044.879
 113543133.593 8  88475227.915 7  21606537.586                    21606546.273
 116437345.663 7  90730531.78745  22157258.273                    22157264.750
 110183520.708 8  85857385.741 7  20967192.719                    20967201.281
 115070197.753 8  89665162.393 7  21897132.688                    21897143.621
 116609657.347 7  90864739.51845  22190078.586                    22190087.789
 122062289.603 7  95113526.563 6  23227672.656                    23227681.801
 11  8 27  2 23 30.0000000  0  9G26G21G12G29G02G05G25G30G15
 117648203.196 7  91674019.30644  22387699.086                    22387707.129
 131135732.796 6 102183872.71142  24954331.688                    24954342.660
 118186612.688 7  92093536.597 7  22490163.430                    22490172.121
 113470834.344 8  88418890.871 7  21592779.766                    21592787.813
 116480019.689 7  90763784.27545  22165378.953                    22165385.508
 110241854.778 8  85902840.853 7  20978293.828                    20978301.730
 115108535.213 8  89695035.738 7  21904428.398                    21904439.344
 116652946.811 7  90898471.56545  22198316.484                    22198325.164
 121966828.977 7  95039141.794 6  23209506.844                    23209516.199
 11  8 27  2 24  0.0000000  0  9G26G21G12G29G02G05G25G30G15
 117568593.843 7  91611986.12145  22372549.367                    22372558.301
 131079970.601 6 102140421.71443  24943721.320                    24943731.578
 118271586.284 7  92159749.779 7  22506333.586                    22506342.484
 113398758.718 8  88362728.062 7  21579063.938                    21579072.672
 116522784.199 7  90797107.26345  22173516.430                    22173523.094
 110300548.502 8  85948576.242 7  20989463.008                    20989470.813
 115147349.979 8  89725281.002 7  21911814.375                    21911825.297
 116696698.349 7  90932563.67445  22206641.547                    22206650.875
 121871448.444 7  94964819.446 6  23191355.969                    23191365.738
 11  8 27  2 24 30.0000000  0  9G26G21G12G29G02G05G25G30G15
 117489321.746 7  91550215.74345  22357464.453                    22357473.652
 131024196.504 6 102096961.56042  24933107.680                    24933117.496
 118356783.393 7  92226137.127 7  22522545.930                    22522554.441
 113326909.673 8  88306741.838 7  21565391.445                    21565399.637
 116565639.711 7  90830501.15645  22181671.563                    22181678.430
 110359600.362 8  85994590.684 7  21000699.898                    21000708.176
 115186640.328 8  89755896.869 7  21919291.086                    21919302.086
 116740909.953 7  90967014.25845  22215054.906                    22215064.480
 121776151.416 7  94890562.147 6  23173221.883                    23173231.320
 11  8 27  2 25  0.0000000  0  9G26G21G12G29G02G05G25G30G15
 117410389.144 7  91488709.89845  22342444.016                    22342452.844
 130968409.049 6 102053490.95443  24922490.695                    24922501.402
 118442199.877 7  92292695.419 7  22538799.695                    22538808.816
 113255288.462 8  88250933.118 7  21551762.664                    21551771.211
 116608585.802 7  90863965.63745  22189843.797                    22189850.500
 110419005.925 8  86040880.731 7  21012004.523                    21012012.477
 115226402.904 8  89786880.687 7  21926857.391                    21926868.184
 116785577.886 7  91001820.45345  22223554.852                    22223564.168
 121680940.100 7  94816371.649 6  23155103.305                    23155113.289
 11  8 27  2 25 30.0000000  0  9G26G21G12G29G02G05G25G30G15
 117331800.720 7  91427472.25045  22327488.969                    22327498.211
 130912608.234 6 102010009.94442  24911872.727                    24911882.172
 118527833.363 7  92359422.792 7  22555095.852                    22555104.613
 113183897.873 8  88195304.127 7  21538177.070                    21538185.863
 116651623.131 7  90897501.20445  22198033.313                    22198040.719
 110478763.923 8  86087445.413 7  21023376.328                    21023383.820
 115266636.359 8  89818231.423 7  21934513.727                    21934525.031
 116830700.490 8  91036980.91445  22232141.734                    22232151.316
 121585818.115 7  94742250.744 6  23137002.219                    23137011.961
 11  8 27  2 26  0.0000000  0  9G26G21G12G29G02G05G25G30G15
 117253559.847 7  91366505.42345  22312599.688                    22312609.176
 130856793.751 6 101966518.32743  24901250.695                    24901261.047
 118613681.114 7  92426317.137 7  22571431.781                    22571440.836
 113112740.477 8  88139856.839 7  21524636.344                    21524644.426
 116694752.217 8  90931108.28945  22206241.055                    22206247.418
 110538872.084 8  86134282.949 7  21034814.281                    21034821.832
 115307338.532 8  89849947.391 7  21942259.133                    21942270.285
 116876275.251 7  91072493.70645  22240814.266                    22240823.004
 121490788.529 7  94668201.841 6  23118918.234                    23118928.355
 11  8 27  2 26 30.0000000  0  9G26G21G12G29G02G05G25G30G15
 117175670.137 7  91305812.22345  22297777.977                    22297787.777
 130800964.831 6 101923015.40343  24890627.313                    24890637.691
 118699739.718 7  92493375.772 7  22587808.391                    22587817.211
 113041818.452 8  88084592.966 7  21511140.469                    21511148.648
 116737973.390 7  90964787.10645  22214465.563                    22214472.191
 110599327.934 8  86181391.420 7  21046318.844                    21046326.719
 115348506.984 8  89882026.704 7  21950093.070                    21950104.031
 116922299.449 7  91108356.72745  22249572.117                    22249581.383
 121395854.286 7  94594227.212 6  23100853.648                    23100862.371
 11  8 27  2 27  0.0000000  0  9G26G21G12G29G02G05G25G30G15
 117098134.904 7  91245395.23945  22283023.367                    22283032.473
 130745120.639 6 101879500.58143  24880000.164                    24880010.738
 118786005.736 7  92560596.037 7  22604224.031                    22604233.336
 112971133.941 8  88029514.167 7  21497689.297                    21497697.730
 116781286.597 7  90998537.65045  22222707.875                    22222714.594
 110660128.397 8  86228768.410 7  21057888.664                    21057896.293
 115390139.195 8  89914467.381 7  21958015.633                    21958026.875
 116968770.178 7  91144567.68245  22258415.625                    22258424.504
 121301018.230 7  94520329.115 6  23082806.555                    23082815.707
 11  8 27  2 27 30.0000000  0  9G26G21G12G29G02G05G25G30G15
 117020958.121 7  91185257.55045  22268337.469                    22268346.207
 130689261.080 6 101835973.80343  24869370.852                    24869381.273
 118872476.516 7  92627975.840 7  22620679.180                    22620687.969
 112900689.833 8  87974622.706 7  21484284.195                    21484292.344
 116824692.483 8  91032360.39945  22230967.945                    22230974.379
 110721271.866 8  86276412.668 7  21069524.117                    21069531.453
 115432233.558 8  89947268.171 7  21966025.672                    21966037.039
 117015685.503 7  91181125.07845  22267343.375                    22267352.652
 121206283.918 7  94446510.292 6  23064778.891                    23064788.613
 11  8 27  2 28  0.0000000  0  9G26G21G12G29G02G05G25G30G15
 116944143.088 7  91125401.73645  22253720.203                    22253729.191
 130633385.339 6 101792434.37943  24858737.484                    24858747.668
 118959148.942 7  92695512.790 7  22637172.125                    22637181.086
 112830487.772 8  87919919.841 7  21470925.219                    21470933.441
 116868191.191 8  91066255.49645  22239244.836                    22239251.805
 110782755.359 8  86324321.884 7  21081223.633                    21081231.680
 115474787.252 8  89980426.874 7  21974123.719                    21974135.086
 117063042.288 7  91218026.47045  22276354.820                    22276363.824
 121111653.979 7  94372772.807 6  23046771.156                    23046781.328
 11  8 27  2 28 30.0000000  0  9G26G21G12G29G02G05G25G30G15
 116867693.457 7  91065830.67745  22239171.773                    22239181.191
 130577492.730 6 101748881.84943  24848102.063                    24848112.078
 119046019.749 7  92763204.315 7  22653703.273                    22653711.824
 112760530.680 8  87865407.880 7  21457613.195                    21457621.125
 116911783.275 7  91100223.34845  22247540.203                    22247547.031
 110844576.608 8  86372494.289 7  21092987.930                    21092995.793
 115517798.178 8  90013941.877 7  21982308.344                    21982319.543
 117110838.064 7  91255269.92045  22285450.219                    22285459.234
 121017131.729 7  94299119.219 6  23028784.250                    23028793.828
 11  8 27  2 29  0.0000000  0  9G26G21G12G29G02G05G25G30G15
 116791612.816 7  91006547.12845  22224694.188                    22224703.145
 130521582.854 6 101705315.82143  24837462.523                    24837472.465
 119133085.931 7  92831048.082 7  22670271.273                    22670280.152
 112690820.690 8  87811088.462 7  21444347.828                    21444355.875
 116955469.096 8  91134264.23845  22255853.836                    22255860.027
 110906733.121 8  86420927.929 7  21104815.820                    21104823.418
 115561264.024 8  90047811.366 7  21990579.531                    21990590.613
 117159070.230 7  91292853.43745  22294628.156                    22294637.664
 120922719.924 7  94225551.678 6  23010818.250                    23010827.445
 11  8 27  2 29 30.0000000  0  9G26G21G12G29G02G05G25G30G15
 116715905.111 7  90947554.18045  22210287.336                    22210296.547
 130465655.150 6 101661735.92843  24826820.297                    24826829.035
 119220344.524 7  92899041.777 7  22686876.516                    22686885.160
 112621360.425 8  87756963.627 7  21431129.531                    21431137.727
 116999248.802 8  91168378.28645  22264184.711                    22264191.430
 110969222.351 8  86469620.838 7  21116706.969                    21116715.066
 115605182.553 8  90082033.593 7  21998937.148                    21998948.184
 117207736.291 7  91330775.02645  22303889.047                    22303898.117
 120828422.006 7  94152072.893 6  22992873.414                    22992883.055
 11  8 27  2 30  0.0000000  0  9G26G21G12G29G02G05G25G30G15
 116640573.292 7  90888854.13245  22195952.711                    22195961.746
 130409709.085 6 101618141.72043  24816173.234                    24816182.863
 119307792.420 7  92967182.999 6  22703517.063                    22703525.910
 112552152.159 8  87703035.157 7  21417959.625                    21417967.949
 117043123.010 7  91202565.98445  22272533.594                    22272540.070
 111032041.870 8  86518571.103 7  21128661.320                    21128668.918
 115649551.375 8  90116606.694 7  22007379.672                    22007390.867
 117256833.505 7  91369032.58945  22313231.875                    22313241.391
 120734240.841 7  94078685.080 6  22974951.273                    22974960.879
 11  8 27  2 30 30.0000000  0  9G26G21G12G29G02G05G25G30G15
 116565621.534 7  90830450.23745  22181689.109                    22181698.195
 130353744.233 6 101574532.84543  24805523.813                    24805533.625
 119395427.019 7  93035469.688 6  22720193.258                    22720201.500
 112483198.670 8  87649305.210 7  21404838.219                    21404846.316
 117087092.117 7  91236827.63045  22280900.852                    22280907.293
 111095189.598 8  86567777.119 7  21140678.070                    21140685.988
 115694368.370 8  90151529.031 7  22015908.234                    22015919.258
 117306359.361 7  91407624.15545  22322656.797                    22322665.785
 120640179.811 7  94005390.875 6  22957052.133                    22957061.348
 11  8 27  2 31  0.0000000  0  9G26G21G12G29G02G05G25G30G15
 116491052.841 7  90772344.80545  22167499.031                    22167508.543
 130297759.705 6 101530908.66743  24794869.969                    24794879.387
 119483243.974 7  93103898.472 6  22736904.008                    22736913.340
 112414501.281 8  87595774.820 7  21391765.445                    21391773.852
 117131156.110 7  91271163.21845  22289285.711                    22289292.207
 111158662.537 8  86617236.550 7  21152756.484                    21152764.383
 115739630.592 8  90186798.286 7  22024521.563                    22024532.590
 117356310.714 7  91446547.29145  22332162.000                    22332171.172
 120546241.460 7  93932192.267 7  22939176.500                    22939185.797
 11  8 27  2 31 30.0000000  0 10G26G21G12G29G02G05G25G30G15G18
 116416870.625 7  90714540.54945  22153383.039                    22153392.000
 130241755.098 6 101487268.83643  24784212.844                    24784222.625
 119571240.765 7  93172467.390 7  22753649.719                    22753658.098
 112346062.876 8  87542446.241 7  21378742.266                    21378750.602
 117175315.511 7  91305573.13945  22297689.141                    22297695.762
 111222458.075 8  86666947.355 7  21164896.297                    21164903.832
 115785335.802 8  90222412.753 7  22033219.273                    22033229.930
 117406684.882 7  91485799.88545  22341747.664                    22341756.832
 120452428.901 7  93859091.663 6  22921324.594                    22921333.977
 129737499.71616 101094223.91553  24688231.594                    24688242.930
 11  8 27  2 32  0.0000000  0 10G26G21G12G29G02G05G25G30G15G18
 116343078.776 7  90657040.48845  22139340.555                    22139350.129
 130185729.843 6 101443612.87743  24773551.789                    24773561.242
 119659414.478 7  93241174.186 6  22770428.555                    22770436.879
 112277886.103 8  87489321.523 7  21365768.430                    21365776.840
 117219570.648 7  91340057.66845  22306110.352                    22306117.047
 111286574.011 8  86716907.812 7  21177097.094                    21177105.234
 115831481.637 8  90258370.551 7  22042000.414                    22042011.398
 117457479.329 7  91525379.96445  22351413.773                    22351422.727
 120358745.500 7  93786091.718 6  22903496.891                    22903506.313
 129648579.901 6 101024936.06143  24671311.086                    24671322.176
 11  8 27  2 32 30.0000000  0 10G26G21G12G29G02G05G25G30G15G18
 116269679.853 7  90599846.58045  22125373.164                    22125382.438
 130129682.969 6 101399940.10543  24762885.852                    24762895.770
 119747761.163 7  93310015.740 7  22787240.414                    22787248.980
 112209972.224 8  87436401.650 7  21352845.016                    21352852.961
 117263921.399 7  91374616.71545  22314550.141                    22314556.418
 111351007.068 8  86767115.376 7  21189358.359                    21189366.188
 115878064.987 8  90294669.269 7  22050864.883                    22050875.695
 117508690.517 7  91565284.77945  22361158.570                    22361168.078
 120265193.481 7  93713194.130 7  22885694.414                    22885703.629
 129559826.104 6 100955777.60443  24654420.742                    24654432.559
 11  8 27  2 33  0.0000000  0 10G26G21G12G29G02G05G25G30G15G18
 116196679.023 7  90542962.88045  22111481.828                    22111490.762
 130073615.198 6 101356251.01343  24752216.461                    24752226.234
 119836279.152 7  93378990.789 6  22804084.719                    22804093.570
 112142325.444 8  87383689.924 7  21339972.180                    21339980.324
 117308368.994 7  91409251.21645  22323008.031                    22323014.941
 111415756.628 8  86817569.574 7  21201680.117                    21201687.840
 115925084.966 8  90331308.235 7  22059812.523                    22059823.984
 117560317.317 7  91605513.45745  22370983.164                    22370992.426
 120171777.654 7  93640402.692 7  22867918.117                    22867927.047
 129471240.813 6 100886750.43543  24637563.508                    24637574.496
 11  8 27  2 33 30.0000000  0 10G26G21G12G29G02G05G25G30G15G18
 116124079.314 7  90486391.75745  22097665.648                    22097674.945
 130017525.519 6 101312544.91243  24741542.125                    24741552.137
 119924965.244 7  93448096.808 7  22820961.039                    22820970.086
 112074947.769 8  87331187.864 7  21327150.570                    21327158.672
 117352914.017 7  91443961.67045  22331485.078                    22331491.492
 111480819.608 8  86868267.991 7  21214060.852                    21214068.996
 115972538.660 8  90368285.153 7  22068842.898                    22068853.516
 117612356.544 7  91646063.49445  22380886.094                    22380894.770
 120078500.300 7  93567719.129 6  22850168.031                    22850177.055
 129382824.804 6 100817855.10843  24620738.820                    24620749.535
 11  8 27  2 34  0.0000000  0 10G26G21G12G29G02G05G25G30G15G18
 116051883.981 7  90430135.71745  22083928.000                    22083936.844
 129961413.089 6 101268821.05443  24730865.047                    24730874.484
 120013815.705 7  93517330.920 6  22837868.938                    22837877.699
 112007840.865 8  87278896.808 7  21314380.555                    21314388.699
 117397556.481 7  91478748.02045  22339980.273                    22339986.648
 111546193.003 8  86919208.296 7  21226501.102                    21226509.004
 116020423.097 8  90405597.714 7  22077954.742                    22077965.648
 117664804.924 7  91686932.35445  22390866.555                    22390875.793
 119985364.487 7  93495145.872 6  22832444.727                    22832453.633
 129294578.945 6 100749092.36943  24603945.602                    24603957.039
 11  8 27  2 34 30.0000000  0 10G26G21G12G29G02G05G25G30G15G18
 115980096.546 7  90374197.51945  22070267.516                    22070276.141
 129905277.521 6 101225079.15243  24720182.695                    24720192.402
 120102827.713 7  93586690.903 7  22854806.969                    22854815.590
 111941007.410 8  87226818.819 7  21301662.461                    21301670.625
 117442296.891 7  91513610.70945  22348493.898                    22348500.563
 111611874.656 8  86970388.794 7  21238999.953                    21239007.832
 116068736.133 8  90443244.237 7  22087148.133                    22087159.910
 117717659.942 7  91728118.09045  22400924.742                    22400933.930
 119892373.507 7  93422685.463 6  22814748.508                    22814758.031
 129206505.003 6 100680463.62943  24587185.852                    24587197.223
 11  8 27  2 35  0.0000000  0 10G26G21G12G29G02G05G25G30G15G18
 115908720.628 7  90318579.98745  22056685.430                    22056693.996
 129849118.631 6 101181319.08843  24709496.203                    24709505.496
 120191998.375 7  93656174.506 7  22871775.922                    22871784.746
 111874450.205 8  87174956.095 7  21288996.906                    21289005.406
 117487135.581 7  91548549.96445  22357026.227                    22357032.922
 111677862.189 8  87021807.638 7  21251557.164                    21251564.703
 116117475.348 8  90481222.860 7  22096423.086                    22096434.039
 117770918.904 7  91769618.58145  22411059.117                    22411068.078
 119799530.308 7  93350340.203 7  22797081.008                    22797090.789
 129118604.160 6 100611969.68042  24570458.578                    24570469.270
 11  8 27  2 35 30.0000000  0 10G26G21G12G29G02G05G25G30G15G18
 115837759.578 7  90263285.73045  22043181.430                    22043190.477
 129792935.611 6 101137540.22943  24698804.813                    24698814.176
 120281324.942 7  93725779.614 7  22888774.258                    22888783.047
 111808171.295 8  87123310.239 7  21276384.070                    21276392.121
 117532073.067 7  91583566.20345  22365578.016                    22365584.098
 111744152.962 8  87073462.782 7  21264171.883                    21264179.348
 116166638.113 8  90519531.526 7  22105778.461                    22105789.336
 117824578.984 7  91811431.64145  22421270.492                    22421279.754
 119706837.936 7  93278112.456 6  22779442.344                    22779451.945
 129030877.694 6 100543611.62442  24553764.063                    24553775.965
 11  8 27  2 36  0.0000000  0 10G26G21G12G29G02G05G25G30G15G18
 115767216.903 7  90208317.46245  22029757.680                    22029766.207
 129736728.244 6 101093742.38843  24688108.727                    24688117.586
 120370803.833 7  93795503.402 6  22905801.398                    22905809.957
 111742173.287 8  87071883.241 7  21263825.531                    21263833.660
 117577109.670 7  91618659.68045  22374148.203                    22374154.563
 111810744.887 8  87125352.594 7  21276843.422                    21276851.324
 116216222.133 8  90558168.429 7  22115213.961                    22115224.691
 117878637.492 7  91853555.14845  22431557.125                    22431566.738
 119614299.842 7  93206004.939 6  22761833.156                    22761842.238
 128943326.905 6 100475390.51042  24537104.031                    24537115.160
 11  8 27  2 36 30.0000000  0 10G26G21G12G29G02G05G25G30G15G18
 115697095.915 7  90153677.80045  22016413.781                    22016422.902
 129680495.693 6 101049924.90543  24677407.695                    24677417.453
 120460431.607 7  93865343.205 7  22922856.836                    22922866.094
 111676458.099 8  87020676.645 7  21251320.281                    21251328.215
 117622245.539 7  91653830.50845  22382736.891                    22382743.199
 111877634.977 8  87177474.732 7  21289572.617                    21289580.102
 116266224.397 8  90597131.253 7  22124728.852                    22124740.156
 117933091.108 7  91895986.55845  22441919.500                    22441928.922
 119521918.634 7  93134019.670 6  22744253.102                    22744262.367
 128855952.817 6 100407307.05942  24520476.063                    24520487.492
 11  8 27  2 37  0.0000000  0 10G26G21G12G29G02G05G25G30G15G18
 115627399.977 8  90099369.33745  22003150.977                    22003159.844
 129624237.472 6 101006087.39043  24666701.688                    24666711.586
 120550205.653 7  93935296.987 6  22939940.523                    22939949.273
 111611028.661 8  86969692.703 7  21238869.375                    21238877.512
 117667481.387 7  91689079.23545  22391345.039                    22391351.184
 111944820.759 8  87229827.284 7  21302357.539                    21302365.516
 116316642.548 8  90636418.129 7  22134323.070                    22134334.332
 117987937.350 7  91938723.89245  22452356.430                    22452365.961
 119429697.506 7  93062159.121 6  22726704.266                    22726713.141
 128768756.720 6 100339362.29542  24503883.508                    24503894.875
 11  8 27  2 37 30.0000000  0 10G26G21G12G29G02G05G25G30G15G18
 115558132.912 8  90045395.05745  21989969.727                    21989978.828
 129567953.495 6 100962229.84443  24655991.391                    24656000.734
 120640122.848 7  94005362.323 7  22957051.078                    22957060.082
 111545887.494 8  86918933.398 7  21226473.836                    21226481.547
 117712817.711 7  91724406.25845  22399972.484                    22399979.227
 112012300.084 8  87282408.576 7  21315198.586                    21315206.230
 116367474.230 8  90676027.239 7  22143996.063                    22144007.484
 118043173.491 7  91981765.03745  22462867.281                    22462876.871
 119337640.152 7  92990426.202 6  22709186.438                    22709194.789
 128681739.769 6 100271557.12543  24487324.570                    24487336.109
 11  8 27  2 38  0.0000000  0 10G26G21G12G29G02G05G25G30G15G18
 115489297.904 7  89991757.46545  21976871.016                    21976879.652
 129511642.909 6 100918351.61043  24645274.898                    24645285.832
 120730180.273 7  94075536.935 6  22974188.422                    22974197.328
 111481036.508 7  86868400.194 7  21214132.922                    21214140.930
 117758254.706 8  91759811.71445  22408619.063                    22408625.074
 112080070.554 8  87335216.738 7  21328094.719                    21328102.453
 116418716.703 8  90715956.460 7  22153747.469                    22153758.301
 118098796.456 7  92025107.62045  22473452.117                    22473461.277
 119245749.235 7  92918822.990 7  22691699.648                    22691709.078
 128594903.388 6 100203892.58842  24470800.023                    24470811.059
 11  8 27  2 38 30.0000000  0 10G26G21G12G29G02G05G25G30G15G18
 115420897.998 7  89938458.88545  21963855.000                    21963864.375
 129455305.019 6 100874452.05743  24634554.742                    24634564.367
 120820374.287 7  94145817.961 7  22991351.703                    22991360.832
 111416477.732 8  86818094.696 7  21201847.320                    21201855.371
 117803792.784 7  91795295.93645  22417283.992                    22417290.523
 112148129.141 8  87388249.407 7  21341045.703                    21341053.793
 116470366.958 8  90756203.421 7  22163576.094                    22163587.086
 118154803.007 7  92068749.10845  22484109.906                    22484119.270
 119154027.858 7  92847351.866 7  22674245.641                    22674254.879
 128508248.431 6 100136369.49843  24454310.344                    24454321.488
 11  8 27  2 39  0.0000000  0 10G26G21G12G29G02G05G25G30G15G18
 115352936.615 7  89885502.01945  21950922.320                    21950931.184
 129398939.296 6 100830530.82043  24623828.453                    24623838.133
 120910701.762 7  94216203.004 6  23008540.563                    23008549.609
 111352213.939 8  86768019.058 7  21189618.563                    21189626.566
 117849432.386 8  91830859.26345  22425969.094                    22425976.020
 112216473.375 8  87441504.665 7  21354051.477                    21354059.398
 116522422.456 8  90796766.162 7  22173481.961                    22173493.379
 118211190.368 7  92112687.32445  22494840.242                    22494849.246
 119062478.628 7  92776014.902 7  22656823.922                    22656833.457
 128421775.994 6 100068988.54043  24437854.813                    24437865.484
 11  8 27  2 39 30.0000000  0 10G26G21G12G29G02G05G25G30G15G18
 115285417.446 7  89832889.72345  21938073.367                    21938082.477
 129342545.607 6 100786587.81143  24613096.930                    24613106.977
 121001160.066 7  94286689.992 6  23025754.625                    23025763.102
 111288247.464 7  86718175.093 7  21177445.883                    21177454.188
 117895173.743 7  91866501.88645  22434673.516                    22434680.004
 112285101.128 8  87494980.844 7  21367110.648                    21367118.477
 116574880.892 8  90837642.878 7  22183464.273                    22183475.398
 118267955.866 7  92156920.17845  22505642.305                    22505651.277
 118971104.982 7  92704814.735 7  22639436.414                    22639445.730
 128335487.671 6 100001751.08843  24421434.688                    24421445.234
 11  8 27  2 40  0.0000000  0 10G26G21G12G29G02G05G25G30G15G18
 115218344.147 7  89780624.87845  21925309.961                    21925319.113
 129286123.714 6 100742622.81143  24602360.172                    24602369.730
 121091746.666 7  94357276.943 6  23042992.555                    23043001.203
 111224581.326 7  86668565.152 7  21165330.906                    21165339.004
 117941017.650 7  91902224.40745  22443397.438                    22443404.117
 112354010.389 8  87548676.376 7  21380223.609                    21380231.625
 116627739.846 8  90878831.690 7  22193523.219                    22193533.984
 118325096.917 7  92201445.68245  22516515.438                    22516525.543
 118879910.910 7  92633754.500 7  22622083.094                    22622092.148
 128249385.032 6  99934658.33643  24405050.031                    24405060.090
 11  8 27  2 40 30.0000000  0 10G26G21G12G29G02G05G25G30G15G18
 115151719.850 8  89728709.88545  21912631.734                    21912640.930
 129229673.007 6 100698635.36843  24591618.492                    24591627.230
 121182458.195 7  94427961.227 6  23060254.289                    23060262.512
 111161217.756 8  86619190.986 7  21153272.852                    21153280.930
 117986964.591 7  91938027.21545  22452140.625                    22452146.906
 112423198.252 8  87602589.000 7  21393389.906                    21393397.820
 116680996.577 8  90920330.437 7  22203657.445                    22203668.465
 118382610.413 7  92246261.39645  22527460.266                    22527469.793
 118788899.051 7  92562836.255 7  22604764.383                    22604773.152
 128163468.448 6  99867710.54143  24388700.203                    24388710.336
 11  8 27  2 41  0.0000000  0 10G26G21G12G29G02G05G25G30G15G18
 115085547.528 7  89677147.09045  21900039.664                    21900048.109
 129173192.594 6 100654624.80043  24580870.305                    24580879.191
 121273290.789 7  94498739.872 6  23077539.164                    23077547.875
 111098158.604 7  86570054.027 7  21141273.211                    21141281.047
 118033014.661 7  91973910.37945  22460903.773                    22460910.352
 112492661.718 8  87656716.393 7  21406608.023                    21406616.172
 116734647.977 8  90962136.734 7  22213867.289                    22213878.098
 118440493.058 7  92291364.75145  22538475.211                    22538484.660
 118698072.037 7  92492062.021 7  22587480.219                    22587488.805
 128077739.348 6  99800908.84243  24372386.289                    24372396.531
 11  8 27  2 41 30.0000000  0 10G26G21G12G29G02G05G25G30G15G18
 115019831.045 7  89625939.48145  21887534.141                    21887543.320
 129116682.561 6 100610591.10643  24570117.242                    24570126.164
 121364241.956 7  94569610.904 6  23094846.633                    23094855.000
 111035406.724 7  86521156.494 7  21129332.047                    21129340.109
 118079168.621 7  92009874.50745  22469686.656                    22469692.609
 112562399.174 8  87711057.268 7  21419878.789                    21419886.449
 116788691.822 8  91004248.826 7  22224151.141                    22224162.230
 118498742.347 7  92336753.82445  22549559.422                    22549568.391
 118607433.535 7  92421434.713 7  22570231.891                    22570240.703
 127992198.802 6  99734254.06943  24356108.305                    24356119.688
 11  8 27  2 42  0.0000000  0 10G26G21G12G29G02G05G25G30G15G18
 114954573.247 7  89575089.30845  21875115.969                    21875124.828
 129060141.978 6 100566533.66743  24559357.211                    24559366.738
 121455308.663 7  94640571.956 6  23112175.742                    23112184.633
 110972964.499 7  86472500.269 7  21117449.852                    21117457.781
 118125426.789 7  92045919.82145  22478488.883                    22478495.574
 112632407.745 8  87765609.414 7  21433200.859                    21433208.836
 116843125.118 8  91046664.392 7  22234509.469                    22234520.699
 118557355.030 7  92382426.04445  22560712.805                    22560722.496
 118516986.394 7  92350956.506 7  22553020.453                    22553029.730
 127906848.315 6  99667747.36043  24339866.578                    24339876.949
 11  8 27  2 42 30.0000000  0 10G26G21G12G29G02G05G25G30G15G18
 114889777.463 7  89524599.14145  21862786.086                    21862794.668
 129003570.588 6 100522452.13943  24548592.336                    24548601.016
 121546488.176 7  94711620.919 6  23129527.055                    23129535.594
 110910833.845 7  86424086.804 7  21105626.477                    21105634.613
 118171789.416 7  92082046.54745  22487311.570                    22487318.645
 112702684.923 8  87820370.855 7  21446574.141                    21446582.324
 116897945.173 8  91089381.330 7  22244941.500                    22244952.480
 118616328.072 7  92428379.08445  22571934.906                    22571944.797
 118426733.698 7  92280629.787 7  22535846.125                    22535854.434
 127821688.563 6  99601389.32743  24323661.227                    24323670.805
 11  8 27  2 43  0.0000000  0 10G26G21G12G29G02G05G25G30G15G18
 114825447.359 7  89474471.83345  21850543.648                    21850552.523
 128946967.984 6 100478346.36343  24537821.094                    24537829.090
 121637776.813 7  94782754.904 6  23146898.344                    23146906.914
 110849017.732 8  86375918.438 7  21093863.359                    21093871.383
 118218257.381 7  92118255.34845  22496154.023                    22496160.434
 112773228.557 8  87875339.943 7  21459998.375                    21460005.988
 116953149.546 8  91132397.721 7  22255446.398                    22255457.613
 118675658.887 7  92474610.88245  22583225.656                    22583234.973
 118336678.851 7  92210457.249 7  22518708.953                    22518717.660
 127736721.000 6  99535181.06343  24307492.125                    24307502.324
 11  8 27  2 43 30.0000000  0 10G26G21G12G29G02G05G25G30G15G18
 114761586.156 7  89424709.91145  21838391.273                    21838400.531
 128890333.780 6 100434215.90343  24527043.969                    24527052.684
 121729171.735 7  94853971.721 6  23164290.469                    23164299.527
 110787518.193 8  86327996.763 7  21082160.195                    21082167.953
 118264830.724 7  92154546.25345  22505016.078                    22505023.289
 112844036.068 8  87930514.639 7  21473472.352                    21473480.102
 117008735.382 8  91175711.365 7  22266024.180                    22266035.234
 118735344.397 7  92521119.08845  22594583.313                    22594592.328
 118246824.585 7  92140441.019 6  22501610.227                    22501618.633
 127651946.728 6  99469123.36343  24291359.367                    24291369.785
 11  8 27  2 44  0.0000000  0 10G26G21G12G29G02G05G25G30G15G18
 114698197.116 7  89375315.90145  21826328.844                    21826338.070
 128833667.575 6 100390060.55243  24516259.969                    24516269.453
 121820670.563 7  94925269.486 6  23181701.586                    23181710.617
 110726337.959 7  86280323.887 7  21070517.852                    21070525.586
 118311510.150 7  92190919.83145  22513899.648                    22513905.695
 112915104.939 8  87985892.997 7  21486996.070                    21487003.910
 117064699.924 8  91219320.116 7  22276673.898                    22276685.180
 118795381.546 7  92567901.29945  22606008.180                    22606017.047
 118157174.330 7  92070583.748 6  22484550.555                    22484558.848
 127567366.598 6  99403216.95643  24275264.273                    24275274.531
 11  8 27  2 44 30.0000000  0 10G26G21G12G29G02G05G25G30G15G18
 114635283.099 7  89326292.05545  21814356.656                    21814365.563
 128776968.548 6 100345879.60943  24505470.539                    24505479.785
 121912269.337 7  94996645.128 6  23199132.953                    23199141.723
 110665478.938 7  86232901.309 7  21058936.844                    21058945.055
 118358296.098 7  92227376.42045  22522802.820                    22522809.730
 112986432.610 8  88041473.015 7  21500569.297                    21500577.078
 117121040.374 7  91263221.756 7  22287394.813                    22287406.035
 118855767.295 7  92614955.12945  22617499.125                    22617508.328
 118067731.255 7  92000887.916 7  22467529.766                    22467538.465
 127482982.075 6  99337462.97343  24259207.234                    24259216.727
 11  8 27  2 45  0.0000000  0 10G26G21G12G29G02G05G25G30G15G18
 114572847.379 7  89277640.88845  21802475.953                    21802484.668
 128720236.419 6 100301672.87643  24494674.953                    24494684.359
 122003965.001 7  95068096.265 7  23216581.680                    23216590.563
 110604943.348 8  86185730.757 7  21047417.070                    21047425.441
 118405188.785 7  92263916.18545  22531725.945                    22531732.672
 113058016.685 8  88097252.831 7  21514191.484                    21514199.219
 117177753.794 7  91307414.029 7  22298187.242                    22298197.961
 118916498.431 7  92662278.09245  22629056.383                    22629064.785
 117978497.975 7  91931355.554 7  22450549.586                    22450557.543
 127398794.011 6  99271862.10142  24243185.469                    24243195.422
 11  8 27  2 45 30.0000000  0 10G26G21G12G29G02G05G25G30G15G18
 114510893.831 7  89229365.45145  21790685.992                    21790695.125
 128663471.039 6 100257440.21943  24483872.945                    24483881.848
 122095755.254 7  95139621.120 6  23234049.344                    23234058.129
 110544734.651 7  86138814.929 7  21035960.172                    21035967.801
 118452189.323 7  92300539.98245  22540669.828                    22540676.555
 113129854.840 8  88153230.621 7  21527861.695                    21527869.711
 117234838.023 7  91351895.251 7  22309050.000                    22309061.492
 118977572.587 7  92709868.37345  22640677.852                    22640687.258
 117889478.331 7  91861989.669 7  22433609.492                    22433617.984
 127314803.789 6  99206415.30643  24227203.148                    24227212.816
 11  8 27  2 46  0.0000000  0 10G26G21G12G29G02G05G25G30G15G18
 114449425.078 7  89181467.77045  21778989.141                    21778997.465
 128606671.528 6 100213180.96043  24473064.250                    24473072.590
 122187636.599 7  95211216.946 6  23251533.648                    23251542.035
 110484854.259 7  86092154.922 7  21024564.883                    21024572.840
 118499297.651 7  92337247.78745  22549634.461                    22549640.887
 113201944.161 8  88209404.141 7  21541580.250                    21541587.555
 117292289.616 7  91396662.724 7  22319982.758                    22319994.145
 119038986.040 7  92757723.02045  22652364.633                    22652373.543
 117800674.796 7  91792792.188 7  22416710.383                    22416718.992
 127231012.021 6  99141123.24743  24211257.727                    24211267.824
 11  8 27  2 46 30.0000000  0 10G26G21G12G29G02G05G25G30G15G18
 114388444.608 7  89133950.57145  21767385.258                    21767393.371
 128549838.079 6 100168895.27943  24462248.773                    24462257.625
 122279606.482 7  95282881.757 6  23269034.563                    23269043.961
 110425305.114 7  86045753.044 7  21013233.398                    21013241.172
 118546514.286 7  92374039.97545  22558619.258                    22558625.988
 113274283.302 8  88265772.317 7  21555345.836                    21555353.168
 117350106.289 7  91441714.664 7  22330984.758                    22330996.309
 119100736.282 7  92805840.10445  22664114.695                    22664123.969
 117712091.121 7  91723766.016 7  22399853.352                    22399862.152
 127147420.216 6  99075986.90143  24195350.430                    24195360.910
 11  8 27  2 47  0.0000000  0 10G26G21G12G29G02G05G25G30G15G18
 114327955.486 7  89086816.24045  21755874.203                    21755883.047
 128492969.834 6 100124582.47543  24451427.406                    24451435.672
 122371661.150 7  95354612.653 6  23286552.742                    23286561.406
 110366089.498 8  85999611.046 7  21001964.859                    21001972.332
 118593839.904 7  92410917.08945  22567624.805                    22567632.078
 113346869.181 8  88322332.768 7  21569158.117                    21569165.676
 117408285.102 7  91487048.807 7  22342055.563                    22342066.914
 119162820.221 7  92854217.20245  22675929.469                    22675938.438
 117623730.033 7  91654913.303 7  22383039.219                    22383047.371
 127064029.516 7  99011007.29343  24179482.500                    24179491.570
 11  8 27  2 47 30.0000000  0 10G26G21G12G29G02G05G25G30G15G18
 114267960.674 7  89040067.08545  21744457.367                    21744465.641
 128436066.497 6 100080242.29543  24440599.063                    24440607.379
 122463797.756 7  95426407.406 6  23304085.500                    23304093.594
 110307209.497 8  85953730.569 7  20990760.398                    20990767.887
 118641274.682 7  92447879.26045  22576651.227                    22576657.816
 113419698.918 8  88379083.227 7  21583017.352                    21583024.926
 117466823.025 7  91532662.765 7  22353195.094                    22353206.367
 119225234.463 7  92902851.69545  22687806.688                    22687815.359
 117535594.478 7  91586236.303 7  22366267.539                    22366275.957
 126980840.547 6  98946184.92043  24163651.273                    24163660.797
 11  8 27  2 48  0.0000000  0 10G26G21G12G29G02G05G25G30G15G18
 114208463.583 7  88993705.76545  21733135.367                    21733143.750
 128379127.717 6 100035874.51943  24429763.563                    24429772.105
 122556013.806 7  95498264.016 6  23321634.211                    23321642.289
 110248667.735 7  85908113.657 7  20979620.047                    20979628.191
 118688819.299 7  92484927.04345  22585699.125                    22585705.824
 113492770.575 8  88436022.196 7  21596922.430                    21596930.344
 117525717.368 7  91578554.463 7  22364402.398                    22364413.340
 119287976.231 7  92951741.39144  22699745.602                    22699754.543
 117447687.881 7  91517737.720 7  22349539.203                    22349547.984
 126897854.612 7  98881520.70243  24147860.000                    24147869.012
 11  8 27  2 48 30.0000000  0 10G26G21G12G29G02G05G25G30G15G18
 114149467.239 7  88947734.65145  21721908.477                    21721917.281
 128322153.037 6  99991478.77143  24418921.734                    24418930.195
 122648306.161 7  95570180.141 6  23339196.250                    23339204.770
 110190466.503 8  85862762.104 7  20968545.078                    20968552.535
 118736474.152 7  92522060.71044  22594767.547                    22594773.625
 113566081.754 8  88493147.813 7  21610873.000                    21610880.426
 117584965.434 7  91624721.779 7  22375676.703                    22375687.813
 119351042.515 7  93000883.96545  22711746.672                    22711755.805
 117360013.447 7  91449420.036 7  22332855.703                    22332863.660
 126815072.598 7  98817015.43643  24132106.688                    24132116.906
 11  8 27  2 49  0.0000000  0 10G26G21G12G29G02G05G25G30G15G18
 114090974.577 7  88902155.99145  21710777.742                    21710786.316
 128265142.063 6  99947054.76143  24408072.891                    24408081.703
 122740671.278 7  95642152.910 6  23356772.438                    23356781.836
 110132607.895 8  85817677.521 7  20957534.578                    20957542.555
 118784239.609 7  92559280.54445  22603857.000                    22603863.152
 113639629.667 8  88550457.885 7  21624868.781                    21624876.328
 117644564.037 7  91671162.225 7  22387018.039                    22387029.516
 119414429.967 7  93050276.80344  22723808.570                    22723817.781
 117272574.094 7  91381285.533 7  22316216.602                    22316224.457
 126732495.501 7  98752669.80443  24116392.992                    24116402.852
 11  8 27  2 49 30.0000000  0 10G26G21G12G29G02G05G25G30G15G18
 114032988.917 7  88856972.41245  21699743.648                    21699752.012
 128208094.483 6  99902602.21843  24397216.430                    24397225.445
 122833106.558 6  95714180.388 6  23374362.789                    23374370.848
 110075094.760 7  85772862.140 7  20946590.086                    20946597.809
 118832116.458 7  92596587.18445  22612967.406                    22612974.199
 113713412.383 8  88607950.921 7  21638909.125                    21638916.824
 117704510.685 7  91717873.908 7  22398425.766                    22398436.363
 119478135.803 7  93099917.71744  22735931.094                    22735940.309
 117185372.963 7  91313336.660 7  22299622.336                    22299630.602
 126650124.530 7  98688484.79543  24100717.656                    24100727.461
 11  8 27  2 50  0.0000000  0 10G26G21G12G29G02G05G25G30G15G18
 113975513.407 7  88812186.35545  21688806.383                    21688815.164
 128151009.851 6  99858120.77944  24386353.773                    24386362.738
 122925609.186 7  95786260.299 6  23391965.188                    23391973.496
 110017929.197 8  85728317.593 7  20935712.023                    20935719.973
 118880105.064 7  92633980.91345  22622099.734                    22622105.781
 113787427.098 8  88665624.742 7  21652993.555                    21653001.254
 117764802.424 7  91764854.486 7  22409899.063                    22409909.695
 119542156.879 7  93149804.26645  22748114.359                    22748123.918
 117098413.389 7  91245576.014 7  22283074.477                    22283082.383
 126567960.586 7  98624461.08943  24085083.047                    24085092.008
 11  8 27  2 50 30.0000000  0 10G26G21G12G29G02G05G25G30G15G18
 113918551.290 7  88767800.34145  21677966.875                    21677975.098
 128093888.032 6  99813610.37543  24375483.773                    24375492.730
 123018176.218 7  95858390.438 6  23409580.273                    23409589.035
 109961114.170 7  85684046.182 7  20924900.359                    20924908.137
 118928206.134 7  92671462.25845  22631252.961                    22631259.309
 113861672.297 8  88723478.155 7  21667121.922                    21667129.320
 117825436.842 7  91812102.095 7  22421437.250                    22421448.105
 119606490.554 7  93199934.41644  22760356.625                    22760365.859
 117011698.432 7  91178005.974 7  22266572.391                    22266581.422
 126486005.029 7  98560599.79143  24069486.586                    24069495.988
 11  8 27  2 51  0.0000000  0 10G26G21G12G29G02G05G25G30G15G18
 113862105.235 7  88723816.44545  21667225.500                    21667233.707
 128036728.116 6  99769070.28443  24364606.789                    24364615.289
 123110803.810 6  95930567.763 6  23427205.961                    23427215.059
 109904651.175 8  85640049.097 7  20914155.719                    20914163.719
 118976419.909 7  92709031.44144  22640427.914                    22640433.953
 113936144.505 8  88781508.472 7  21681293.656                    21681301.457
 117886410.319 7  91859613.890 7  22433040.156                    22433050.707
 119671133.037 7  93250305.17444  22772658.102                    22772667.102
 116925230.826 7  91110628.677 7  22250118.836                    22250127.324
 126404258.471 7  98496901.34843  24053930.859                    24053940.105
 11  8 27  2 51 30.0000000  0 10G26G21G12G29G02G05G25G30G15G18
 113806178.046 7  88680236.86845  21656582.805                    21656591.086
 127979530.028 6  99724500.45643  24353721.484                    24353730.691
 123203489.982 6  96002790.736 6  23444843.984                    23444852.566
 109848542.627 8  85596328.183 7  20903478.563                    20903486.387
 119024746.556 7  92746688.58045  22649623.555                    22649629.879
 114010841.657 8  88839714.055 7  21695508.086                    21695515.852
 117947720.096 7  91907387.751 7  22444706.984                    22444718.047
 119736081.332 7  93300914.24344  22785017.344                    22785026.109
 116839013.814 7  91043446.636 7  22233711.953                    22233720.484
 126322721.965 6  98433366.56143  24038414.547                    24038423.914
 11  8 27  2 52  0.0000000  0 10G26G21G12G29G02G05G25G30G15G18
 113750773.213 7  88637064.32445  21646039.805                    21646048.039
 127922293.544 6  99679900.68243  24342830.430                    24342838.934
 123296231.334 6  96075056.690 6  23462492.352                    23462500.875
 109792791.449 8  85552885.758 7  20892869.336                    20892877.285
 119073187.249 7  92784434.58444  22658841.492                    22658847.730
 114085761.432 8  88898093.111 7  21709764.328                    21709772.684
 118009363.623 7  91955421.663 7  22456437.289                    22456447.992
 119801332.704 7  93351759.46644  22797433.727                    22797442.711
 116753050.941 7  90976462.654 7  22217353.828                    22217362.230
 126241396.577 6  98369996.28043  24022939.086                    24022948.148
 11  8 27  2 52 30.0000000  0 10G26G21G12G29G02G05G25G30G15G18
 113695893.346 7  88594300.83345  21635596.656                    21635604.379
 127865017.848 6  99635270.36243  24331931.266                    24331939.566
 123389024.699 6  96147363.175 6  23480150.484                    23480158.926
 109737399.454 8  85509723.204 7  20882328.453                    20882336.676
 119121742.246 7  92822269.64044  22668081.391                    22668087.602
 114160901.221 8  88956643.610 7  21724063.289                    21724071.285
 118071337.636 7  92003713.116 7  22468230.781                    22468241.953
 119866883.642 7  93402838.13044  22809908.031                    22809917.129
 116667344.694 7  90909678.617 7  22201044.273                    22201052.543
 126160283.022 6  98306791.10543  24007502.914                    24007512.457
 11  8 27  2 53  0.0000000  0 10G26G21G12G29G02G05G25G30G15G18
 113641541.425 7  88551948.74745  21625253.594                    21625261.902
 127807702.959 6  99590609.46943  24321024.258                    24321033.160
 123481867.149 6  96219707.916 6  23497817.195                    23497826.871
 109682368.970 8  85466842.352 7  20871856.617                    20871864.637
 119170411.544 7  92860193.76144  22677342.898                    22677349.391
 114236258.493 8  89015363.567 7  21738402.961                    21738411.176
 118133639.044 7  92052259.660 7  22480086.156                    22480097.164
 119932730.884 7  93454147.66344  22822438.016                    22822447.430
 116581898.062 7  90843096.878 7  22184784.555                    22184792.598
 126079382.572 6  98243751.93743  23992108.570                    23992117.262
 11  8 27  2 53 30.0000000  0 10G26G21G12G29G02G05G25G30G15G18
 113587720.087 7  88510010.08545  21615011.625                    21615019.945
 127750348.427 6  99545917.76644  24310109.734                    24310119.363
 123574755.620 6  96292088.518 6  23515493.734                    23515502.859
 109627701.963 8  85424244.717 7  20861453.633                    20861461.582
 119219195.746 7  92898207.41644  22686626.328                    22686632.484
 114311830.929 8  89074251.188 7  21752784.109                    21752791.867
 118196265.141 7  92101059.215 7  22492003.445                    22492014.582
 119998871.549 7  93505685.83944  22835024.047                    22835033.234
 116496714.437 7  90776720.084 7  22168574.680                    22168582.359
 125998695.492 6  98180879.07743  23976753.633                    23976763.121
 11  8 27  2 54  0.0000000  0 10G26G21G12G29G02G05G25G30G15G18
 113534433.310 7  88468487.97945  21604871.125                    21604879.539
 127692954.254 6  99501195.10543  24299188.648                    24299197.297
 123667687.743 6  96364503.110 6  23533178.023                    23533187.379
 109573401.879 8  85381933.003 7  20851120.758                    20851128.934
 119268095.972 7  92936311.51044  22695931.758                    22695938.238
 114387616.689 8  89133305.038 7  21767205.836                    21767213.508
 118259213.450 7  92150109.840 7  22503982.375                    22503993.504
 120065302.956 7  93557450.57044  22847665.953                    22847675.250
 116411797.328 7  90710550.956 7  22152415.109                    22152423.688
 125918223.397 6  98118173.67743  23961440.102                    23961449.914
 11  8 27  2 54 30.0000000  0 10G26G21G12G29G02G05G25G30G15G18
 113481683.314 7  88427384.12545  21594833.313                    21594841.617
 127635519.672 6  99456440.98343  24288258.750                    24288267.555
 123760660.291 6  96436949.221 6  23550870.398                    23550879.402
 109519470.488 8  85339908.582 8  20840858.336                    20840865.957
 119317112.357 7  92974506.10145  22705259.438                    22705265.410
 114463613.360 8  89192523.231 7  21781666.945                    21781675.480
 118322480.584 7  92199408.906 7  22516021.320                    22516032.547
 120132021.559 7  93609439.07844  22860362.148                    22860370.848
 116327149.308 7  90644591.505 7  22136307.422                    22136315.094
 125837967.125 6  98055636.48043  23946168.352                    23946177.227
 11  8 27  2 55  0.0000000  0 10G26G21G12G29G02G05G25G30G15G18
 113429473.002 7  88386700.80645  21584898.398                    21584906.039
 127578044.670 6  99411655.33743  24277321.438                    24277330.078
 123853669.760 7  96509424.098 6  23568569.461                    23568578.500
 109465909.725 8  85298172.964 7  20830665.695                    20830673.777
 119366245.131 7  93012791.38244  22714609.063                    22714615.637
 114539817.708 8  89251903.249 7  21796168.945                    21796176.840
 118386063.465 7  92248954.011 7  22528120.859                    22528132.156
 120199024.027 7  93661648.79944  22873111.875                    22873121.641
 116242773.378 7  90578844.081 7  22120250.914                    22120259.500
 125757927.451 6  97993268.04843  23930936.711                    23930945.813
 11  8 27  2 55 30.0000000  0 10G26G21G12G29G02G05G25G30G15G18
 113377805.674 7  88346440.59945  21575065.898                    21575074.332
 127520528.749 6  99366837.83443  24266376.156                    24266385.039
 123946714.400 7  96581926.369 6  23586275.570                    23586284.605
 109412722.891 8  85256728.712 7  20820544.539                    20820552.418
 119415495.544 7  93051168.34345  22723980.953                    22723986.926
 114616228.359 8  89311444.014 7  21810709.125                    21810717.371
 118449959.854 7  92298743.402 7  22540280.234                    22540291.066
 120266307.963 7  93714077.83444  22885916.008                    22885925.164
 116158673.401 7  90513311.697 7  22104247.383                    22104255.352
 125678105.668 6  97931069.39043  23915747.570                    23915756.387
 11  8 27  2 56  0.0000000  0 10G26G21G12G29G02G05G25G30G15G18
 113326683.479 7  88306605.16045  21565337.992                    21565346.133
 127462971.487 6  99321988.12143  24255423.438                    24255431.852
 124039790.260 7  96654452.981 6  23603987.328                    23603996.129
 109359911.258 8  85215576.830 7  20810494.719                    20810502.797
 119464863.417 7  93089636.82244  22733375.297                    22733381.227
 114692842.099 8  89371143.046 7  21825288.281                    21825295.961
 118514165.955 7  92348774.138 7  22552497.859                    22552509.004
 120333869.431 7  93766723.13345  22898771.945                    22898781.969
 116074851.481 7  90447995.963 7  22088296.609                    22088304.918
 125598502.140 6  97869040.83343  23900599.305                    23900607.914
 11  8 27  2 56 30.0000000  0 10G26G21G12G29G02G05G25G30G15G18
 113276109.790 8  88267197.14545  21555714.094                    21555722.301
 127405372.626 6  99277106.00843  24244462.680                    24244472.051
 124132895.113 7  96727002.191 6  23621704.195                    23621713.371
 109307477.930 8  85174719.723 7  20800517.102                    20800524.594
 119514349.773 7  93128197.61744  22742792.398                    22742798.395
 114769657.277 8  89430999.022 7  21839905.953                    21839913.473
 118578679.497 7  92399044.422 7  22564774.773                    22564785.160
 120401705.866 7  93819582.67645  22911680.875                    22911690.008
 115991311.484 7  90382899.920 7  22072399.031                    22072407.285
 125519118.209 6  97807183.33743  23885492.852                    23885501.652
 11  8 27  2 57  0.0000000  0 10G26G21G12G29G02G05G25G30G15G18
 113226087.750 7  88228218.97645  21546194.945                    21546203.305
 127347732.252 6  99232191.48743  24233493.922                    24233502.844
 124226025.981 7  96799571.623 6  23639426.469                    23639435.645
 109255425.246 8  85134159.231 7  20790612.063                    20790619.559
 119563954.973 7  93166851.02245  22752231.445                    22752237.988
 114846671.464 8  89491010.084 7  21854561.203                    21854569.230
 118643497.438 7  92449551.916 7  22577108.867                    22577120.234
 120469814.107 7  93872654.02845  22924641.406                    22924651.051
 115908056.284 7  90318025.798 7  22056556.141                    22056564.730
 125439954.567 7  97745497.49343  23870428.023                    23870437.230
 11  8 27  2 57 30.0000000  0 10G26G21G12G29G02G05G25G30G15G18
 113176619.187 8  88189672.08245  21536781.250                    21536789.793
 127290049.375 6  99187243.88843  24222517.016                    24222526.215
 124319179.108 6  96872158.448 6  23657153.125                    23657161.598
 109203754.683 8  85093896.483 8  20780779.125                    20780787.094
 119613679.374 7  93205597.32344  22761693.625                    22761700.531
 114923882.071 8  89551174.201 7  21869253.781                    21869261.254
 118708616.328 7  92500293.915 7  22589500.594                    22589511.805
 120538190.638 7  93925934.43644  22937653.563                    22937663.117
 115825088.510 7  90253375.633 7  22040768.164                    22040776.340
 125361011.910 6  97683983.84443  23855406.195                    23855415.262
 11  8 27  2 58  0.0000000  0 10G26G21G12G29G02G05G25G30G15G18
 113127707.129 8  88151558.84245  21527473.734                    21527481.996
 127232324.052 6  99142263.19143  24211532.359                    24211541.242
 124412351.712 7  96944760.409 6  23674883.070                    23674892.719
 109152468.413 8  85053933.205 8  20771019.508                    20771027.516
 119663523.162 7  93244436.64245  22771179.055                    22771185.164
 115001286.335 8  89611489.215 7  21883983.336                    21883991.000
 118774033.125 7  92551268.019 7  22601949.156                    22601960.348
 120606832.078 7  93979421.26945  22950715.477                    22950724.645
 115742411.193 7  90188951.798 7  22025035.016                    22025043.273
 125282291.111 7  97622643.07343  23840426.203                    23840434.387
 11  8 27  2 58 30.0000000  0 10G26G21G12G29G02G05G25G30G15G18
 113079354.197 7  88113881.27345  21518272.531                    21518281.191
 127174555.680 7  99097248.94743  24200539.586                    24200547.828
 124505541.032 7  97017375.469 6  23692616.602                    23692625.313
 109101568.677 7  85014271.102 8  20761333.875                    20761341.504
 119713487.095 7  93283369.58644  22780686.859                    22780693.414
 115078882.276 8  89671953.589 7  21898749.156                    21898756.887
 118839744.922 7  92602472.023 7  22614453.727                    22614464.414
 120675735.399 7  94033112.18244  22963827.469                    22963836.832
 115660027.565 7  90124756.822 7  22009358.070                    22009365.977
 125203793.062 6  97561475.87743  23825488.938                    23825496.902
 11  8 27  2 59  0.0000000  0 10G26G21G12G29G02G05G25G30G15G18
 113031563.499 8  88076641.80545  21509177.961                    21509186.547
 127116744.449 6  99052201.32843  24189538.773                    24189546.492
 124598744.615 6  97090001.550 6  23710353.094                    23710361.973
 109051058.679 8  84974912.705 7  20751721.984                    20751729.750
 119763571.853 7  93322396.67544  22790217.695                    22790223.605
 115156667.865 8  89732565.737 7  21913551.508                    21913559.199
 118905749.127 7  92653903.869 7  22627013.758                    22627025.254
 120744897.917 7  94087005.03144  22976988.469                    22976997.691
 115577941.065 7  90060793.360 7  21993737.273                    21993745.313
 125125518.891 7  97500483.14243  23810593.141                    23810601.676
 11  8 27  2 59 30.0000000  0 10G26G21G12G29G02G05G25G30G15G18
 112984337.903 8  88039842.68945  21500191.344                    21500199.813
 127058889.932 7  99007119.97243  24178529.203                    24178537.246
 124691959.295 6  97162636.356 6  23728090.992                    23728100.141
 109000940.199 8  84935859.379 7  20742184.617                    20742192.457
 119813777.896 7  93361518.27944  22799771.367                    22799777.734
 115234640.420 8  89793323.580 7  21928389.172                    21928396.805
 118972042.495 7  92705561.037 7  22639628.648                    22639639.781
 120814316.120 7  94141097.14044  22990198.297                    22990207.875
 115496154.460 7  89997063.599 7  21978173.703                    21978181.938
 125047469.237 6  97439665.31443  23795740.664                    23795749.707
 11  8 27  3  0  0.0000000  0 10G26G21G12G29G02G05G25G30G15G18
 112937679.709 7  88003485.68745  21491312.500                    21491321.055
 127000991.868 7  98962004.67243  24167511.266                    24167519.613
 124785182.252 7  97235277.551 6  23745831.063                    23745839.902
 108951215.588 8  84897112.978 7  20732722.313                    20732730.172
 119864105.649 7  93400734.72044  22809348.492                    22809354.953
 115312797.729 8  89854225.388 7  21943261.789                    21943269.695
 119038622.041 7  92757441.195 7  22652298.219                    22652310.051
 120883986.921 7  94195386.06144  23003456.664                    23003465.863
 115414670.717 7  89933569.813 7  21962667.891                    21962675.828
 124969645.106 6  97379023.23143  23780931.438                    23780939.789
 11  8 27  3  0 30.0000000  0 10G26G21G12G29G02G05G25G30G15G18
 112891591.640 8  87967572.94945  21482542.242                    21482550.961
 126943050.014 6  98916855.22943  24156485.500                    24156493.641
 124878410.600 7  97307922.992 6  23763571.211                    23763580.746
 108901887.148 8  84858675.262 7  20723335.625                    20723343.723
 119914555.655 7  93440046.42744  22818948.430                    22818954.574
 115391137.781 8  89915269.577 7  21958169.625                    21958177.293
 119105484.793 7  92809542.054 7  22665022.211                    22665033.695
 120953907.177 7  94249869.36744  23016761.914                    23016771.148
 115333492.814 7  89870314.349 7  21947220.578                    21947228.324
 124892046.979 6  97318557.28043  23766164.352                    23766172.930
 11  8 27  3  1  0.0000000  0 10G26G21G12G29G02G05G25G30G15G18
 112846076.689 7  87932106.79345  21473880.781                    21473889.234
 126885064.124 7  98871671.48544  24145450.836                    24145459.313
 124971641.582 7  97380570.465 6  23781313.016                    23781322.035
 108852957.297 8  84820548.143 8  20714024.156                    20714031.965
 119965128.730 7  93479454.02844  22828572.563                    22828578.875
 115469658.124 8  89976454.269 7  21973111.367                    21973118.914
 119172627.942 8  92861861.377 7  22677799.172                    22677810.305
 121024073.940 7  94304544.75444  23030114.523                    23030123.391
 115252624.167 7  89807299.870 7  21931831.477                    21931839.555
 124814676.170 6  97258268.44943  23751441.508                    23751449.914
 11  8 27  3  1 30.0000000  0 10G26G21G12G29G02G05G25G30G15G18
 112801136.884 7  87897088.80745  21465329.094                    21465337.238
 126827033.882 7  98826453.20344  24134408.109                    24134416.672
 125064872.096 7  97453217.587 6  23799053.695                    23799063.313
 108804427.570 8  84782732.800 8  20704789.305                    20704797.172
 120015824.927 7  93518957.56344  22838219.891                    22838226.172
 115548356.127 8  90037777.391 7  21988087.516                    21988094.996
 119240047.993 7  92914396.484 7  22690628.648                    22690639.715
 121094483.555 7  94359409.38544  23043512.273                    23043521.539
 115172067.414 7  89744528.415 7  21916502.188                    21916509.695
 124737532.504 6  97198156.61343  23736761.188                    23736770.367
 11  8 27  3  2  0.0000000  0 10G26G21G12G29G02G05G25G30G15G18
 112756775.211 8  87862521.30645  21456887.477                    21456895.734
 126768958.900 7  98781200.02143  24123356.711                    24123364.793
 125158099.465 6  97525862.255 6  23816794.766                    23816804.137
 108756300.797 8  84745231.456 7  20695630.992                    20695638.844
 120066645.003 7  93558557.64044  22847890.117                    22847896.234
 115627229.913 7  90099237.491 7  22003096.344                    22003104.066
 119307742.248 7  92967145.241 7  22703511.133                    22703521.785
 121165133.160 7  94414461.03044  23056956.375                    23056965.738
 115091825.841 7  89682002.560 7  21901232.352                    21901240.496
 124660617.882 6  97138223.25443  23722124.188                    23722133.363
 11  8 27  3  2 30.0000000  0 10G26G21G12G29G02G05G25G30G15G18
 112712994.050 8  87828406.15045  21448556.219                    21448564.355
 126710839.034 6  98735911.89743  24112296.438                    24112304.605
 125251320.497 7  97598501.967 6  23834534.070                    23834542.895
 108708578.879 8  84708045.575 8  20686549.961                    20686557.988
 120117589.542 7  93598254.68244  22857585.047                    22857591.199
 115706277.014 8  90160832.646 7  22018138.703                    22018146.332
 119375707.516 7  93020105.213 7  22716443.805                    22716454.617
 121236019.435 7  94469697.07444  23070445.648                    23070454.734
 115011902.128 7  89619724.384 7  21886023.234                    21886031.824
 124583932.497 6  97078468.52843  23707532.398                    23707540.992
 11  8 27  3  3  0.0000000  0 10G26G21G12G29G02G05G25G30G15G18
 112669796.039 7  87794745.40345  21440335.906                    21440344.148
 126652673.939 7  98690588.53743  24101228.164                    24101236.680
 125344532.755 7  97671134.839 6  23852271.984                    23852280.941
 108661264.199 8  84671177.021 8  20677546.289                    20677553.695
 120168659.061 7  93638049.12144  22867302.992                    22867309.504
 115785494.951 8  90222560.904 7  22033213.398                    22033220.859
 119443940.853 7  93073274.033 7  22729428.383                    22729439.309
 121307139.261 6  94525115.09244  23083979.102                    23083989.230
 114932299.557 7  89557696.467 7  21870875.258                    21870883.293
 124507477.296 6  97018893.16543  23692982.734                    23692991.633
 11  8 27  3  3 30.0000000  0 10G26G21G12G29G02G05G25G30G15G18
 112627183.736 8  87761541.04945  21432226.883                    21432235.563
 126594463.711 7  98645229.99544  24090151.305                    24090160.016
 125437733.272 7  97743758.590 6  23870007.070                    23870016.344
 108614359.005 8  84634627.545 8  20668620.180                    20668628.063
 120219854.005 7  93677941.26944  22877045.148                    22877051.379
 115864881.709 7  90284420.716 7  22048320.352                    22048327.273
 119512439.290 7  93126649.442 7  22742463.031                    22742473.902
 121378489.571 7  94580712.75344  23097556.945                    23097566.430
 114853021.273 7  89495921.225 7  21855789.508                    21855797.238
 124431253.205 6  96959497.86743  23678477.445                    23678486.125
 11  8 27  3  4  0.0000000  0 10G26G21G12G29G02G05G25G30G15G18
 112585159.496 8  87728794.92645  21424230.156                    21424238.512
 126536207.967 7  98599835.97844  24079065.914                    24079073.422
 125530919.150 7  97816370.907 6  23887740.188                    23887749.449
 108567865.526 8  84598398.883 8  20659772.953                    20659780.598
 120271174.698 7  93717931.41344  22886810.586                    22886817.750
 115944435.204 8  90346410.451 7  22063458.438                    22063466.020
 119581199.596 7  93180228.906 7  22755547.773                    22755558.719
 121450066.947 7  94636487.32744  23111177.680                    23111187.145
 114774069.810 7  89434400.651 7  21840765.039                    21840773.172
 124355260.547 7  96900282.90244  23664016.773                    23664025.586
 11  8 27  3  4 30.0000000  0 10G26G21G12G29G02G05G25G30G15G18
 112543725.499 8  87696508.73145  21416345.195                    21416353.871
 126477906.433 7  98554406.30544  24067970.852                    24067979.285
 125624087.333 7  97888969.453 6  23905468.930                    23905478.379
 108521785.338 8  84562492.266 8  20651004.484                    20651012.055
 120322621.619 7  93758019.91544  22896601.289                    22896607.500
 116024152.700 8  90408527.985 7  22078628.406                    22078635.848
 119650218.472 8  93234009.847 7  22768681.672                    22768692.500
 121521868.019 7  94692436.21044  23124840.664                    23124849.891
 114695448.031 7  89373136.991 7  21825804.039                    21825812.203
 124279499.897 7  96841248.71443  23649600.188                    23649609.242
 11  8 27  3  5  0.0000000  0 10G26G21G12G29G02G05G25G30G15G18
 112502884.699 8  87664684.77345  21408573.391                    21408581.762
 126419558.943 7  98508940.79344  24056867.805                    24056876.164
 125717235.129 6  97961552.111 6  23923194.305                    23923203.996
 108476121.151 8  84526909.805 8  20642314.766                    20642322.375
 120374195.560 7  93798207.38044  22906415.203                    22906421.418
 116104032.198 8  90470771.752 7  22093828.727                    22093836.695
 119719493.314 7  93287990.240 7  22781864.227                    22781875.031
 121593889.935 7  94748557.17544  23138546.406                    23138554.914
 114617159.495 7  89312132.970 7  21810906.203                    21810914.434
 124203972.632 7  96782396.38244  23635227.914                    23635236.578
 11  8 27  3  5 30.0000000  0 10G26G21G12G29G02G05G25G30G15G18
 112462639.288 8  87633324.73645  21400915.102                    21400923.516
 126361165.422 7  98463439.42543  24045756.250                    24045763.957
 125810359.813 6  98034116.748 6  23940916.289                    23940924.801
 108430875.097 8  84491653.163 8  20633704.727                    20633712.551
 120425896.907 7  93838494.15044  22916253.984                    22916260.180
 116184071.248 8  90533139.845 7  22109059.711                    22109067.191
 119789020.934 7  93342167.597 7  22795095.031                    22795105.543
 121666129.449 7  94804847.70744  23152293.039                    23152302.473
 114539206.856 7  89251390.703 7  21796072.078                    21796080.477
 124128679.099 7  96723726.21444  23620899.617                    23620908.645
 11  8 27  3  6  0.0000000  0 10G26G21G12G29G02G05G25G30G15G18
 112422991.898 8  87602430.71145  21393370.391                    21393378.797
 126302725.636 7  98417902.01444  24034635.063                    24034643.023
 125903458.681 6  98106661.286 6  23958632.063                    23958641.262
 108386049.464 8  84456724.124 8  20625174.414                    20625182.012
 120477726.453 7  93878880.78044  22926116.484                    22926122.914
 116264267.860 7  90595630.726 7  22124320.586                    22124328.637
 119858798.414 7  93396539.649 7  22808373.180                    22808384.316
 121738583.523 7  94861305.41144  23166081.250                    23166089.547
 114461593.370 7  89190912.727 7  21781303.070                    21781310.898
 124053620.054 7  96665238.72543  23606616.320                    23606624.645
 11  8 27  3  6 30.0000000  0 10G26G21G12G29G02G05G25G30G15G18
 112383944.580 8  87572004.26745  21385939.820                    21385947.988
 126244238.937 6  98372328.04243  24023504.938                    24023513.809
 125996528.685 6  98179183.291 6  23976342.773                    23976352.262
 108341646.052 8  84422124.085 8  20616724.742                    20616732.656
 120529684.414 7  93919367.48545  22936003.555                    22936010.402
 116344619.800 8  90658242.618 7  22139611.078                    22139618.840
 119928822.423 7  93451103.802 7  22821698.789                    22821709.082
 121811248.648 7  94917927.60344  23179908.047                    23179917.996
 114384321.555 7  89130700.961 7  21766598.656                    21766606.766
 123978796.304 7  96606934.61443  23592377.938                    23592386.820
 11  8 27  3  7  0.0000000  0 10G26G21G12G29G02G05G25G30G15G18
 112345500.077 8  87542047.54645  21378624.375                    21378632.543
 126185705.464 7  98326717.64244  24012366.195                    24012374.941
 126089567.266 6  98251680.838 6  23994047.063                    23994057.016
 108297667.308 8  84387854.947 8  20608355.953                    20608363.555
 120581771.396 7  93959954.72844  22945915.664                    22945922.246
 116425125.024 7  90720973.958 7  22154930.680                    22154938.672
 119999090.094 7  93505857.824 7  22835070.203                    22835080.844
 121884121.898 7  94974711.94744  23193775.438                    23193784.949
 114307394.793 7  89070758.075 7  21751959.711                    21751967.922
 123904208.790 7  96548814.56243  23578183.844                    23578192.766
 11  8 27  3  7 30.0000000  0 10G26G21G12G29G02G05G25G30G15G18
 112307659.941 8  87512561.75745  21371423.656                    21371432.137
 126127125.163 7  98281070.76644  24001219.094                    24001227.387
 126182571.507 6  98324151.620 6  24011745.344                    24011755.203
 108254115.074 8  84353918.163 8  20600068.359                    20600076.055
 120633987.696 7  94000642.74844  22955852.484                    22955858.941
 116505780.964 7  90783822.741 7  22170279.391                    22170286.652
 120069598.061 7  93560799.072 7  22848487.125                    22848498.023
 121957199.733 7  95031655.70344  23207682.313                    23207690.965
 114230815.648 7  89011086.055 7  21737386.992                    21737395.598
 123829857.530 7  96490878.59044  23564035.836                    23564043.293
 11  8 27  3  8  0.0000000  0 10G26G21G12G29G02G05G25G30G15G18
 112270426.971 8  87483549.09246  21364338.461                    21364346.547
 126068497.615 7  98235387.03944  23990062.914                    23990071.113
 126275538.536 6  98396593.404 6  24029436.250                    24029445.699
 108210991.512 8  84320315.410 8  20591862.094                    20591869.789
 120686334.069 7  94041432.11444  22965813.563                    22965820.000
 116586585.409 7  90846787.246 7  22185655.547                    22185663.410
 120140343.453 7  93615925.348 7  22861948.883                    22861960.078
 122030479.225 7  95088756.60744  23221626.719                    23221635.527
 114154586.983 7  88951687.143 7  21722881.586                    21722889.703
 123755743.486 7  96433127.46143  23549932.023                    23549940.543
 11  8 27  3  8 30.0000000  0 10G26G21G12G29G02G05G25G30G15G18
 112233803.646 8  87455011.46345  21357369.016                    21357377.047
 126009822.841 7  98189666.48744  23978896.773                    23978905.430
 126368465.601 6  98469004.034 6  24047120.055                    24047129.035
 108168299.324 8  84287048.794 8  20583738.156                    20583745.590
 120738811.355 7  94082323.48844  22975799.313                    22975806.184
 116667536.658 7  90909866.151 7  22201059.805                    22201067.801
 120211323.500 7  93671234.443 7  22875456.469                    22875467.316
 122103957.443 6  95146012.36244  23235608.523                    23235618.027
 114078712.227 8  88892563.980 7  21708442.664                    21708450.762
 123681867.659 7  96375561.95743  23535874.078                    23535882.172
 11  8 27  3  9  0.0000000  0 10G26G21G12G29G02G05G25G30G15G18
 112197791.905 8  87426950.40445  21350516.438                    21350524.313
 125951100.910 6  98143909.24944  23967722.602                    23967731.152
 126461349.974 6  98541381.437 6  24064795.234                    24064805.078
 108126040.139 8  84254119.584 8  20575696.000                    20575703.734
 120791419.684 7  94123316.97044  22985810.641                    22985816.949
 116748631.963 7  90973057.290 7  22216492.016                    22216499.746
 120282534.783 7  93726723.736 7  22889007.320                    22889018.555
 122177630.781 7  95203420.13644  23249628.602                    23249637.746
 114003194.112 8  88833718.742 7  21694072.203                    21694080.410
 123608230.513 7  96318182.44444  23521860.961                    23521869.488
 11  8 27  3  9 30.0000000  0 10G26G21G12G29G02G05G25G30G15G18
 112162393.841 8  87399367.52945  21343779.789                    21343788.223
 125892331.356 6  98098114.86144  23956539.141                    23956547.609
 126554189.105 6  98613723.550 6  24082462.477                    24082471.527
 108084215.727 8  84221529.156 8  20567737.414                    20567745.012
 120844159.474 7  94164412.91544  22995846.781                    22995853.043
 116829869.232 7  91036359.051 7  22231951.281                    22231958.945
 120353974.112 7  93782390.734 7  22902601.805                    22902613.152
 122251496.094 7  95260977.51744  23263684.484                    23263693.836
 113928035.654 8  88775153.751 7  21679769.945                    21679777.961
 123534832.451 7  96260989.24543  23507893.844                    23507902.430
 11  8 27  3 10  0.0000000  0 10G26G21G12G29G02G05G25G30G15G18
 112127611.661 8  87372264.56645  21337161.070                    21337169.090
 125833514.004 7  98052283.24344  23945346.008                    23945354.426
 126646979.867 7  98686028.004 6  24100119.766                    24100128.957
 108042828.035 8  84189279.031 8  20559861.641                    20559869.176
 120897031.030 7  94205611.51444  23005907.820                    23005914.164
 116911246.219 7  91099769.679 7  22247436.508                    22247444.223
 120425638.342 7  93838232.980 7  22916239.031                    22916250.246
 122325549.985 7  95318681.83244  23277776.703                    23277785.961
 113853239.238 8  88716870.871 7  21665536.586                    21665544.656
 123461673.949 7  96203982.68644  23493972.344                    23493980.551
 11  8 27  3 10 30.0000000  0 10G26G21G12G29G02G05G25G30G15G18
 112093447.891 8  87345643.48345  21330660.211                    21330668.176
 125774648.648 7  98006414.21744  23934144.289                    23934152.828
 126739719.953 6  98758292.964 6  24117767.813                    24117776.879
 108001879.843 8  84157371.372 8  20552069.359                    20552076.746
 120950035.419 7  94246913.63744  23015994.336                    23016000.371
 116992761.022 7  91163287.720 7  22262948.219                    22262955.957
 120497524.677 7  93894248.270 7  22929918.664                    22929929.605
 122399789.590 7  95376530.85444  23291904.594                    23291913.578
 113778808.056 8  88658872.582 7  21651372.883                    21651381.156
 123388755.959 7  96147163.57443  23480096.453                    23480104.543
 11  8 27  3 11  0.0000000  0 10G26G21G12G29G02G05G25G30G15G18
 112059904.218 8  87319505.58345  21324276.633                    21324285.125
 125715735.637 7  97960508.05444  23922934.219                    23922942.043
 126832406.408 7  98830516.125 6  24135405.094                    24135414.539
 107961373.268 8  84125807.835 8  20544361.336                    20544368.535
 121003173.185 7  94288319.70144  23026105.609                    23026112.066
 117074411.263 7  91226911.295 7  22278485.813                    22278493.516
 120569630.035 7  93950434.251 7  22943640.023                    22943650.957
 122474211.744 7  95434522.13844  23306066.156                    23306075.566
 113704745.363 7  88601161.426 7  21637279.273                    21637287.297
 123316079.233 6  96090532.45843  23466266.359                    23466274.781
 11  8 27  3 11 30.0000000  0 10G26G21G12G29G02G05G25G30G15G18
 112026982.922 8  87293852.66645  21318012.109                    21318020.258
 125656774.005 7  97914564.00444  23911713.844                    23911722.395
 126925036.080 6  98902695.044 6  24153032.180                    24153040.941
 107921309.244 8  84094589.131 8  20536737.297                    20536744.824
 121056444.314 7  94329829.64544  23036243.031                    23036249.348
 117156194.751 7  91290638.676 7  22294048.719                    22294056.336
 120641950.889 7  94006788.148 7  22957401.766                    22957413.234
 122548812.847 7  95492652.83544  23320262.297                    23320271.680
 113631053.249 8  88543739.039 7  21623255.992                    21623263.949
 123243644.085 7  96034089.57244  23452482.414                    23452490.465
 11  8 27  3 12  0.0000000  0 10G26G21G12G29G02G05G25G30G15G18
 111994686.090 8  87268686.34145  21311865.969                    21311874.246
 125597764.433 7  97868582.62044  23900484.805                    23900493.051
 127017606.504 7  98974827.811 6  24170647.641                    24170656.867
 107881690.841 8  84063717.679 8  20529198.219                    20529205.672
 121109849.693 7  94371444.22744  23046405.445                    23046411.832
 117238109.618 7  91354468.438 7  22309636.625                    22309644.801
 120714484.713 7  94063307.991 7  22971205.125                    22971215.871
 122623590.250 7  95550920.93844  23334492.289                    23334501.449
 113557735.057 8  88486608.012 7  21609304.047                    21609311.813
 123171451.267 6  95977835.51444  23438744.539                    23438752.797
 11  8 27  3 12 30.0000000  0 10G26G21G12G29G02G05G25G30G15G18
 111963015.787 8  87244008.22445  21305839.586                    21305847.688
 125538706.602 7  97822563.60044  23889246.750                    23889254.113
 127110115.183 6  99046912.458 5  24188251.695                    24188260.391
 107842519.519 8  84033194.587 8  20521743.984                    20521751.488
 121163389.504 7  94413163.54544  23056593.742                    23056600.414
 117320153.499 7  91418398.738 7  22325249.102                    22325256.449
 120787227.992 7  94119991.046 7  22985047.719                    22985058.777
 122698540.350 6  95609323.61244  23348754.734                    23348763.965
 113484793.599 8  88429770.564 7  21595423.898                    21595432.043
 123099501.164 6  95921770.58544  23425052.906                    23425061.043
 11  8 27  3 13  0.0000000  0 10G26G21G12G29G02G05G25G30G15G18
 111931973.662 8  87219819.58246  21299932.297                    21299940.719
 125479600.410 7  97776506.89644  23877998.875                    23878007.039
 127202559.200 7  99118946.733 6  24205842.883                    24205852.148
 107803797.383 8  84003021.526 8  20514375.641                    20514382.957
 121217064.255 7  94454988.05044  23066808.008                    23066813.898
 117402324.215 7  91482427.859 7  22340885.758                    22340893.098
 120860177.544 7  94176834.852 7  22998929.469                    22998940.406
 122773659.836 7  95667858.24344  23363049.063                    23363058.656
 113412231.298 8  88373228.548 7  21581615.570                    21581623.102
 123027794.201 7  95865895.10944  23411407.445                    23411415.824
 11  8 27  3 13 30.0000000  0 10G26G21G12G29G02G05G25G30G15G18
 111901562.310 7  87196122.47846  21294145.430                    21294153.801
 125420446.006 7  97730412.61844  23866742.266                    23866749.676
 127294936.221 6  99190928.766 6  24223421.836                    24223431.254
 107765527.326 8  83973200.714 8  20507092.828                    20507100.367
 121270875.082 7  94496918.53444  23077048.055                    23077054.242
 117484619.880 7  91546554.358 7  22356546.031                    22356553.656
 120933330.835 7  94233837.380 7  23012850.078                    23012860.793
 122848946.104 7  95726522.84544  23377375.695                    23377385.508
 113340051.837 8  88316984.840 7  21567880.125                    21567887.824
 122956331.505 7  95810209.96644  23397808.516                    23397816.031
 11  8 27  3 14  0.0000000  0 10G26G21G12G29G02G05G25G30G15G18
 111871783.025 8  87172917.86845  21288478.148                    21288486.695
 125361242.339 7  97684279.98944  23855475.594                    23855483.496
 127387243.316 6  99262856.326 6  24240987.672                    24240996.684
 107727709.741 8  83943732.488 8  20499896.250                    20499903.895
 121324821.626 6  94538954.81544  23087313.039                    23087319.434
 117567037.898 7  91610776.196 7  22372229.750                    22372237.516
 121006684.059 7  94290995.726 7  23026808.578                    23026819.930
 122924395.225 6  95785314.35944  23391733.242                    23391742.223
 113268256.913 8  88261040.796 7  21554217.828                    21554226.137
 122885112.944 7  95754715.05944  23384255.680                    23384263.801
